[[{"header":{"parameterUnit":"m.s-1","parameterCategory":1,"la1":31.0,"la2":29.5877,"lo1":-88.7671,"lo2":-86.6584,"dy":0.0162,"dx":0.0185,"nx":115,"ny":88,"refTime":"2023-10-20T18:00:00:Z","depth":0,"parameterNumber":2,"parameterNumberName":"U-component_of_WINDS"},"data":[0.0,0.0,0.0,0.0,0.0,0.0,0.0,0.0,0.0,0.0,0.0,0.0,0.0,0.0,0.0,0.0,0.0,0.0,0.0,0.0,0.0,0.0,0.0,0.0,0.0,0.0,0.0,0.0,0.0,0.0,0.0,0.0,0.0,0.0,0.0,0.0,0.0,0.0,0.0,0.0,0.0,0.0,0.0,0.0,0.0,0.0,0.0,0.0,0.0,0.0,0.0,0.0,0.0,0.0,0.0,0.0,0.0,0.0,0.0,0.0,0.0,0.0,0.0,0.0,0.0,0.0,0.0,0.0,0.0,0.0,0.0,0.0,0.0,0.0,0.0,0.0,0.0,0.0,0.0,0.0,0.0,0.0,0.0,0.0,0.0,0.0,0.0,0.0,0.0,0.0,0.0,0.0,0.0,0.0,0.0,0.0,0.0,0.0,0.0,0.0,0.0,0.0,0.0,0.0,0.0,0.0,0.0,0.0,0.0,0.0,0.0,0.0,0.0,0.0,0.0,0.0,0.0,0.0,0.0,0.0,0.0,0.0,0.0,0.0,0.0,0.0,0.0,0.0,0.0,0.0,0.0,0.0,0.0,0.0,0.0,0.0,0.0,0.0,0.0,0.0,0.0,0.0,0.0,0.0,0.0,0.0,0.0,0.0,0.0,0.0,0.0,0.0,0.0,0.0,0.0,0.0,0.0,0.0,0.0,0.0,0.0,0.0,0.0,0.0,0.0,0.0,0.0,0.0,0.0,0.0,0.0,0.0,0.0,0.0,0.0,0.0,0.0,0.0,0.0,0.0,0.0,0.0,0.0,0.0,0.0,0.0,0.0,0.0,0.0,0.0,0.0,0.0,0.0,0.0,0.0,0.0,0.0,0.0,0.0,0.0,0.0,0.0,0.0,0.0,0.0,0.0,0.0,0.0,0.0,0.0,0.0,0.0,0.0,0.0,0.0,0.0,0.0,0.0,0.0,0.0,0.0,0.0,0.0,0.0,0.0,0.0,0.0,0.0,0.0,0.0,0.0,0.0,0.0,0.0,0.0,0.0,0.0,0.0,0.0,0.0,0.0,0.0,0.0,0.0,0.0,0.0,0.0,0.0,0.0,0.0,0.0,0.0,0.0,0.0,0.0,0.0,0.0,0.0,0.0,0.0,0.0,0.0,0.0,0.0,0.0,0.0,0.0,0.0,0.0,0.0,0.0,0.0,0.0,0.0,0.0,0.0,0.0,0.0,0.0,0.0,0.0,0.0,0.0,0.0,0.0,0.0,0.0,0.0,0.0,0.0,0.0,0.0,0.0,0.0,0.0,0.0,0.0,0.0,0.0,0.0,0.0,0.0,0.0,0.0,0.0,0.0,0.0,0.0,0.0,0.0,0.0,0.0,0.0,0.0,0.0,0.0,0.0,0.0,0.0,0.0,0.0,0.0,0.0,0.0,0.0,0.0,0.0,0.0,0.0,0.0,0.0,0.0,0.0,0.0,0.0,0.0,0.0,0.0,0.0,0.0,0.0,0.0,0.0,0.0,0.0,0.0,0.0,0.0,0.0,0.0,0.0,0.0,0.0,0.0,0.0,0.0,0.0,0.0,0.0,0.0,0.0,0.0,0.0,0.0,0.0,0.0,0.0,0.0,0.0,0.0,0.0,0.0,0.0,0.0,0.0,0.0,0.0,0.0,0.0,0.0,0.0,0.0,0.0,0.0,0.0,0.0,0.0,0.0,0.0,0.0,0.0,0.0,0.0,0.0,0.0,0.0,0.0,0.0,0.0,0.0,0.0,0.0,0.0,0.0,0.0,0.0,0.0,0.0,0.0,0.0,0.0,0.0,0.0,0.0,0.0,0.0,0.0,0.0,0.0,0.0,0.0,0.0,0.0,0.0,0.0,0.0,0.0,0.0,0.0,0.0,0.0,0.0,0.0,0.0,0.0,0.0,0.0,0.0,0.0,0.0,0.0,0.0,0.0,0.0,0.0,0.0,0.0,0.0,0.0,0.0,0.0,0.0,0.0,0.0,0.0,0.0,0.0,0.0,0.0,0.0,0.0,0.0,0.0,0.0,0.0,0.0,0.0,0.0,0.0,0.0,0.0,0.0,0.0,0.0,0.0,0.0,0.0,0.0,0.0,0.0,0.0,0.0,0.0,0.0,0.0,0.0,0.0,0.0,0.0,0.0,0.0,0.0,0.0,0.0,0.0,0.0,0.0,0.0,0.0,0.0,0.0,0.0,0.0,0.0,0.0,0.0,0.0,0.0,0.0,0.0,0.0,0.0,0.0,0.0,0.0,0.0,0.0,0.0,0.0,0.0,0.0,0.0,0.0,0.0,0.0,0.0,0.0,0.0,0.0,0.0,0.0,0.0,0.0,0.0,0.0,0.0,0.0,0.0,0.0,0.0,0.0,0.0,0.0,0.0,0.0,0.0,0.0,0.0,0.0,0.0,0.0,0.0,0.0,0.0,0.0,0.0,0.0,0.0,0.0,0.0,0.0,0.0,0.0,0.0,0.0,0.0,0.0,0.0,0.0,0.0,0.0,0.0,0.0,0.0,0.0,0.0,0.0,0.0,0.0,0.0,0.0,0.0,0.0,0.0,0.0,0.0,0.0,0.0,0.0,0.0,0.0,0.0,0.0,0.0,0.0,0.0,0.0,0.0,0.0,0.0,0.0,0.0,0.0,0.0,0.0,0.0,0.0,0.0,0.0,0.0,0.0,0.0,0.0,0.0,0.0,0.0,0.0,0.0,0.0,0.0,0.0,0.0,0.0,0.0,0.0,0.0,0.0,0.0,0.0,0.0,0.0,0.0,0.0,0.0,0.0,0.0,0.0,0.0,0.0,0.0,0.0,0.0,0.0,0.0,0.0,0.0,0.0,0.0,0.0,0.0,0.0,0.0,0.0,0.0,0.0,0.0,0.0,0.0,0.0,0.0,0.0,0.0,0.0,0.0,0.0,0.0,0.0,0.0,0.0,0.0,0.0,0.0,0.0,0.0,0.0,0.0,0.0,0.0,0.0,0.0,0.0,0.0,0.0,0.0,0.0,0.0,0.0,0.0,0.0,0.0,0.0,0.0,0.0,0.0,0.0,0.0,0.0,0.0,0.0,0.0,0.0,0.0,0.0,0.0,0.0,0.0,0.0,0.0,0.0,0.0,0.0,0.0,0.0,0.0,0.0,0.0,0.0,0.0,0.0,0.0,0.0,0.0,0.0,0.0,0.0,0.0,0.0,0.0,0.0,0.0,0.0,0.0,0.0,0.0,0.0,0.0,0.0,0.0,0.0,0.0,0.0,0.0,0.0,0.0,0.0,0.0,0.0,0.0,0.0,0.0,0.0,0.0,0.0,0.0,0.0,0.0,0.0,0.0,0.0,0.0,0.0,0.0,0.0,0.0,0.0,0.0,0.0,0.0,0.0,0.0,0.0,0.0,0.0,0.0,0.0,0.0,0.0,0.0,0.0,0.0,0.0,0.0,0.0,0.0,0.0,0.0,0.0,0.0,0.0,0.0,0.0,0.0,0.0,0.0,0.0,0.0,0.0,0.0,0.0,0.0,0.0,0.0,0.0,0.0,0.0,0.0,0.0,0.0,0.0,0.0,0.0,0.0,0.0,0.0,0.0,0.0,0.0,0.0,0.0,0.0,0.0,0.0,0.0,0.0,0.0,0.0,0.0,0.0,0.0,0.0,0.0,0.0,0.0,0.0,0.0,0.0,0.0,0.0,0.0,0.0,0.0,0.0,0.0,0.0,0.0,0.0,0.0,0.0,0.0,0.0,0.0,0.0,0.0,0.0,0.0,0.0,0.0,0.0,0.0,0.0,0.0,0.0,0.0,0.0,0.0,0.0,0.0,0.0,0.0,0.0,0.0,0.0,0.0,0.0,0.0,0.0,0.0,0.0,0.0,0.0,0.0,0.0,0.0,0.0,0.0,0.0,0.0,0.0,0.0,0.0,0.0,0.0,0.0,0.0,0.0,0.0,0.0,0.0,0.0,0.0,0.0,0.0,0.0,0.0,0.0,0.0,0.0,0.0,0.0,0.0,0.0,0.0,0.0,0.0,0.0,0.0,0.0,0.0,0.0,0.0,0.0,0.0,0.0,0.0,0.0,0.0,0.0,0.0,0.0,0.0,0.0,0.0,0.0,0.0,0.0,0.0,0.0,0.0,0.0,0.0,0.0,0.0,0.0,0.0,0.0,0.0,0.0,0.0,0.0,0.0,0.0,0.0,0.0,0.0,0.0,0.0,0.0,0.0,0.0,0.0,0.0,0.0,0.0,0.0,0.0,0.0,0.8042,0.0,0.0,0.0,0.0,0.0,0.0,0.0,0.0,0.0,0.0,0.0,0.0,0.0,0.0,0.0,0.0,0.0,0.0,0.0,0.0,0.0,0.0,0.0,0.0,0.0,0.0,0.0,0.0,0.0,0.0,0.0,0.0,0.0,0.0,0.0,0.0,0.0,0.0,0.0,0.0,0.0,0.0,0.0,0.0,0.0,0.0,0.0,0.0,0.0,0.0,0.0,0.0,0.0,0.0,0.0,0.0,0.0,0.0,0.0,0.0,0.0,0.0,0.0,0.0,0.0,0.0,0.0,0.0,0.0,0.0,0.0,0.0,0.0,0.0,0.0,0.0,0.0,0.0,0.0,0.0,0.0,0.0,0.0,0.0,0.0,0.0,0.0,0.0,0.0,0.0,0.0,0.0,0.0,0.0,0.0,0.0,0.0,0.0,0.0,0.0,0.0,0.0,0.0,0.0,0.0,0.0,0.0,0.0,0.0,0.0,0.7662,0.7604,0.7598,0.7598,0.7598,0.0,0.0,0.0,0.0,0.0,0.0,0.0,0.0,0.0,0.0,0.0,0.0,0.0,0.0,0.0,0.0,0.0,0.0,0.0,0.0,0.0,0.0,0.0,0.0,0.0,0.0,0.0,0.0,0.0,0.0,0.0,0.0,0.0,0.0,0.0,0.0,0.0,0.0,0.0,0.0,0.0,0.0,0.0,0.0,0.0,0.0,0.0,0.0,0.0,0.0,0.0,0.0,0.0,0.0,0.0,0.0,0.0,0.0,0.0,0.0,0.0,0.0,0.0,0.0,0.0,0.0,0.0,0.0,0.0,0.0,0.0,0.0,0.0,0.0,0.0,0.0,0.0,0.0,0.0,0.0,0.0,0.0,0.0,0.0,0.0,0.0,0.0,0.0,0.0,0.0,0.0,0.0,0.0,0.0,0.0,0.0,0.0,0.0,0.0,0.0,0.0,0.0,0.0,0.0,0.0,0.0,0.0,0.0,0.0,0.0,0.0,0.0,0.6948,0.7059,0.6969,0.0,0.0,0.0,0.0,0.0,0.0,0.0,0.0,0.0,0.0,0.0,0.0,0.0,0.0,0.0,0.0,0.0,0.0,0.0,0.0,0.0,0.0,0.0,0.0,0.0,0.0,0.0,0.0,0.0,0.0,0.0,0.0,0.0,0.0,0.0,0.0,0.0,0.0,0.0,0.0,0.0,0.0,0.0,0.0,0.0,0.0,0.0,0.0,0.0,0.0,0.0,0.0,0.0,0.0,0.0,0.0,0.0,0.0,0.0,0.0,0.0,0.0,0.0,0.0,0.0,0.0,0.0,0.0,0.0,0.0,0.0,0.0,0.0,0.0,0.0,0.0,0.0,0.0,0.0,0.0,0.0,0.0,0.0,0.0,0.0,0.0,0.0,0.0,0.0,0.0,0.0,0.0,0.0,0.0,0.0,0.0,0.0,0.0,0.0,0.0,0.0,0.0,0.0,0.0,0.0,0.0,0.0,0.0,0.0,0.0,0.6521,0.6521,0.6434,0.0,0.6517,0.0,0.0,0.0,0.0,0.0,0.0,0.0,0.0,0.0,0.0,0.0,0.0,0.0,0.0,0.0,0.0,0.0,0.0,0.0,0.0,0.0,0.0,0.0,0.0,0.0,0.0,0.0,0.0,0.0,0.0,0.0,0.0,0.0,0.0,0.0,0.0,0.0,0.0,0.0,0.0,0.0,0.0,0.0,0.0,0.0,0.0,0.0,0.0,0.0,0.0,0.0,0.0,0.0,0.0,0.0,0.0,0.0,0.0,0.0,0.0,0.0,0.0,0.0,0.0,0.0,0.0,0.0,0.0,0.0,0.0,0.0,0.0,0.0,0.0,0.0,0.0,0.0,0.0,0.0,0.0,0.0,0.0,0.0,0.0,0.0,0.0,0.0,0.0,0.0,0.0,0.0,0.0,0.0,0.0,0.0,0.0,0.0,0.0,0.0,0.0,0.0,0.0,0.0,0.0,0.0,0.0,0.0,0.0,0.0,0.0,0.6556,0.6255,0.6165,0.6249,0.0,0.0,0.0,0.0,0.0,0.0,0.0,0.0,0.0,0.0,0.0,0.0,0.0,0.0,0.0,0.0,0.0,0.0,0.0,0.0,0.0,0.0,0.0,0.0,0.0,0.0,0.0,0.0,0.0,0.0,0.0,0.0,0.0,0.0,0.0,0.0,0.0,0.0,0.0,0.0,0.0,0.0,0.0,0.0,0.0,0.0,0.0,0.0,0.0,0.0,0.0,0.0,0.0,0.0,0.0,0.0,0.0,0.0,0.0,0.0,0.0,0.0,0.0,0.0,0.0,0.0,0.0,0.0,0.0,0.0,0.0,0.0,0.0,0.0,0.0,0.0,0.0,0.0,0.0,0.0,0.0,0.0,0.0,0.0,0.0,0.0,0.0,0.0,0.0,0.0,0.0,0.0,0.0,0.0,0.0,0.0,0.0,0.0,0.0,0.0,0.0,0.0,0.0,0.0,0.0,0.0,0.0,0.0,0.0,0.0,0.6337,0.6145,0.5782,0.5741,0.5712,0.5806,0.0,0.0,0.0,0.0,0.0,0.0,0.0,0.0,0.0,0.0,0.0,0.0,0.0,0.0,0.0,0.0,0.0,0.0,0.0,0.0,0.0,0.0,0.0,0.0,0.0,0.0,0.0,0.0,0.0,0.0,0.0,0.0,0.0,0.0,0.0,0.0,0.0,0.0,0.0,0.0,0.0,0.0,0.0,0.0,0.0,0.0,0.0,0.0,0.0,0.0,0.0,0.0,0.0,0.0,0.0,0.0,0.0,0.0,0.0,0.0,0.0,0.0,0.0,0.0,0.0,0.0,0.0,0.0,0.0,0.0,0.0,0.0,0.0,0.0,0.0,0.0,0.0,0.0,0.0,0.0,0.0,0.0,0.0,0.0,0.0,0.0,0.0,0.0,0.0,0.0,0.0,0.0,0.0,0.0,0.0,0.0,0.0,0.0,0.0,0.0,0.0,0.0,0.0,0.0,0.0,0.0,0.0,0.0,0.5141,0.508,0.4971,0.4955,0.4889,0.4892,0.0,0.0,0.0,0.0,0.0,0.0,0.0,0.0,0.0,0.0,0.0,0.0,0.0,0.0,0.0,0.0,0.0,0.0,0.0,0.0,0.0,0.0,0.0,0.0,0.0,0.0,0.0,0.0,0.0,0.0,0.0,0.0,0.0,0.0,0.0,0.0,0.0,0.0,0.0,0.0,0.0,0.0,0.0,0.0,0.0,0.0,0.0,0.0,0.0,0.0,0.0,0.0,0.0,0.0,0.0,0.0,0.0,0.0,0.0,0.0,0.0,0.0,0.0,0.0,0.0,0.0,0.0,0.0,0.0,0.0,0.0,0.0,0.0,0.0,0.0,0.0,0.0,0.0,0.0,0.0,0.0,0.0,0.0,0.0,0.0,0.0,0.0,0.0,0.0,0.0,0.0,0.0,0.0,0.0,0.0,0.0,0.0,0.0,0.0,0.0,0.0,0.0,0.0,0.0,0.0,0.0,0.0,0.0,0.0,0.5294,0.4832,0.4753,0.5039,0.5015,0.4967,0.0,0.0,0.0,0.0,0.0,0.0,0.0,0.0,0.0,0.0,0.0,0.0,0.0,0.0,0.0,0.0,0.0,0.0,0.0,0.0,0.0,0.0,0.0,0.0,0.0,0.0,0.0,0.0,0.0,0.0,0.0,0.0,0.0,0.0,0.0,0.0,0.0,0.0,0.0,0.0,0.0,0.0,0.0,0.0,0.0,0.0,0.0,0.0,0.0,0.0,0.0,0.0,0.0,0.0,0.0,0.0,0.0,0.0,0.0,0.0,0.0,0.0,0.0,0.0,0.0,0.0,0.0,0.0,0.0,0.0,0.0,0.0,0.0,0.0,0.0,0.0,0.0,0.0,0.0,0.0,0.0,0.0,0.0,0.0,0.0,0.0,0.0,0.0,0.0,0.0,0.0,0.0,0.0,0.0,0.0,0.0,0.0,0.0,0.0,0.0,0.0,0.0,0.0,0.0,0.0,0.0,0.0,0.0,0.0,0.4705,0.0,0.4185,0.0,0.4446,0.438,0.0,0.0,0.0,0.0,0.0,0.0,0.0,0.0,0.0,0.0,0.0,0.0,0.0,0.0,0.0,0.0,0.0,0.0,0.0,0.0,0.0,0.0,0.0,0.0,0.0,0.0,0.0,0.0,0.0,0.0,0.0,0.0,0.0,0.0,0.0,0.0,0.0,0.0,0.0,0.0,0.0,0.0,0.0,0.0,0.0,0.0,0.0,0.0,0.0,0.0,0.0,0.0,0.0,0.0,0.0,0.0,0.0,0.0,0.0,0.0,0.0,0.0,0.0,0.0,0.0,0.0,0.0,0.0,0.0,0.0,0.0,0.0,0.0,0.0,0.0,0.0,0.0,0.0,0.0,0.0,0.0,0.0,0.0,0.0,0.0,0.0,0.0,0.0,0.0,0.0,0.0,0.0,0.0,0.0,0.0,0.0,0.0,0.0,0.0,0.0,0.0,0.0,0.0,0.0,0.0,0.0,0.0,0.0,0.3631,0.3226,0.345,0.3402,0.3097,0.3179,0.3132,0.0,0.0,0.0,0.0,0.0,0.0,0.0,0.0,0.0,0.0,0.0,0.0,0.0,0.0,0.0,0.0,0.0,0.0,0.0,0.0,0.0,0.0,0.0,0.0,0.0,0.0,0.0,0.0,0.0,0.0,0.0,0.0,0.0,0.0,0.0,0.0,0.0,0.0,0.0,0.0,0.0,0.0,0.0,0.0,0.0,0.0,0.0,0.0,0.0,0.0,0.0,0.0,0.0,0.0,0.0,0.0,0.0,0.0,0.0,0.0,0.0,0.0,0.0,0.0,0.0,0.0,0.0,0.0,0.0,0.0,0.0,0.0,0.0,0.0,0.0,0.0,0.0,0.0,0.0,0.0,0.0,0.0,0.0,0.0,0.0,0.0,0.0,0.0,0.0,0.0,0.0,0.0,0.0,0.0,0.0,0.0,0.0,0.0,0.0,0.0,0.0,0.0,0.0,0.0,0.0,0.0,0.0,0.0,0.0,0.345,0.3273,0.3226,0.3052,0.3164,0.3007,0.0,0.0,0.0,0.0,0.0,0.0,0.0,0.0,0.0,0.0,0.0,0.0,0.0,0.0,0.0,0.0,0.0,0.0,0.0,0.0,0.0,0.0,0.0,0.0,0.0,0.0,0.0,0.0,0.0,0.0,0.0,0.0,0.0,0.0,0.0,0.0,0.0,0.0,0.0,0.0,0.0,0.0,0.0,0.0,0.0,0.0,0.0,0.0,0.0,0.0,0.0,0.0,0.0,0.0,0.0,0.0,0.0,0.0,0.0,0.0,0.0,0.0,0.0,0.0,0.0,0.0,0.0,0.0,0.0,0.0,0.0,0.0,0.0,0.0,0.0,0.0,0.0,0.0,0.0,0.0,0.0,0.0,0.0,0.0,0.0,0.0,0.0,0.0,0.0,0.0,0.0,0.0,0.0,0.0,0.0,0.0,0.0,0.0,0.0,0.0,0.0,0.0,0.0,0.0,0.0,0.0,0.0,0.0,0.0,0.2042,0.1771,0.1629,0.1861,0.1861,0.1729,0.159,0.0,0.0,0.0,0.0,0.0,0.0,0.0,0.0,0.0,0.0,0.0,0.0,0.0,0.0,0.0,0.0,0.0,0.0,0.0,0.0,0.0,0.0,0.0,0.0,0.0,0.0,0.0,0.0,0.0,0.0,0.0,0.0,0.0,0.0,0.0,0.0,0.0,0.0,0.0,0.0,0.0,0.0,0.0,0.0,0.0,0.0,0.0,0.0,0.0,0.0,0.0,0.0,0.0,0.0,0.0,0.0,0.0,0.0,0.0,0.0,0.0,0.0,0.0,0.0,0.0,0.0,0.0,0.0,0.0,0.0,0.0,0.0,0.0,0.0,0.0,0.0,0.0,0.0,0.0,0.0,0.0,0.0,0.0,0.0,0.0,0.0,0.0,0.0,0.0,0.0,0.0,0.0,0.0,0.0,0.0,0.0,0.0,0.0,0.0,0.0,0.0,0.0,0.0,0.0,0.0,0.0,0.0,0.0,-0.0722,-0.0962,-0.0962,-0.0602,-0.0721,-0.0842,0.0,0.0,0.0,0.0,0.0,0.0,0.0,0.0,0.0,0.0,0.0,0.0,0.0,0.0,0.0,0.0,0.0,0.0,0.0,0.0,0.0,0.0,0.0,0.0,0.0,0.0,0.0,0.0,0.0,0.0,0.0,0.0,0.0,0.0,0.0,0.0,0.0,0.0,0.0,0.0,0.0,0.0,0.0,0.0,0.0,0.0,0.0,0.0,0.0,0.0,0.0,0.0,0.0,0.0,0.0,0.0,0.0,0.0,0.0,0.0,0.0,0.0,0.0,0.0,0.0,0.0,0.0,0.0,0.0,0.0,0.0,0.0,0.0,0.0,0.0,0.0,0.0,0.0,0.0,0.0,0.0,0.0,0.0,0.0,0.0,0.0,0.0,0.0,0.0,0.0,0.0,0.0,0.0,0.0,0.0,0.0,0.0,0.0,0.0,0.0,0.0,0.0,0.0,0.0,0.0,0.0,0.0,0.0,0.0,-0.2795,-0.3449,-0.3928,-0.4021,-0.4145,-0.4047,0.0,0.0,0.0,0.0,0.0,0.0,0.0,0.0,0.0,0.0,0.0,0.0,0.0,0.0,0.0,0.0,0.0,0.0,0.0,0.0,0.0,0.0,0.0,0.0,0.0,0.0,0.0,0.0,0.0,0.0,0.0,0.0,0.0,0.0,0.0,0.0,0.0,0.0,0.0,0.0,0.0,0.0,0.0,0.0,0.0,0.0,0.0,0.0,0.0,0.0,0.0,0.0,0.0,0.0,0.0,0.0,0.0,0.0,0.0,0.0,0.0,0.0,0.0,0.0,0.0,0.0,0.0,0.0,0.0,0.0,0.0,0.0,0.0,0.0,0.0,0.0,0.0,0.0,0.0,0.0,0.0,0.0,0.0,0.0,0.0,0.0,0.0,0.0,0.0,0.0,0.0,0.0,0.0,0.0,0.0,0.0,0.0,0.0,0.0,0.0,0.0,0.0,0.0,0.0,0.0,0.0,0.0,0.0,-0.3262,-0.3754,-0.4946,-0.6111,-0.6965,-0.6276,-0.5856,0.0,0.0,0.0,0.0,0.0,0.0,0.0,0.0,0.0,0.0,0.0,0.0,0.0,0.0,0.0,0.0,0.0,0.0,0.0,0.0,0.0,0.0,0.0,0.0,0.0,0.0,0.0,0.0,0.0,0.0,0.0,0.0,0.0,0.0,0.0,0.0,0.0,0.0,0.0,0.0,0.0,0.0,0.0,0.0,0.0,0.0,0.0,0.0,0.0,0.0,0.0,0.0,0.0,0.0,0.0,0.0,0.0,0.0,0.0,0.0,0.0,0.0,0.0,0.0,0.0,0.0,0.0,0.0,0.0,0.0,0.0,0.0,0.0,0.0,0.0,0.0,0.0,0.0,0.0,0.0,0.0,0.0,0.0,0.0,0.0,0.0,0.0,0.0,0.0,0.0,0.0,0.0,0.0,0.0,0.0,0.0,0.0,0.0,0.0,0.0,0.0,0.0,0.0,0.0,0.0,0.0,0.0,0.0,-0.3934,-0.4379,-0.6158,-0.7997,-0.9589,-0.776,-0.7127,0.0,0.0,0.0,0.0,0.0,0.0,0.0,0.0,0.0,0.0,0.0,0.0,0.0,0.0,0.0,0.0,0.0,0.0,0.0,0.0,0.0,0.0,0.0,0.0,0.0,0.0,0.0,0.0,0.0,0.0,0.0,0.0,0.0,0.0,0.0,0.0,0.0,0.0,0.0,0.0,0.0,0.0,0.0,0.0,0.0,0.0,0.0,0.0,0.0,0.0,0.0,0.0,0.0,0.0,0.0,0.0,0.0,0.0,0.0,0.0,0.0,0.0,0.0,0.0,0.0,0.0,0.0,0.0,0.0,0.0,0.0,0.0,0.0,0.0,0.0,0.0,0.0,0.0,0.0,0.0,0.0,0.0,0.0,0.0,0.0,0.0,0.0,0.0,0.0,0.0,0.0,0.0,0.0,0.0,0.0,0.0,0.0,0.0,0.0,0.0,0.0,0.0,0.0,0.0,0.0,0.0,0.0,0.0,-0.5283,-0.6379,-0.8495,-1.0615,-1.2588,-1.0516,-0.9637,0.0,0.0,0.0,0.0,0.0,0.0,0.0,0.0,0.0,0.0,0.0,0.0,0.0,0.0,0.0,0.0,0.0,0.0,0.0,0.0,0.0,0.0,0.0,0.0,0.0,0.0,0.0,0.0,0.0,0.0,0.0,0.0,0.0,0.0,0.0,0.0,0.0,0.0,0.0,0.0,0.0,0.0,0.0,0.0,0.0,0.0,0.0,0.0,0.0628,0.0,0.0,0.0,0.0,0.0,0.0,0.0,0.0,0.0,0.0,0.0,0.0,0.0,0.0,0.0,0.0,0.0,0.0,0.0,0.0,0.0,0.0,0.0,0.0,0.0,0.0,0.0,0.0,0.0,0.0,0.0,0.0,0.0,0.0,0.0,0.0,0.0,0.0,0.0,0.0,0.0,0.0,0.0,0.0,0.0,0.0,0.0,0.0,0.0,0.0,0.0,0.0,0.0,0.0,0.0,0.0,0.0,0.0,0.0,-0.6694,-0.8106,-1.065,-1.2937,-1.4945,-1.451,-1.3669,0.0,0.0,0.0,0.0,0.0,0.0,0.0,0.0,0.0,0.0,0.0,0.0,0.0,0.0,0.0,0.0,0.0,0.0,0.0,0.0,0.0,0.0,0.0,0.0,0.0,0.0,0.0,0.0,0.0,0.0,0.0,0.0,0.0,0.0,0.0,0.0,0.0,0.0,0.0,0.0,0.0,0.0,0.0,0.0,0.0,0.0,0.0,0.0,0.0,0.0,0.0,0.0,0.0,0.0,0.0,0.0,0.0,0.0,0.0,0.0,0.0,0.0,0.0,0.0,0.0,0.0,0.0,0.0,0.0,0.0,0.0,0.0,0.0,0.0,0.0,0.0,0.0,0.0,0.0,0.0,0.0,0.0,0.0,0.0,0.0,0.0,0.0,0.0,0.0,0.0,0.0,0.0,0.0,0.0,0.0,0.0,0.0,0.0,0.0,0.0,0.0,0.0,0.0,0.0,0.0,0.0,0.0,-0.6776,-0.8357,-0.9829,-1.2795,-1.5367,-1.7146,-1.8565,-1.8086,-1.5693,0.0,0.0,0.0,0.0,0.0,0.0,0.0,0.0,0.0,0.0,0.0,0.0,0.0,0.0,0.0,0.0,0.0,0.0,0.0,0.0,0.0,0.0,0.0,0.0,0.0,0.0,0.0,0.0,0.0,0.0,0.0,0.0,0.0,0.0,0.0,0.0,0.0,0.0,0.0473,0.0157,0.0,0.0,0.0,0.0,0.0,0.0,0.0,0.0,-0.4547,0.0,0.0,0.0,0.0,0.0,0.0,0.0,0.0,0.0,0.0,0.0,0.0,0.0,0.0,0.0,0.0,0.0,0.0,0.0,0.0,0.0,0.0,0.0,0.0,0.0,0.0,0.0,0.0,0.0,0.0,0.0,0.0,0.0,0.0,0.0,0.0,0.0,0.0,0.0,0.0,0.0,0.0,0.0,0.0,0.0,0.0,0.0,0.0,0.0,0.0,0.0,0.0,0.0,0.0,0.0,0.0,-0.6725,-0.8817,-1.0539,-1.217,-1.5484,-1.8058,-1.9644,-2.1112,-2.1077,-1.936,0.0,0.0,0.0,0.0,0.0,0.0,0.0,0.0,0.0,0.0,0.0,0.0,0.0,0.0,0.0,0.0,0.0,0.0,0.0,0.0,0.0,0.0,0.0,0.0,0.0,0.0,0.0,0.0,0.0,0.0,0.0,0.0,0.0,0.0,0.0,0.0,0.0,0.0,0.0,-0.0316,-0.0783,0.0,0.0,0.0,0.0,0.0,0.0,0.0,0.0,-0.4981,0.0,0.0,0.0,0.0,0.0,0.0,0.0,0.0,0.0,0.0,0.0,0.0,0.0,0.0,0.0,0.0,0.0,0.0,0.0,0.0,0.0,0.0,0.0,0.0,0.0,0.0,0.0,0.0,0.0,0.0,0.0,0.0,0.0,0.0,0.0,0.0,0.0,0.0,0.0,0.0,0.0,0.0,0.0,0.0,0.0,0.0,0.0,0.0,0.0,0.0,0.0,0.0,0.0,0.0,0.0,-0.8584,-1.0779,-1.2833,-1.476,-1.7856,-2.0359,-2.222,-2.3183,-2.3103,0.0,0.0,0.0,0.0,0.0,0.0,0.0,0.0,0.0,0.0,0.0,0.0,0.0,0.0,0.0,0.0,0.0,0.0,0.0,0.0,0.0,0.0,0.0,0.0,0.0,0.0,0.0,0.0,0.0,0.0,0.0,0.0,0.0,0.0,0.0,0.0,0.0,0.0,0.0,0.0,-0.2834,-0.3104,-0.4629,0.0,0.0,0.0,0.0,0.0,0.0,-0.7548,-0.6814,0.0,0.0,0.0,0.0,0.0,0.0,0.0,0.0,0.0,0.0,0.0,0.0,0.0,0.0,0.0,0.0,0.0,0.0,0.0,0.0,0.0,0.0,0.0,0.0,0.0,0.0,0.0,0.0,0.0,0.0,0.0,0.0,0.0,0.0,0.0,0.0,0.0,0.0,0.0,0.0,0.0,0.0,0.0,0.0,0.0,0.0,0.0,0.0,0.0,0.0,0.0,0.0,0.0,0.0,0.0,-1.0624,-1.2777,-1.5008,-1.72,-2.0005,-2.253,-2.4488,-2.5069,-2.4718,0.0,0.0,0.0,0.0,0.0,0.0,0.0,0.0,0.0,0.0,0.0,0.0,0.0,0.0,0.0,0.0,0.0,0.0,0.0,0.0,0.0,0.0,0.0,0.0,0.0,0.0,0.0,0.0,0.0,0.0,0.0,0.0,0.0,0.0,0.0,0.0,0.0,0.0,0.0,0.0,0.0,-0.508,-0.5663,-0.5013,0.0,0.0,0.0,0.0,-1.0595,-0.9618,0.0,0.0,0.0,0.0,0.0,0.0,0.0,0.0,0.0,0.0,0.0,0.0,0.0,0.0,0.0,0.0,0.0,0.0,0.0,0.0,0.0,0.0,0.0,0.0,0.0,0.0,0.0,0.0,0.0,0.0,0.0,0.0,0.0,0.0,0.0,0.0,0.0,0.0,0.0,0.0,0.0,0.0,0.0,0.0,0.0,0.0,0.0,0.0,0.0,0.0,0.0,0.0,0.0,0.0,0.0,0.0,-1.2803,-1.5102,-1.7163,-1.9077,-2.2243,-2.4344,-2.5406,-2.6313,-2.6109,0.0,0.0,0.0,0.0,0.0,0.0,0.0,0.0,0.0,0.0,0.0,0.0,0.0,0.0,0.0,0.0,0.0,0.0,0.0,0.0,0.0,0.0,0.0,0.0,0.0,0.0,0.0,0.0,0.0,0.0,0.0,0.0,0.0,0.0,0.0,0.0,0.0,0.0,0.0,0.0,0.0,-0.5196,-0.5836,-0.6309,-0.6488,0.0,0.0,0.0,-1.1476,-1.1428,0.0,0.0,0.0,0.0,0.0,0.0,0.0,0.0,0.0,0.0,0.0,0.0,0.0,0.0,0.0,0.0,0.0,0.0,0.0,0.0,0.0,0.0,0.0,0.0,0.0,0.0,0.0,0.0,0.0,0.0,0.0,0.0,0.0,0.0,0.0,0.0,0.0,0.0,0.0,0.0,0.0,0.0,0.0,0.0,0.0,0.0,0.0,0.0,0.0,0.0,0.0,0.0,0.0,0.0,0.0,-1.2785,-1.5087,-1.7134,-1.9553,-2.1957,-2.4278,-2.6163,-2.7863,-2.7958,-2.751,0.0,0.0,0.0,0.0,0.0,0.0,0.0,0.0,0.0,0.0,0.0,0.0,0.0,0.0,0.0,0.0,0.0,0.0,0.0,0.0,0.0,0.0,0.0,0.0,0.0,0.0,0.0,0.0,0.0,0.0,0.0,0.0,0.0,0.0,0.0,0.0,0.0,0.0,0.0,0.0,0.0,0.0,-0.7519,-0.8431,0.0,0.0,0.0,-1.3589,-1.4358,0.0,0.0,0.0,0.0,0.0,0.0,0.0,0.0,0.0,0.0,0.0,0.0,0.0,0.0,0.0,0.0,0.0,0.0,0.0,0.0,0.0,0.0,0.0,0.0,0.0,0.0,0.0,0.0,0.0,0.0,0.0,0.0,0.0,0.0,0.0,0.0,0.0,0.0,0.0,0.0,0.0,0.0,0.0,0.0,0.0,0.0,0.0,0.0,0.0,0.0,0.0,0.0,0.0,0.0,0.0,0.0,0.0,-1.6738,-1.9327,-2.1789,-2.422,-2.6092,-2.7977,-2.9662,-2.9443,0.0,0.0,0.0,0.0,0.0,0.0,0.0,0.0,0.0,0.0,0.0,0.0,0.0,0.0,0.0,0.0,0.0,0.0,0.0,0.0,0.0,0.0,0.0,0.0,0.0,0.0,0.0,-0.7208,0.0,0.0,0.0,0.0,0.0,0.0,0.0,0.0,0.0,0.0,0.0,0.0,0.0,0.0,-0.9051,-0.9471,-1.0196,-1.0457,0.0,0.0,-1.5328,-1.7502,-1.6321,-1.5228,0.0,0.0,0.0,0.0,0.0,0.0,0.0,0.0,0.0,0.0,0.0,0.0,0.0,0.0,0.0,0.0,0.0,0.0,0.0,0.0,0.0,0.0,0.0,0.0,0.0,0.0,0.0,0.0,0.0,0.0,0.0,0.0,0.0,0.0,0.0,0.0,0.0,0.0,0.0,0.0,0.0,0.0,0.0,0.0,0.0,0.0,0.0,0.0,0.0,0.0,0.0,0.0,0.0,0.0,0.0,-1.7599,-2.1613,-2.4182,-2.4978,-2.7844,-2.9531,-2.9996,-3.0638,-3.0094,0.0,0.0,0.0,0.0,0.0,0.0,0.0,0.0,0.0,0.0,0.0,0.0,0.0,0.0,0.0,0.0,0.0,0.0,0.0,0.0,0.0,0.0,0.0,0.0,0.0,0.0,0.0,0.0,0.0,0.0,0.0,0.0,0.0,0.0,0.0,0.0,0.0,0.0,0.0,0.0,0.0,-1.0925,-1.1256,-1.1361,-1.1484,0.0,0.0,-1.6388,-2.0386,-1.9073,-1.7723,-1.8365,0.0,0.0,0.0,0.0,0.0,0.0,0.0,0.0,0.0,0.0,0.0,0.0,0.0,0.0,0.0,0.0,0.0,0.0,0.0,0.0,0.0,0.0,0.0,0.0,0.0,0.0,0.0,0.0,0.0,0.0,0.0,0.0,0.0,0.0,0.0,0.0,0.0,0.0,0.0,0.0,0.0,0.0,0.0,0.0,0.0,0.0,0.0,0.0,0.0,0.0,0.0,0.0,0.0,-1.9107,-2.0963,-2.363,-2.5827,-2.7658,-2.9489,-3.0928,-3.1782,-3.2109,-3.1663,0.0,0.0,0.0,0.0,0.0,0.0,0.0,0.0,0.0,0.0,0.0,0.0,0.0,0.0,0.0,0.0,0.0,0.0,0.0,0.0,0.0,0.0,0.0,0.0,0.0,0.0,0.0,0.0,-0.805,-0.841,-0.88,0.0,0.0,0.0,0.0,0.0,0.0,0.0,0.0,0.0,0.0,-1.2935,-1.3268,-1.3354,0.0,0.0,-1.6466,-1.9254,-2.153,-2.0772,-2.0059,-2.0405,-1.9444,0.0,0.0,0.0,0.0,0.0,0.0,0.0,0.0,0.0,0.0,0.0,0.0,0.0,0.0,0.0,0.0,0.0,0.0,0.0,0.0,0.0,0.0,0.0,0.0,0.0,0.0,0.0,0.0,0.0,0.0,0.0,0.0,0.0,0.0,0.0,0.0,0.0,0.0,0.0,0.0,0.0,0.0,0.0,0.0,0.0,0.0,0.0,0.0,0.0,0.0,0.0,0.0,-2.1441,-2.4118,-2.5746,-2.7894,-3.0411,-3.1211,-3.2076,-3.3105,-3.3173,-3.2914,0.0,0.0,0.0,0.0,0.0,0.0,0.0,0.0,0.0,0.0,0.0,0.0,0.0,0.0,0.0,0.0,0.0,0.0,0.0,0.0,0.0,0.0,0.0,0.0,0.0,0.0,0.0,0.0,-0.8698,-0.9211,-1.0292,0.0,0.0,0.0,0.0,0.0,0.0,0.0,0.0,0.0,0.0,-1.4675,-1.5255,-1.5506,-1.5844,-1.6512,-1.9662,-2.2397,-2.3303,-2.252,-2.1828,-2.2088,0.0,0.0,0.0,0.0,0.0,0.0,0.0,0.0,0.0,0.0,0.0,0.0,0.0,0.0,0.0,0.0,0.0,0.0,0.0,0.0,0.0,0.0,0.0,0.0,0.0,0.0,0.0,0.0,0.0,0.0,0.0,0.0,0.0,0.0,0.0,0.0,0.0,0.0,0.0,0.0,0.0,0.0,0.0,0.0,0.0,0.0,0.0,0.0,0.0,0.0,0.0,0.0,0.0,0.0,-2.6533,-2.8114,-3.0288,-3.2993,-3.3075,-3.3195,-3.3575,-3.3595,-3.3316,-3.2715,0.0,0.0,0.0,0.0,0.0,0.0,0.0,0.0,0.0,0.0,0.0,0.0,0.0,0.0,0.0,0.0,0.0,0.0,0.0,0.0,0.0,0.0,0.0,0.0,0.0,0.0,-0.9873,-0.9529,-0.9843,0.0,0.0,0.0,0.0,0.0,0.0,0.0,0.0,0.0,0.0,-1.5591,-1.6427,-1.7426,-1.7731,-1.8422,-1.9658,-2.2888,-2.5583,-2.6454,-2.4303,-2.273,0.0,0.0,0.0,0.0,0.0,0.0,0.0,0.0,0.0,0.0,0.0,0.0,0.0,0.0,0.0,0.0,0.0,0.0,0.0,0.0,0.0,0.0,0.0,0.0,0.0,0.0,0.0,0.0,-0.7512,0.0,0.0,0.0,0.0,0.0,0.0,0.0,0.0,0.0,0.0,0.0,-2.0214,-2.0169,0.0,0.0,0.0,0.0,0.0,0.0,0.0,0.0,0.0,0.0,0.0,0.0,-2.5046,-2.7327,-2.9151,-3.0936,-3.2387,-3.295,-3.3436,-3.368,-3.3853,-3.2942,-3.0865,0.0,0.0,0.0,0.0,0.0,0.0,0.0,0.0,0.0,0.0,0.0,0.0,0.0,0.0,0.0,0.0,0.0,0.0,0.0,0.0,0.0,0.0,0.0,0.0,0.0,-1.1798,0.0,0.0,0.0,0.0,0.0,0.0,0.0,0.0,0.0,0.0,0.0,-1.5971,-1.6732,-1.7826,-1.8653,-1.9335,-1.9716,-2.0269,0.0,0.0,0.0,0.0,0.0,0.0,0.0,0.0,0.0,0.0,0.0,0.0,0.0,0.0,-2.0833,-1.9879,-1.9626,-1.9626,-1.9626,0.0,0.0,0.0,0.0,0.0,0.0,0.0,0.0,0.0,0.0,0.0,0.0,0.0,0.0,0.0,0.0,-1.209,0.0,0.0,0.0,0.0,0.0,0.0,0.0,0.0,-1.5979,-1.8721,-2.2004,-2.2001,-2.0935,0.0,-1.9316,-1.8628,0.0,0.0,0.0,0.0,0.0,0.0,0.0,0.0,-2.5818,-2.7855,-2.9368,-3.0835,-3.1961,-3.2603,-3.2988,-3.3257,-3.3289,-3.2227,-3.0127,-2.8474,-2.674,0.0,0.0,0.0,0.0,0.0,0.0,0.0,0.0,0.0,0.0,0.0,0.0,0.0,0.0,0.0,0.0,0.0,0.0,0.0,0.0,0.0,0.0,0.0,-1.2583,0.0,0.0,0.0,0.0,0.0,0.0,0.0,0.0,0.0,-1.6478,-1.6968,-1.7485,-1.8338,-1.9471,-2.0318,-2.0858,0.0,0.0,0.0,0.0,0.0,0.0,0.0,-2.5973,-2.5701,-2.5406,-2.5086,-2.4474,-2.3949,-2.3614,-2.3571,0.0,0.0,-2.1527,-2.1345,-2.1374,-2.1306,-2.151,-2.1704,-2.1704,-2.1985,-2.2387,0.0,0.0,0.0,0.0,0.0,0.0,0.0,0.0,-1.5569,-1.5479,0.0,-1.5034,0.0,0.0,0.0,0.0,0.0,0.0,0.0,0.0,-1.8185,-2.0459,-2.2032,-2.2034,-2.1484,-2.0768,-2.0641,-2.0785,-2.1032,-2.0259,0.0,0.0,0.0,0.0,0.0,0.0,-2.6166,-2.8185,-2.9008,-3.0099,-3.1744,-3.1891,-3.2038,-3.2332,-3.2041,-3.1439,-3.0415,-2.8975,-2.7716,-2.61,-2.3762,0.0,0.0,0.0,0.0,0.0,0.0,0.0,0.0,0.0,0.0,0.0,0.0,0.0,0.0,0.0,0.0,0.0,0.0,0.0,0.0,-1.2924,0.0,0.0,0.0,0.0,0.0,0.0,0.0,0.0,0.0,0.0,-1.8365,-1.8192,-1.866,-1.9913,0.0,0.0,0.0,0.0,-2.1184,-2.2506,-2.5194,-2.6918,-2.7058,-2.633,-2.6021,-2.6114,0.0,0.0,-2.4874,-2.4677,-2.4316,-2.3944,-2.3795,-2.3475,-2.278,-2.2778,-2.2859,-2.2677,-2.2677,-2.2677,-2.2687,-2.2743,-2.3061,-2.1994,0.0,0.0,0.0,0.0,-1.8892,-1.8389,-1.8495,-1.7799,-1.7481,-1.7457,-1.697,0.0,0.0,0.0,0.0,0.0,0.0,-1.6941,-1.8057,-2.0765,-2.2061,-2.2048,-2.2032,-2.2139,-2.2244,-2.2257,-2.2669,-2.3078,-2.2655,-2.247,-2.2241,0.0,0.0,0.0,0.0,-2.6663,-2.8202,-2.912,-3.023,-3.152,-3.152,-3.1661,-3.1702,-3.0874,-2.9967,-2.8897,-2.8057,-2.68,-2.5037,-2.3842,0.0,0.0,0.0,0.0,0.0,0.0,0.0,0.0,0.0,0.0,0.0,0.0,0.0,0.0,0.0,0.0,0.0,0.0,0.0,-1.3976,-1.444,-1.4819,0.0,0.0,0.0,0.0,0.0,0.0,0.0,0.0,0.0,-2.0837,-2.0493,-2.0433,0.0,0.0,-2.2383,-2.2962,-2.2789,-2.2915,-2.3917,0.0,0.0,0.0,-2.7003,-2.6713,-2.681,-2.6342,-2.5889,-2.564,-2.5105,-2.4718,-2.4536,-2.3772,-2.3118,-2.2831,-2.318,-2.3489,-2.3458,-2.331,-2.3334,-2.3354,-2.3516,-2.3658,-2.3515,-2.2632,-2.1406,-2.1138,-2.1526,-2.0433,-2.0132,-2.0322,-1.9494,-1.9159,-1.8998,-1.8557,-1.8386,-1.8471,-1.7649,0.0,0.0,0.0,-1.8877,-1.9944,-2.21,-2.2995,-2.2849,-2.2879,-2.2992,-2.3028,-2.3159,-2.3459,-2.4037,-2.3969,-2.388,-2.3708,0.0,0.0,-2.5388,-2.6098,-2.7062,-2.8262,-2.8874,-2.9693,-3.0472,-3.0624,-3.058,-3.06,-2.963,-2.8815,-2.8079,-2.7289,-2.6194,-2.4682,-2.3966,-2.2916,0.0,0.0,0.0,0.0,0.0,0.0,0.0,0.0,0.0,0.0,0.0,-1.379,0.0,0.0,0.0,0.0,-1.4172,-1.4465,-1.4868,-1.5411,0.0,0.0,0.0,0.0,0.0,0.0,0.0,-2.0005,-2.0599,-2.1304,-2.221,-2.2033,-2.1938,-2.2542,-2.2966,-2.3457,-2.384,0.0,-2.4463,-2.5308,-2.6025,-2.6565,-2.6878,-2.6854,-2.6624,-2.6636,-2.6229,-2.5716,-2.5162,-2.4729,-2.4086,-2.373,-2.2912,-2.2221,-2.2083,-2.2241,-2.2556,-2.2663,-2.2656,-2.2645,-2.2845,-2.3284,-2.3495,-2.4421,-2.3961,-2.2798,-2.2436,-2.2436,-2.1633,-2.1385,-2.1264,-2.0981,-2.0618,-2.0186,-2.0002,-1.9445,-1.8838,-1.917,0.0,0.0,-1.9632,-2.0107,-2.1273,-2.2548,-2.3413,-2.4104,-2.4134,-2.3752,-2.3201,-2.3608,-2.3911,-2.4242,-2.4538,-2.4993,-2.5535,-2.5383,-2.5768,-2.6594,-2.6744,-2.717,-2.83,-2.83,-2.863,-2.9297,-2.9313,-2.9313,-2.9363,-2.8574,-2.7849,-2.7447,-2.6873,-2.5871,-2.4886,-2.3885,-2.292,-2.2205,0.0,0.0,0.0,0.0,0.0,0.0,0.0,0.0,0.0,0.0,0.0,0.0,0.0,0.0,0.0,-1.4784,0.0,-1.5798,-1.5993,0.0,0.0,0.0,-1.7988,-1.8671,-1.9214,-2.0079,-2.1055,0.0,0.0,0.0,0.0,-2.2706,-2.3155,-2.3742,-2.4163,-2.4408,-2.5014,-2.585,-2.6229,-2.5924,-2.5753,-2.5994,-2.5754,-2.5649,-2.5615,-2.5491,-2.4774,-2.4043,-2.3525,-2.28,-2.2063,-2.1325,-2.0964,-2.0964,-2.0759,-2.0467,-2.0853,-2.1048,-2.1253,-2.1702,-2.2189,-2.247,-2.4299,-2.4348,-2.3653,-2.3127,-2.2879,-2.2792,-2.2515,-2.2267,-2.2448,-2.2228,-2.1603,-2.1051,-2.0301,-1.9524,-2.0086,-2.0526,-2.0835,-2.0724,-2.1082,-2.195,-2.2702,-2.3466,-2.4044,-2.4104,-2.4149,-2.4291,-2.432,-2.4611,-2.5164,-2.5549,-2.5893,-2.6319,-2.6309,-2.6418,-2.6632,-2.6632,-2.7077,-2.7846,-2.7846,-2.8284,-2.9154,-2.9028,-2.9012,-2.9136,-2.7906,-2.7079,-2.6795,-2.5993,-2.513,-2.4072,-2.3789,-2.2924,-2.1628,-2.1007,0.0,0.0,0.0,0.0,0.0,0.0,0.0,0.0,0.0,-1.4172,-1.4294,0.0,-1.4901,0.0,-1.5069,-1.5738,-1.6482,-1.6599,0.0,0.0,-1.7657,-1.805,-1.8417,-1.895,-1.9588,-2.0249,-2.0685,-2.1119,-2.1906,-2.1936,-2.2008,-2.2286,-2.2892,-2.339,-2.3629,-2.4767,-2.5454,-2.5128,-2.5275,-2.5445,-2.4855,-2.4052,-2.3373,-2.3185,-2.2758,-2.2374,-2.2191,-2.1771,-2.151,-2.1325,-2.0594,-2.0037,-2.0046,-1.927,-1.8436,-1.8609,-1.9751,-2.0718,-2.0918,-2.1099,-2.1262,-2.4301,-2.4115,-2.3893,-2.3577,-2.3073,-2.3199,-2.3126,-2.262,-2.2932,-2.2708,-2.2076,-2.1393,-2.0704,-2.0047,-2.0333,-2.0637,-2.0909,-2.1397,-2.1747,-2.2131,-2.2777,-2.3345,-2.365,-2.4232,-2.4501,-2.4289,-2.4303,-2.4491,-2.4689,-2.4724,-2.5034,-2.5455,-2.574,-2.5871,-2.5877,-2.6438,-2.7074,-2.7632,-2.7786,-2.8048,-2.8403,-2.8274,-2.8221,-2.8243,-2.7316,-2.6402,-2.5983,-2.538,-2.4507,-2.3523,-2.3235,-2.2658,-2.1619,-2.0826,-1.9892,0.0,0.0,0.0,0.0,0.0,0.0,0.0,0.0,0.0,0.0,0.0,-1.5428,0.0,-1.6099,0.0,-1.7069,-1.6943,-1.706,-1.7235,-1.7417,-1.7627,-1.798,-1.8673,-1.9327,-1.9846,-2.0236,-2.0451,-2.1166,-2.1253,-2.1213,-2.1255,-2.1636,-2.2174,-2.2915,-2.3803,-2.4059,-2.3689,-2.3624,-2.3557,-2.2963,-2.2327,-2.183,-2.1722,-2.151,-2.1153,-2.0786,-2.0317,-2.0019,-1.948,-1.8989,-1.8486,-1.8494,-1.7876,-1.7429,-1.765,-1.8399,-1.932,-1.9657,-1.9784,-2.0107,-2.4115,-2.3634,-2.3792,-2.353,-2.2893,-2.3235,-2.3091,-2.2566,-2.2808,-2.2511,-2.1655,-2.1109,-2.0602,-2.0106,-2.0285,-2.0425,-2.0808,-2.1639,-2.2148,-2.2351,-2.3007,-2.3264,-2.2972,-2.4145,-2.4364,-2.387,-2.3975,-2.3856,-2.3537,-2.3537,-2.3812,-2.4078,-2.4634,-2.4889,-2.4862,-2.6003,-2.6839,-2.7281,-2.7772,-2.781,-2.7405,-2.736,-2.723,-2.6867,-2.6414,-2.58,-2.5051,-2.4623,-2.3927,-2.2961,-2.2655,-2.2215,-2.1602,-2.0428,-1.9404,0.0,-1.7776,0.0,0.0,0.0,0.0,0.0,0.0,0.0,0.0,-1.5151,-1.5794,-1.6778,-1.6961,-1.7125,-1.7455,-1.6977,-1.6808,-1.6518,-1.6799,-1.6973,-1.7182,-1.8027,-1.8857,-1.9442,-1.9507,-1.984,-2.0168,-2.0305,-2.0336,-2.0138,-2.0219,-2.0657,-2.1491,-2.2,-2.2199,-2.2282,-2.1461,-2.0936,-2.0779,-2.0594,-2.039,-2.039,-2.0381,-2.0214,-1.9454,-1.8905,-1.8354,-1.7632,-1.7185,-1.6919,-1.6927,-1.7076,-1.7009,-1.7024,-1.7149,-1.7599,-1.8447,-1.8721,-1.9199,-2.3604,-2.312,-2.2928,-2.244,-2.1991,-2.2475,-2.2503,-2.2226,-2.2229,-2.133,-1.9674,-1.9546,-1.9559,-1.9749,-1.9911,-2.051,-2.1368,-2.1753,-2.259,-2.3753,-2.4348,-2.378,-2.2245,-2.2335,-2.2807,-2.3363,-2.3434,-2.3571,-2.3768,-2.4049,-2.4231,-2.4286,-2.42,-2.4255,0.0,0.0,0.0,0.0,-2.6786,-2.7082,-2.6663,-2.6142,-2.5805,-2.5987,-2.5335,0.0,-2.4179,-2.3883,-2.3277,-2.2484,-2.2323,0.0,0.0,0.0,0.0,0.0,0.0,0.0,0.0,0.0,0.0,0.0,-1.5032,-1.4918,-1.4933,-1.5336,-1.5624,-1.6,-1.6026,-1.5929,-1.5906,-1.5822,-1.5753,-1.5868,-1.5909,-1.6057,-1.6369,-1.6618,-1.7129,-1.7871,-1.7932,-1.8192,-1.876,-1.89,-1.8882,-1.8743,-1.8891,-1.8796,-1.8322,-1.9274,-2.0362,-2.1132,-2.0391,-1.9462,-1.9276,-1.8354,-1.7795,-1.7608,-1.7608,-1.7608,-1.7421,-1.7234,-1.7048,-1.6876,-1.6815,-1.6934,-1.6934,-1.678,-1.6586,-1.6593,-1.6518,-1.6581,-1.7411,-1.7893,-1.8015,-2.2943,0.0,-2.2624,-2.2263,0.0,-2.2071,-2.1846,-2.1437,-2.1867,-2.076,-1.8605,-1.8581,-1.8676,-1.9018,-1.9268,-1.9771,-2.0467,-2.1175,-2.2015,-2.302,-2.2965,-2.2298,-2.1238,-2.1232,-2.1693,-2.2572,-2.2576,-2.2656,-2.2519,-2.2809,-2.2809,-2.2823,-2.2815,-2.2754,-2.2754,-2.2602,-2.3169,-2.4593,-2.5228,-2.531,-2.4966,-2.4539,-2.4382,-2.4512,0.0,0.0,0.0,0.0,0.0,0.0,0.0,0.0,0.0,0.0,0.0,-1.7849,-1.7,-1.6397,-1.5762,-1.5476,-1.5257,-1.4993,-1.5084,-1.5217,-1.5408,-1.5571,-1.5844,-1.6115,-1.5822,-1.5696,-1.5618,-1.5223,-1.5178,-1.535,-1.5208,-1.518,-1.5485,-1.5717,-1.5988,-1.657,-1.6625,-1.684,-1.7104,-1.7279,-1.7279,-1.7112,-1.7288,-1.7312,-1.6864,-1.7579,-1.8414,-1.8621,-1.8551,-1.8176,-1.7795,-1.7234,-1.6681,-1.6673,-1.6673,-1.6494,-1.6306,-1.6306,-1.6306,-1.6133,-1.6124,-1.6266,-1.6209,-1.6036,-1.5852,-1.5859,-1.5526,-1.5355,-1.5872,-1.656,-1.7466,-2.2286,-2.2194,-2.2195,-2.1939,-2.1546,-2.1584,-2.1353,-2.0798,0.0,0.0,0.0,-1.8139,-1.8159,-1.849,-1.8634,-1.9037,-1.9405,-2.0219,-2.0922,-2.1641,-2.0675,-2.0342,-2.0502,-2.0466,-2.0773,-2.1404,-2.1552,-2.1429,-2.1009,-2.1009,-2.1145,-2.117,-2.1233,-2.1207,-2.0955,-2.0871,-2.1512,-2.3001,-2.3209,-2.3353,-2.313,-2.2708,-2.2702,-2.299,-2.2262,-2.1858,-2.163,-2.119,-2.0793,-2.0172,-1.9715,-1.9435,-1.9041,-1.8393,-1.7867,-1.7349,-1.6575,-1.5831,-1.5147,-1.499,-1.4877,-1.4781,-1.4919,-1.5236,-1.5713,-1.5615,-1.5781,-1.5917,-1.5642,-1.5325,-1.5333,-1.4795,-1.4434,-1.4572,-1.428,-1.4238,-1.4506,-1.493,-1.5329,-1.5491,-1.5697,-1.5704,-1.5704,-1.6057,-1.6049,-1.5881,-1.6233,-1.6049,-1.5727,-1.6395,-1.679,-1.6551,-1.6755,-1.6688,-1.6681,-1.6494,-1.6494,-1.6306,-1.6306,-1.6306,-1.5744,-1.5563,-1.5375,-1.4993,-1.5227,-1.5314,-1.5069,-1.5041,-1.5015,-1.4839,-1.4643,-1.425,-1.4453,-1.5316,-1.6362,-2.1524,-2.1162,-2.1201,-2.0992,-2.0622,-2.0847,-2.0823,-2.0675,-2.0158,-1.9759,-1.9639,-1.8719,-1.8502,-1.8764,-1.8439,-1.8675,-1.9527,-1.9037,-1.9461,0.0,-1.9427,-1.9127,-1.96,-1.9739,-1.975,-1.99,-2.019,-2.019,-1.9912,-2.019,-2.0328,-2.019,-2.0086,-1.982,-1.982,-1.9854,-1.9889,-2.0204,-2.1003,-2.1562,-2.1457,-2.0994,-2.0971,-2.1257,-2.1136,-2.0822,-2.0497,-2.0206,-1.9748,-1.9424,-1.8987,-1.8644,-1.8377,-1.7595,-1.6987,-1.7001,-1.5963,-1.5206,-1.5218,-1.496,-1.4814,-1.5122,-1.4899,-1.4767,-1.4774,-1.505,-1.4923,-1.4319,-1.4273,-1.4196,-1.3865,-1.3714,-1.341,-1.3111,-1.3385,-1.3695,-1.3535,-1.4007,-1.4486,-1.4977,-1.5168,-1.5168,-1.5528,-1.5704,-1.5704,-1.5704,-1.5528,-1.5528,-1.5226,-1.5413,-1.5833,-1.6037,-1.5825,-1.5723,-1.5931,-1.5744,-1.5556,-1.5368,-1.5368,-1.5181,-1.4805,-1.461,-1.4617,-1.4059,-1.4197,-1.4266,-1.4253,-1.4192,-1.4285,-1.4304,-1.411,-1.411,-1.3915,-1.4323,-1.4486,-2.1136,-2.1005,-2.0908,-2.06,-2.0179,-2.015,-2.0371,-2.0646,-1.9681,-1.9492,-1.9759,-1.9229,-1.8764,-1.8597,-1.8446,-1.8567,-1.8966,-1.8637,-1.8843,-1.9435,-1.867,-1.8519,-1.8809,-1.8508,-1.8648,-1.9379,-1.9401,-1.9552,-1.9541,-1.968,-1.9831,-1.9831,-1.9273,-1.8854,-1.8703,-1.8422,-1.8422,-1.8703,-1.9655,-2.0345,-2.0486,-2.006,-2.0032,-2.0584,-2.014,-1.9702,-1.9569,-1.9252,-1.8822,-1.856,-1.7966,-1.7576,-1.7517,-1.6702,-1.6111,-1.6202,-1.5475,-1.5077,-1.5161,-1.5048,-1.4911,-1.4915,-1.4948,-1.4731,-1.4251,-1.4393,-1.4356,-1.3945,-1.3865,-1.3569,-1.3065,-1.3065,-1.2958,-1.2608,-1.2853,-1.2981,-1.2998,-1.3267,-1.3689,-1.4102,-1.4292,-1.4292,-1.4469,-1.4646,-1.4469,-1.4292,-1.4115,-1.4142,-1.4037,-1.4343,-1.4672,-1.5378,-1.521,-1.516,-1.5174,-1.4993,-1.4617,-1.4429,-1.4435,-1.4247,-1.4052,-1.4052,-1.3864,-1.3694,-1.3792,-1.3835,-1.3798,-1.3692,-1.3572,-1.359,-1.3397,-1.3205,-1.3199,-1.3107,-1.3216,-2.0484,-2.0414,-2.0356,-2.0227,-1.9959,-1.9692,-1.9854,-2.0272,-1.9496,-1.9289,-1.9534,-1.9182,-1.9016,-1.8694,-1.8567,-1.8539,-1.8422,-1.8455,-1.8304,-1.8153,-1.8304,-1.8433,-1.8272,-1.7658,-1.7798,-1.867,-1.8552,-1.8854,-1.8982,-1.9122,-1.9122,-1.8982,-1.8433,-1.8012,-1.7731,-1.7449,-1.7449,-1.7872,-1.8466,-1.8986,-1.9271,-1.9041,-1.9162,-1.9637,-1.899,-1.8738,-1.8706,-1.8285,-1.7852,-1.7546,-1.6802,-1.6536,-1.6573,-1.599,-1.5563,-1.5475,-1.5303,-1.5093,-1.4999,-1.4927,-1.4963,-1.4569,-1.4655,-1.4497,-1.4037,-1.3718,-1.376,-1.388,-1.3562,-1.3078,-1.2785,-1.2618,-1.2545,-1.2435,-1.2496,-1.2588,-1.2614,-1.2857,-1.3053,-1.3413,-1.3407,-1.3413,-1.3413,-1.3413,-1.3413,-1.3053,-1.2875,-1.2924,-1.3016,-1.3245,-1.3681,-1.4342,-1.4731,-1.4679,-1.4332,-1.4132,-1.3958,-1.3627,-1.3633,-1.3645,-1.3664,-1.3493,-1.3493,-1.3317,-1.3376,-1.34,-1.3335,-1.3192,-1.2875,-1.2887,-1.2696,-1.2505,-1.2494,-1.2345,-1.224,-1.89,-1.9043,-1.8979,-1.9243,-1.9669,-1.9541,-1.9541,-1.939,-1.9089,-1.8798,-1.856,-1.8683,-1.8727,-1.8938,-1.853,-1.8412,-1.8433,-1.8455,-1.8012,-1.7559,-1.8054,-1.8368,-1.8206,-1.76,-1.7288,-1.7137,-1.7298,-1.7449,-1.759,-1.759,-1.7449,-1.7449,-1.7449,-1.7308,-1.7308,-1.7319,-1.7308,-1.7308,-1.7225,-1.7378,-1.75,-1.7674,-1.7786,-1.7806,-1.7895,-1.7849,-1.7536,-1.7106,-1.6674,-1.6352,-1.5928,-1.586,-1.5852,-1.5587,-1.5362,-1.5514,-1.5242,-1.4855,-1.4696,-1.4594,-1.4584,-1.4554,-1.4128,-1.4059,-1.4024,-1.3707,-1.3383,-1.3403,-1.3065,-1.2785,-1.2914,-1.2421,-1.2143,-1.1956,-1.2235,-1.2493,-1.2185,-1.2626,-1.2875,-1.2875,-1.2875,-1.2881,-1.2875,-1.2881,-1.2875,-1.2698,-1.252,-1.2532,-1.2562,-1.2639,-1.2885,-1.3481,-1.3782,-1.3682,-1.3517,-1.3315,-1.3401,-1.3301,-1.3511,-1.3192,-1.2893,-1.2739,-1.2928,-1.2361,-1.2183,-1.2194,-1.2372,-1.2378,-1.2194,-1.2405,-1.221,-1.2194,-1.2178,-1.2096,-1.2042,-1.8347,-1.8396,-1.8417,-1.8397,-1.8541,-1.8282,-1.8293,-1.8293,-1.8142,-1.7851,-1.7549,-1.7757,-1.8057,-1.8282,-1.7872,-1.7731,-1.7731,-1.7903,-1.7752,-1.7288,-1.7168,-1.7168,-1.7017,-1.6866,-1.6413,-1.583,-1.6291,-1.6603,-1.6603,-1.6603,-1.6603,-1.631,-1.631,-1.631,-1.633,-1.6159,-1.6215,-1.6511,-1.6276,-1.6195,-1.6276,-1.6768,-1.7107,-1.7127,-1.7025,-1.6982,-1.6852,-1.6505,-1.6419,-1.6117,-1.5815,-1.5699,-1.5768,-1.532,-1.5201,-1.5267,-1.4822,-1.4585,-1.4296,-1.4388,-1.4229,-1.4142,-1.4081,-1.3837,-1.3728,-1.3238,-1.2899,-1.2899,-1.2733,-1.2624,-1.2252,-1.1938,-1.168,-1.1507,-1.1772,-1.1823,-1.1726,-1.1959,-1.2165,-1.2343,-1.2165,-1.1988,-1.1988,-1.1632,-1.1277,-1.1277,-1.1455,-1.1632,-1.1277,-1.132,-1.152,-1.1721,-1.1574,-1.1661,-1.213,-1.2426,-1.2292,-1.1982,-1.1865,-1.1752,-1.1773,-1.1605,-1.1605,-1.1416,-1.1037,-1.1227,-1.1605,-1.1416,-1.1416,-1.1605,-1.1794,-1.1794,-1.2172,-1.1946,-1.1726,-1.7575,-1.7733,-1.7898,-1.7844,-1.757,-1.7439,-1.746,-1.747,-1.7308,-1.7017,-1.6866,-1.7017,-1.7168,-1.7449,-1.7308,-1.7308,-1.7319,-1.748,-1.749,-1.7188,-1.6593,-1.615,-1.615,-1.5999,-1.5593,-1.5337,-1.5675,-1.5864,-1.591,-1.6062,-1.5919,-1.5632,-1.5632,-1.5632,-1.5641,-1.5496,-1.5558,-1.5722,-1.5606,-1.5554,-1.5563,-1.6053,-1.6341,-1.6462,-1.6496,-1.6295,-1.6295,-1.6133,-1.605,-1.5897,-1.5582,-1.5429,-1.5429,-1.5122,-1.4661,-1.4499,-1.3999,-1.3789,-1.3562,-1.3648,-1.3472,-1.3207,-1.3342,-1.3231,-1.2733,-1.2401,-1.2069,-1.1902,-1.2069,-1.1801,-1.1617,-1.1306,-1.1069,-1.0936,-1.0967,-1.1009,-1.1083,-1.1099,-1.1277,-1.1455,-1.1277,-1.1099,-1.0921,-1.0565,-1.0209,-1.0209,-1.0387,-1.0387,-1.003,-1.0209,-1.0387,-1.0392,-0.9852,-0.9908,-1.1139,-1.142,-1.1146,-1.0664,-1.0343,-1.0413,-1.0266,-1.0275,-1.0275,-1.0275,-0.9896,-0.9896,-1.0465,-1.0465,-1.0465,-1.1033,-1.1033,-1.0843,-1.1033,-1.0843,-1.1033,-1.6379,-1.6682,-1.7106,-1.7137,-1.7007,-1.7168,-1.7308,-1.7308,-1.6875,-1.6734,-1.6593,-1.6461,-1.632,-1.632,-1.7026,-1.7308,-1.7308,-1.7026,-1.7046,-1.7076,-1.649,-1.6207,-1.6102,-1.547,-1.5257,-1.5425,-1.5461,-1.5395,-1.5103,-1.5424,-1.5597,-1.5588,-1.5571,-1.558,-1.5562,-1.5441,-1.5615,-1.5467,-1.5351,-1.5303,-1.5328,-1.5159,-1.5295,-1.578,-1.608,-1.6024,-1.5718,-1.5582,-1.5429,-1.5122,-1.4968,-1.4968,-1.4968,-1.4661,-1.4053,-1.3259,-1.2678,-1.2333,-1.2364,-1.2357,-1.198,-1.1653,-1.1724,-1.1403,-1.107,-1.107,-1.0737,-1.0237,-1.0237,-1.0488,-1.0688,-1.0371,-0.9957,-1.0155,-1.0016,-1.0021,-1.0026,-1.003,-1.003,-1.0209,-1.003,-1.003,-1.003,-1.003,-0.9852,-0.9852,-1.003,-0.9852,-0.9852,-0.9669,-0.9674,-0.9674,-0.9308,-0.9134,-1.0238,-1.0364,-1.0091,-0.9618,-0.9351,-0.9607,-0.9282,-0.9134,-0.9134,-0.9134,-0.8944,-0.8944,-0.9134,-0.9324,-0.9324,-0.9513,-0.9703,-0.9513,-0.9892,-0.9513,-0.9513,-1.5707,-1.5856,-1.6419,-1.6461,-1.6452,-1.6603,-1.6603,-1.6603,-1.6461,-1.632,-1.632,-1.632,-1.6188,-1.6178,-1.6461,-1.6603,-1.6603,-1.6169,-1.633,-1.6519,-1.5748,-1.5748,-1.5988,-1.5128,-1.4753,-1.4899,-1.5018,-1.4956,-1.4712,-1.4728,-1.4876,-1.4876,-1.4884,-1.4826,-1.4767,-1.4951,-1.4861,-1.4489,-1.4581,-1.4581,-1.4267,-1.4168,-1.4322,-1.4573,-1.5089,-1.5429,-1.5275,-1.4976,-1.4822,-1.4669,-1.4045,-1.3737,-1.3737,-1.3428,-1.2965,-1.2353,-1.1921,-1.1729,-1.1462,-1.1212,-1.1003,-1.1031,-1.0904,-1.0904,-1.0737,-1.0404,-1.007,-0.9731,-0.9063,-0.8986,-0.8963,-0.9366,-0.9623,-0.9623,-0.9491,-0.9491,-0.9134,-0.9134,-0.9134,-0.9134,-0.9134,-0.9134,-0.9139,-0.9143,-0.9143,-0.9139,-0.9139,-0.8956,-0.8782,-0.8782,-0.8964,-0.8969,-0.8246,-0.7345,-0.7163,-0.8316,-0.8584,-0.8305,-0.8203,-0.8285,-0.8153,-0.8182,-0.8185,-0.8185,-0.7996,-0.7999,-0.8185,-0.8565,-0.8755,-0.8755,-0.8755,-0.8565,-0.9134,-0.8565,-0.8755,-1.53,-1.5465,-1.5728,-1.5753,-1.5763,-1.5753,-1.5763,-1.5763,-1.5818,-1.5969,-1.5923,-1.5969,-1.5969,-1.5914,-1.5914,-1.5942,-1.5836,-1.5639,-1.5612,-1.579,-1.5175,-1.5328,-1.5596,-1.4642,-1.4,-1.4147,-1.4497,-1.4461,-1.4153,-1.4153,-1.416,-1.416,-1.416,-1.4074,-1.3979,-1.42,-1.4104,-1.3868,-1.4068,-1.4053,-1.3744,-1.3744,-1.359,-1.3583,-1.4045,-1.4507,-1.4507,-1.4361,-1.4053,-1.3898,-1.3436,-1.2965,-1.2501,-1.2037,-1.1572,-1.1119,-1.0716,-1.0527,-1.0356,-1.0124,-0.9907,-0.9883,-0.9898,-0.9731,-0.9402,-0.9235,-0.8901,-0.8395,-0.8064,-0.7462,-0.7589,-0.8157,-0.8752,-0.8558,-0.8599,-0.8599,-0.8242,-0.8246,-0.8242,-0.8063,-0.8063,-0.8242,-0.8246,-0.825,-0.8071,-0.8071,-0.8067,-0.8063,-0.7889,-0.7889,-0.8071,-0.8075,-0.7352,-0.6633,-0.6273,-0.6848,-0.7443,-0.715,-0.7257,-0.7145,-0.7005,-0.703,-0.7049,-0.7049,-0.7049,-0.7239,-0.7429,-0.7996,-0.8185,-0.8185,-0.7806,-0.7426,-0.7616,-0.7806,-0.7806,-1.4864,-1.5375,-1.5176,-1.5035,-1.4893,-1.5044,-1.5052,-1.5079,-1.5219,-1.5336,-1.5524,-1.5687,-1.565,-1.5381,-1.5221,-1.531,-1.5228,-1.5105,-1.5203,-1.5096,-1.4954,-1.4962,-1.498,-1.3704,-1.3443,-1.3744,-1.374,-1.356,-1.3377,-1.3531,-1.3692,-1.3714,-1.3692,-1.3595,-1.3476,-1.3465,-1.3494,-1.3398,-1.3341,-1.3428,-1.359,-1.3436,-1.312,-1.2965,-1.2965,-1.312,-1.3583,-1.3583,-1.3428,-1.2965,-1.2965,-1.2501,-1.1262,-1.0796,-1.0336,-0.9568,-0.9105,-0.8893,-0.9064,-0.9112,-0.8734,-0.8361,-0.8232,-0.7897,-0.7394,-0.7063,-0.7063,-0.6895,-0.6899,-0.6785,-0.6904,-0.6942,-0.7181,-0.7143,-0.7352,-0.7352,-0.7531,-0.7352,-0.7173,-0.7173,-0.7352,-0.7173,-0.7173,-0.7352,-0.7352,-0.7352,-0.7352,-0.7352,-0.7173,-0.7173,-0.7173,-0.7173,-0.6633,-0.5918,-0.5559,-0.5386,-0.5779,-0.6189,-0.6296,-0.638,-0.6036,-0.606,-0.609,-0.6098,-0.6288,-0.6288,-0.6669,-0.7046,-0.6856,-0.6856,-0.6479,-0.6479,-0.6479,-0.6669,-0.6479,-1.4476,-1.4764,-1.4884,-1.4339,-1.3713,-1.4315,-1.4617,-1.4625,-1.4685,-1.5105,-1.5399,-1.5552,-1.4779,-1.3785,-1.3706,-1.3746,-1.3546,-1.3348,-1.3818,-1.466,-1.4516,-1.4314,-1.4018,-1.2978,-1.2792,-1.3268,-1.3223,-1.312,-1.2811,-1.2811,-1.2811,-1.2811,-1.2811,-1.2574,-1.2284,-1.2413,-1.2273,-1.202,-1.1657,-1.1572,-1.1585,-1.1423,-1.1107,-1.0952,-1.0952,-1.1107,-1.1107,-1.1727,-1.1882,-1.1417,-1.0796,-1.0175,-0.9708,-0.9402,-0.9281,-0.9046,-0.8636,-0.8402,-0.8195,-0.8107,-0.7663,-0.7219,-0.7227,-0.7063,-0.6727,-0.6727,-0.656,-0.6389,-0.6224,-0.6262,-0.6001,-0.6055,-0.631,-0.6621,-0.6633,-0.6633,-0.6454,-0.627,-0.6454,-0.6633,-0.6812,-0.6815,-0.6991,-0.717,-0.6984,-0.6994,-0.6815,-0.6633,-0.6633,-0.6097,-0.5739,-0.5918,-0.5559,-0.538,-0.5201,-0.5201,-0.5219,-0.5434,-0.5513,-0.5779,-0.5438,-0.5287,-0.5316,-0.5337,-0.5527,-0.5718,-0.5908,-0.5908,-0.5908,-0.5908,-0.6098,-0.5908,-0.5718,-0.5527,-0.5718,-1.3747,-1.3796,-1.398,-1.3584,-1.2858,-1.3603,-1.3904,-1.3912,-1.3682,-1.4162,-1.4796,-1.465,-1.3913,-1.2801,-1.2575,-1.2457,-1.2575,-1.224,-1.2729,-1.3853,-1.4002,-1.3898,-1.3722,-1.2444,-1.1987,-1.2313,-1.2347,-1.2192,-1.1882,-1.1727,-1.1727,-1.1572,-1.1572,-1.1343,-1.0926,-1.1029,-1.1047,-1.0797,-1.0578,-1.0491,-1.0491,-1.018,-0.9864,-0.9864,-0.9708,-0.9558,-0.9402,-0.9869,-1.018,-1.0019,-0.9558,-0.8934,-0.8622,-0.8466,-0.8355,-0.8137,-0.7906,-0.7669,-0.7428,-0.7176,-0.6892,-0.6556,-0.656,-0.6392,-0.6224,-0.6224,-0.6056,-0.5885,-0.5888,-0.5746,-0.5639,-0.5526,-0.5777,-0.6225,-0.6264,-0.6097,-0.573,-0.5657,-0.5811,-0.5989,-0.6153,-0.6338,-0.6545,-0.6384,-0.6408,-0.6258,-0.5918,-0.5739,-0.5559,-0.5022,-0.5022,-0.5201,-0.5201,-0.502,-0.502,-0.4843,-0.4845,-0.4875,-0.4737,-0.5163,-0.5025,-0.4885,-0.473,-0.4947,-0.4956,-0.4956,-0.5337,-0.5337,-0.5337,-0.5527,-0.5718,-0.5337,-0.5147,-0.5147,-0.5147,-1.2655,-1.2704,-1.2579,-1.2589,-1.2595,-1.2745,-1.2753,-1.2632,-1.246,-1.2823,-1.3475,-1.317,-1.2643,-1.2189,-1.1573,-1.1489,-1.1901,-1.1782,-1.1768,-1.223,-1.2794,-1.3199,-1.2976,-1.1722,-1.1194,-1.1231,-1.1262,-1.0952,-1.0486,-1.0486,-1.033,-1.0019,-1.0014,-0.9816,-0.9751,-0.9816,-0.9816,-0.9592,-0.9661,-0.9708,-0.9708,-0.9708,-0.9553,-0.9085,-0.9085,-0.8774,-0.8154,-0.8154,-0.8466,-0.909,-0.8778,-0.831,-0.7998,-0.7681,-0.7256,-0.7035,-0.6626,-0.6703,-0.6615,-0.6686,-0.6556,-0.6053,-0.6053,-0.5885,-0.5552,-0.5552,-0.5552,-0.5552,-0.5552,-0.5406,-0.5461,-0.5523,-0.5589,-0.5651,-0.5703,-0.5722,-0.5709,-0.5364,-0.5319,-0.5343,-0.5461,-0.5425,-0.554,-0.5204,-0.508,-0.4972,-0.482,-0.4642,-0.4487,-0.4485,-0.4305,-0.4485,-0.4664,-0.4664,-0.4664,-0.4664,-0.4487,-0.4138,-0.4169,-0.4391,-0.4636,-0.4312,-0.435,-0.4373,-0.4575,-0.4575,-0.4766,-0.4956,-0.4956,-0.4956,-0.4956,-0.4575,-0.4575,-0.4766,-0.4766,-1.2008,-1.2116,-1.2313,-1.1924,-1.1279,-1.1592,-1.1743,-1.1462,-1.1358,-1.1681,-1.2025,-1.1945,-1.1392,-1.0724,-1.0451,-1.0358,-1.0631,-1.0439,-1.0277,-1.0445,-1.0536,-1.0822,-1.0877,-1.0504,-1.0326,-1.0314,-1.033,-1.0019,-0.9402,-0.9241,-0.9246,-0.909,-0.909,-0.8925,-0.875,-0.8608,-0.8453,-0.8114,-0.8128,-0.7994,-0.7681,-0.7681,-0.7525,-0.7209,-0.7209,-0.7053,-0.6744,-0.6744,-0.7056,-0.7529,-0.7529,-0.7213,-0.69,-0.674,-0.6641,-0.6605,-0.6486,-0.6397,-0.6334,-0.6208,-0.6053,-0.572,-0.5549,-0.5549,-0.5384,-0.5384,-0.5384,-0.5384,-0.5384,-0.539,-0.5422,-0.5156,-0.4898,-0.4804,-0.5154,-0.548,-0.5088,-0.4659,-0.4427,-0.4411,-0.4553,-0.4553,-0.4567,-0.4416,-0.4282,-0.4361,-0.422,-0.4065,-0.4109,-0.3949,-0.3768,-0.4126,-0.4305,-0.4307,-0.4307,-0.4307,-0.4128,-0.3412,-0.343,-0.3636,-0.3696,-0.3569,-0.3598,-0.3815,-0.4006,-0.4006,-0.4385,-0.4575,-0.4575,-0.4385,-0.4385,-0.4385,-0.4196,-0.4196,-0.4196,-1.139,-1.1344,-1.1544,-1.1147,-1.0637,-1.1142,-1.1175,-1.0743,-1.0593,-1.0781,-1.1002,-1.0694,-1.0339,-0.9932,-0.991,-0.9976,-1.0112,-0.9915,-0.9742,-0.9904,-0.9904,-0.9769,-0.9503,-0.9524,-0.9439,-0.9542,-0.9553,-0.909,-0.8622,-0.831,-0.8154,-0.7998,-0.7842,-0.7681,-0.7369,-0.7373,-0.7213,-0.7056,-0.7056,-0.69,-0.6587,-0.6587,-0.6587,-0.6271,-0.6271,-0.6271,-0.6271,-0.6271,-0.6431,-0.6587,-0.6587,-0.6587,-0.6268,-0.6085,-0.6,-0.6156,-0.5988,-0.5878,-0.5849,-0.5885,-0.5717,-0.5384,-0.5384,-0.5384,-0.5384,-0.5384,-0.5384,-0.5384,-0.5384,-0.5216,-0.5061,-0.4786,-0.4531,-0.4425,-0.4749,-0.4886,-0.4719,-0.392,-0.3694,-0.3834,-0.3978,-0.3962,-0.3976,-0.3815,-0.3879,-0.3791,-0.3659,-0.3701,-0.3573,-0.3403,-0.3411,-0.359,-0.3768,-0.3769,-0.3769,-0.3769,-0.3949,-0.3411,-0.3065,-0.3265,-0.313,-0.3188,-0.3408,-0.3616,-0.3621,-0.3624,-0.4006,-0.4004,-0.3813,-0.3813,-0.4004,-0.4006,-0.3815,-0.3815,-0.3815,-1.0665,-1.0657,-1.0528,-1.0531,-1.0524,-1.0811,-1.0587,-1.0311,-1.0023,-1.0082,-1.017,-0.9759,-0.97,-0.9786,-0.9602,-0.9714,-0.98,-0.9571,-0.9719,-0.9555,-0.9397,-0.9086,-0.8329,-0.831,-0.8505,-0.858,-0.8604,-0.8301,-0.7838,-0.7525,-0.7213,-0.7056,-0.6587,-0.6427,-0.6587,-0.6431,-0.6271,-0.6427,-0.6427,-0.6431,-0.6275,-0.6275,-0.6118,-0.5962,-0.5962,-0.5958,-0.6115,-0.6115,-0.6118,-0.6118,-0.6275,-0.6118,-0.6111,-0.5745,-0.567,-0.565,-0.5506,-0.5389,-0.5349,-0.5552,-0.5384,-0.5384,-0.5384,-0.5384,-0.5384,-0.5384,-0.5384,-0.5216,-0.5384,-0.5053,-0.4565,-0.4261,-0.3977,-0.4034,-0.3814,-0.3814,-0.3818,-0.3197,-0.2943,-0.3625,-0.3728,-0.3713,-0.3721,-0.3422,-0.3135,-0.3411,-0.3278,-0.3144,-0.3194,-0.3228,-0.3052,-0.3052,-0.3231,-0.3409,-0.3409,-0.323,-0.3409,-0.3411,-0.3066,-0.3087,-0.312,-0.3169,-0.3205,-0.3418,-0.3429,-0.3243,-0.3243,-0.3243,-0.3243,-0.3243,-0.3434,-0.3434,-0.3243,-0.3434,-0.3434,-1.0332,-0.9958,-1.0238,-1.0528,-1.0398,-1.0113,-0.9792,-0.9585,-0.9441,-0.9452,-0.9485,-0.9345,-0.9087,-0.8856,-0.902,-0.9116,-0.8859,-0.8952,-0.89,-0.8731,-0.7881,-0.7431,-0.698,-0.678,-0.708,-0.7423,-0.7427,-0.6995,-0.6729,-0.6744,-0.6587,-0.6431,-0.6275,-0.6271,-0.6275,-0.6115,-0.6271,-0.6271,-0.6275,-0.6118,-0.5805,-0.5805,-0.5648,-0.5335,-0.5335,-0.5335,-0.5332,-0.5332,-0.5332,-0.5335,-0.5648,-0.5648,-0.5338,-0.5361,-0.5266,-0.5342,-0.5401,-0.5286,-0.5363,-0.5384,-0.5384,-0.5384,-0.5384,-0.5384,-0.5384,-0.5384,-0.5216,-0.5046,-0.4878,-0.4558,-0.3915,-0.3616,-0.3469,-0.3309,-0.313,-0.3112,-0.3092,-0.2855,-0.2804,-0.2943,-0.2929,-0.2911,-0.2895,-0.2897,-0.2784,-0.2862,-0.2908,-0.2767,-0.2814,-0.2863,-0.2874,-0.2872,-0.3052,-0.3052,-0.3052,-0.3052,-0.3231,-0.3227,-0.3058,-0.2893,-0.2924,-0.2951,-0.3168,-0.3205,-0.324,-0.3052,-0.3052,-0.3052,-0.3243,-0.3052,-0.3052,-0.3052,-0.3052,-0.3052,-0.3052,-1.0187,-0.9927,-1.0065,-1.0029,-0.9704,-0.9689,-0.9394,-0.8902,-0.8871,-0.9066,-0.9136,-0.8971,-0.839,-0.815,-0.8411,-0.8489,-0.8552,-0.8498,-0.8555,-0.8232,-0.7582,-0.6834,-0.6094,-0.5784,-0.5935,-0.6641,-0.6641,-0.6365,-0.6257,-0.6118,-0.5962,-0.5962,-0.5805,-0.5648,-0.5648,-0.5645,-0.5645,-0.5645,-0.5492,-0.5335,-0.5335,-0.5181,-0.5179,-0.5022,-0.5022,-0.5022,-0.5022,-0.5022,-0.5022,-0.5022,-0.5025,-0.5025,-0.5025,-0.5052,-0.5112,-0.5194,-0.5229,-0.5297,-0.5354,-0.5216,-0.5216,-0.5384,-0.5046,-0.4878,-0.4878,-0.4878,-0.471,-0.4372,-0.4376,-0.4056,-0.3418,-0.3092,-0.2937,-0.2955,-0.2784,-0.277,-0.2739,-0.2697,-0.2657,-0.2632,-0.2624,-0.2607,-0.2592,-0.2582,-0.2602,-0.2675,-0.2727,-0.2758,-0.2796,-0.2841,-0.2868,-0.2874,-0.2874,-0.2874,-0.2874,-0.2874,-0.2874,-0.3045,-0.2859,-0.2872,-0.2893,-0.2916,-0.2939,-0.2984,-0.3033,-0.3051,-0.3052,-0.3052,-0.3052,-0.3052,-0.3052,-0.3052,-0.3052,-0.3052,-0.3052,-1.018,-1.0028,-0.9881,-0.9385,-0.8861,-0.9245,-0.9076,-0.8588,-0.8537,-0.8895,-0.905,-0.8267,-0.7979,-0.7652,-0.7977,-0.8188,-0.8113,-0.7998,-0.803,-0.8062,-0.7734,-0.6712,-0.5823,-0.5215,-0.5247,-0.6042,-0.6012,-0.5874,-0.5926,-0.5645,-0.5492,-0.5335,-0.5022,-0.4865,-0.4865,-0.4865,-0.4863,-0.4865,-0.4552,-0.4552,-0.4709,-0.4554,-0.4552,-0.4709,-0.4709,-0.4719,-0.4721,-0.4719,-0.4714,-0.4719,-0.4409,-0.4562,-0.4714,-0.4894,-0.4936,-0.4887,-0.4915,-0.4967,-0.486,-0.4878,-0.471,-0.5216,-0.4542,-0.4204,-0.4372,-0.4372,-0.4036,-0.3868,-0.3871,-0.3544,-0.3239,-0.3092,-0.2758,-0.2773,-0.2781,-0.2776,-0.2748,-0.272,-0.2697,-0.2661,-0.2652,-0.2641,-0.2622,-0.2611,-0.263,-0.2653,-0.2705,-0.2751,-0.2789,-0.2826,-0.2859,-0.2874,-0.2874,-0.2861,-0.2859,-0.287,-0.2871,-0.2853,-0.2842,-0.2853,-0.2867,-0.2887,-0.2916,-0.2971,-0.3011,-0.3029,-0.3047,-0.3052,-0.3052,-0.3052,-0.3052,-0.3052,-0.3052,-0.3052,-0.3052,-1.0379,-1.0012,-0.9645,-0.9258,-0.875,-0.8734,-0.8671,-0.8693,-0.8764,-0.896,-0.8735,-0.8158,-0.7788,-0.7743,-0.7562,-0.75,-0.7272,-0.7289,-0.7336,-0.7525,-0.7357,-0.6628,-0.52,-0.4822,-0.4839,-0.4928,-0.5138,-0.5196,-0.5106,-0.4841,-0.4709,-0.4554,-0.4238,-0.4081,-0.4081,-0.4081,-0.4081,-0.4081,-0.3925,-0.3925,-0.4081,-0.4081,-0.3927,-0.4084,-0.4086,-0.4106,-0.4124,-0.4106,-0.3942,-0.3978,-0.3984,-0.3965,-0.3961,-0.4003,-0.4061,-0.427,-0.4314,-0.4512,-0.4367,-0.4204,-0.4204,-0.4204,-0.4036,-0.4038,-0.4038,-0.4036,-0.37,-0.3533,-0.3197,-0.2864,-0.2869,-0.2743,-0.2759,-0.2766,-0.2789,-0.2807,-0.2782,-0.2766,-0.274,-0.2695,-0.2684,-0.2677,-0.266,-0.2645,-0.2647,-0.2672,-0.2714,-0.2754,-0.2789,-0.2829,-0.2867,-0.2874,-0.2874,-0.2856,-0.284,-0.2856,-0.2861,-0.2836,-0.2826,-0.2834,-0.2848,-0.2863,-0.2898,-0.2949,-0.2986,-0.3006,-0.3024,-0.3044,-0.3052,-0.3052,-0.3052,-0.3052,-0.3052,-0.3052,-0.3052,-1.0346,-0.9827,-0.9695,-0.9127,-0.8557,-0.847,-0.8365,-0.8228,-0.8239,-0.8307,-0.7962,-0.7411,-0.7004,-0.7088,-0.7078,-0.691,-0.6693,-0.6856,-0.6909,-0.6962,-0.7106,-0.6383,-0.4703,-0.4459,-0.4472,-0.4384,-0.4456,-0.4527,-0.4436,-0.4204,-0.4077,-0.4084,-0.3925,-0.3768,-0.3768,-0.3768,-0.3768,-0.3768,-0.3611,-0.3611,-0.3768,-0.3768,-0.377,-0.3774,-0.3792,-0.3815,-0.3829,-0.3848,-0.3848,-0.3866,-0.3548,-0.3548,-0.3397,-0.3417,-0.3446,-0.3787,-0.3999,-0.4204,-0.4036,-0.3868,-0.387,-0.3868,-0.37,-0.3544,-0.3551,-0.338,-0.3197,-0.3029,-0.2861,-0.2692,-0.2695,-0.2748,-0.277,-0.2777,-0.2814,-0.283,-0.2816,-0.2808,-0.2774,-0.2731,-0.272,-0.2713,-0.2702,-0.2687,-0.2673,-0.2692,-0.2728,-0.2758,-0.2789,-0.2833,-0.2874,-0.2871,-0.287,-0.2857,-0.2841,-0.2849,-0.2852,-0.2826,-0.2816,-0.2825,-0.283,-0.2845,-0.2878,-0.2923,-0.2953,-0.2994,-0.3013,-0.3036,-0.3044,-0.3052,-0.3052,-0.3052,-0.3052,-0.3052,-0.3052,-1.0189,-0.9661,-0.9769,-0.915,-0.8394,-0.8247,-0.8086,-0.7775,-0.7724,-0.7667,-0.7144,-0.6583,-0.6304,-0.6366,-0.6369,-0.636,-0.614,-0.6422,-0.6465,-0.6508,-0.6669,-0.5965,-0.484,-0.4259,-0.4112,-0.4124,-0.3785,-0.3869,-0.3951,-0.3725,-0.3601,-0.3601,-0.3603,-0.3605,-0.3443,-0.3448,-0.3607,-0.3454,-0.3297,-0.314,-0.3456,-0.3621,-0.3625,-0.3629,-0.3507,-0.3533,-0.3551,-0.3559,-0.3576,-0.3422,-0.3266,-0.3108,-0.3129,-0.2814,-0.2972,-0.3611,-0.3995,-0.4027,-0.37,-0.3533,-0.3365,-0.3532,-0.3029,-0.3044,-0.3052,-0.3041,-0.2692,-0.2692,-0.2692,-0.2692,-0.2699,-0.2747,-0.2776,-0.2793,-0.283,-0.2866,-0.2846,-0.2834,-0.2822,-0.2789,-0.2766,-0.2739,-0.2718,-0.2702,-0.2683,-0.2698,-0.2731,-0.2757,-0.2791,-0.2841,-0.2872,-0.2868,-0.2864,-0.2857,-0.2849,-0.2848,-0.2842,-0.2821,-0.2819,-0.2827,-0.2826,-0.2826,-0.2868,-0.2734,-0.2966,-0.3005,-0.3018,-0.3029,-0.3044,-0.3052,-0.3052,-0.2862,-0.2671,-0.2671,-0.2862,-1.0189,-0.9655,-0.9795,-0.9145,-0.8269,-0.8001,-0.7754,-0.748,-0.7932,-0.7592,-0.7019,-0.6298,-0.5972,-0.607,-0.6084,-0.5899,-0.578,-0.5794,-0.5801,-0.5677,-0.6103,-0.5712,-0.4477,-0.3603,-0.3765,-0.3652,-0.329,-0.3224,-0.3474,-0.3258,-0.312,-0.3106,-0.2962,-0.2656,-0.2787,-0.2802,-0.2671,-0.2669,-0.2671,-0.2672,-0.2678,-0.2857,-0.2868,-0.2882,-0.2903,-0.2931,-0.2948,-0.2948,-0.2948,-0.2806,-0.2807,-0.263,-0.262,-0.266,-0.2665,-0.2827,-0.2837,-0.2861,-0.2861,-0.2861,-0.2865,-0.3033,-0.2697,-0.2695,-0.2872,-0.2874,-0.2697,-0.2692,-0.2692,-0.2692,-0.2702,-0.2748,-0.2776,-0.2803,-0.2836,-0.2866,-0.2866,-0.2855,-0.2842,-0.2476,-0.2451,-0.2583,-0.2721,-0.2706,-0.2694,-0.2713,-0.2733,-0.2761,-0.2792,-0.2841,-0.2874,-0.287,-0.286,-0.2852,-0.2852,-0.2852,-0.2845,-0.2822,-0.2829,-0.2836,-0.2482,-0.2488,-0.2693,-0.2738,-0.2784,-0.3009,-0.3025,-0.3037,-0.3048,-0.3052,-0.2862,-0.2479,-0.1716,-0.2098,-0.2862,-0.9726,-0.9643,-0.9565,-0.9056,-0.8236,-0.7842,-0.7592,-0.7429,-0.7439,-0.7217,-0.685,-0.6135,-0.5851,-0.5732,-0.5587,-0.5386,-0.5291,-0.5338,-0.5192,-0.491,-0.5062,-0.494,-0.4406,-0.3762,-0.3516,-0.3392,-0.3195,-0.2846,-0.2901,-0.2912,-0.2767,-0.278,-0.2619,-0.2457,-0.2447,-0.2457,-0.2472,-0.2487,-0.2504,-0.2523,-0.2538,-0.2553,-0.2568,-0.2583,-0.2612,-0.2634,-0.2643,-0.2657,-0.2657,-0.2672,-0.2672,-0.2668,-0.2661,-0.2677,-0.2684,-0.2677,-0.2684,-0.2692,-0.2692,-0.2692,-0.2699,-0.2713,-0.2717,-0.272,-0.2718,-0.2714,-0.2706,-0.2694,-0.2692,-0.2692,-0.2702,-0.2748,-0.2772,-0.28,-0.2661,-0.268,-0.2694,-0.2872,-0.2684,-0.2316,-0.2127,-0.2441,-0.2578,-0.2564,-0.2549,-0.271,-0.2737,-0.2769,-0.2799,-0.2838,-0.2863,-0.2874,-0.286,-0.2846,-0.2849,-0.2852,-0.2856,-0.2844,-0.2852,-0.2679,-0.2143,-0.1974,-0.1989,-0.1998,-0.2019,-0.2232,-0.283,-0.2659,-0.2475,-0.2478,-0.2671,-0.2098,-0.1526,-0.229,-0.2481,-0.919,-0.9504,-0.9441,-0.8951,-0.8146,-0.7596,-0.735,-0.7316,-0.7035,-0.678,-0.6407,-0.5806,-0.5522,-0.5415,-0.5132,-0.4955,-0.4741,-0.4801,-0.4649,-0.4362,-0.4213,-0.4211,-0.3949,-0.3471,-0.3241,-0.3276,-0.291,-0.2696,-0.2584,-0.2443,-0.2444,-0.2466,-0.2457,-0.2436,-0.2427,-0.2431,-0.2444,-0.2473,-0.2491,-0.2518,-0.2551,-0.2567,-0.2587,-0.2613,-0.2639,-0.2658,-0.2662,-0.2676,-0.269,-0.269,-0.269,-0.2686,-0.2687,-0.2688,-0.2691,-0.2688,-0.2692,-0.2692,-0.2692,-0.2694,-0.2706,-0.2717,-0.2725,-0.2713,-0.2707,-0.2718,-0.2721,-0.2692,-0.2692,-0.2524,-0.2366,-0.2232,-0.2254,-0.2277,-0.2305,-0.25,-0.2515,-0.2513,-0.2693,-0.2506,-0.2314,-0.2123,-0.2272,-0.2255,-0.2407,-0.2551,-0.2566,-0.2601,-0.2634,-0.249,-0.2144,-0.1976,-0.233,-0.232,-0.2321,-0.2323,-0.2503,-0.2505,-0.2692,-0.2694,-0.2152,-0.144,-0.1088,-0.1092,-0.1277,-0.2035,-0.2823,-0.2271,-0.1712,-0.1524,-0.1526,-0.1526,-0.1526,-0.0,-0.21,-0.8568,-0.9117,-0.9504,-0.915,-0.8258,-0.7365,-0.7005,-0.7017,-0.6941,-0.6293,-0.5432,-0.4937,-0.4761,-0.4759,-0.4741,-0.4705,-0.4384,-0.445,-0.4425,-0.4382,-0.4208,-0.392,-0.3523,-0.3277,-0.3044,-0.2822,-0.2624,-0.2538,-0.2414,-0.2447,-0.245,-0.2462,-0.2453,-0.2443,-0.2435,-0.2429,-0.2447,-0.2473,-0.2492,-0.2519,-0.2559,-0.2587,-0.2615,-0.2642,-0.2671,-0.2688,-0.269,-0.2523,-0.2524,-0.2524,-0.2692,-0.2692,-0.2692,-0.2692,-0.2692,-0.2692,-0.2692,-0.2692,-0.2692,-0.2692,-0.2695,-0.2697,-0.2694,-0.2692,-0.269,-0.269,-0.269,-0.2524,-0.2524,-0.2356,-0.1862,-0.137,-0.1388,-0.1397,-0.1588,-0.1427,-0.1793,-0.2154,-0.2334,-0.2512,-0.2324,-0.1778,-0.2124,-0.2281,-0.242,-0.2564,-0.1714,-0.1562,-0.1763,-0.1784,-0.1074,-0.0898,-0.1257,-0.1435,-0.1435,-0.1435,-0.1434,-0.1613,-0.1795,-0.2156,-0.2334,-0.0,-0.0,-0.0545,-0.0729,-0.185,-0.2434,-0.1878,-0.1133,-0.038,-0.0,-0.0,-0.0,-0.0,-0.0,-0.8497,-0.9111,-0.8995,-0.8657,-0.8013,-0.7379,-0.7019,-0.6679,-0.6389,-0.5621,-0.449,-0.4212,-0.4218,-0.4419,-0.4397,-0.4361,-0.4297,-0.439,-0.4406,-0.4266,-0.4234,-0.3799,-0.3403,-0.2913,-0.2708,-0.2744,-0.2523,-0.2436,-0.2477,-0.2473,-0.2497,-0.2502,-0.2459,-0.2428,-0.2421,-0.2447,-0.2469,-0.25,-0.253,-0.2568,-0.2582,-0.2616,-0.2646,-0.2675,-0.2682,-0.2692,-0.2523,-0.2018,-0.2018,-0.2018,-0.2356,-0.2524,-0.2524,-0.2524,-0.2524,-0.2692,-0.2692,-0.2692,-0.2692,-0.2694,-0.2701,-0.271,-0.2692,-0.2672,-0.2677,-0.2179,-0.1843,-0.2013,-0.2356,-0.2189,-0.2196,-0.12,-0.0521,-0.0522,-0.0,-0.0,-0.0,-0.0,-0.0,-0.0,-0.0,-0.0895,-0.1426,-0.2128,-0.2442,-0.2578,-0.1382,-0.0,-0.0,-0.0,-0.0,-0.0,-0.0,-0.0,-0.0,-0.0,-0.0,-0.0,-0.0,-0.0,-0.0,-0.0,-0.0,-0.0,-0.0,-0.0,-0.0,-0.0,-0.075,-0.019,-0.0,-0.0,-0.0,-0.0,-0.0,-0.8502,-0.8845,-0.8595,-0.8281,-0.7928,-0.7298,-0.6828,-0.6387,-0.6104,-0.5185,-0.3902,-0.3862,-0.4083,-0.4235,-0.4201,-0.418,-0.4267,-0.4354,-0.4401,-0.4412,-0.4263,-0.3679,-0.3021,-0.2658,-0.2439,-0.2644,-0.2577,-0.2484,-0.2507,-0.2512,-0.2527,-0.2517,-0.2474,-0.2454,-0.2466,-0.2476,-0.2497,-0.2533,-0.2243,-0.2281,-0.2125,-0.2142,-0.2162,-0.2181,-0.2187,-0.2524,-0.2524,-0.2188,-0.1515,-0.1346,-0.1346,-0.1851,-0.2188,-0.2355,-0.2355,-0.2355,-0.2524,-0.2692,-0.2692,-0.2695,-0.2524,-0.2177,-0.2171,-0.2332,-0.2502,-0.1996,-0.1832,-0.1003,-0.1511,-0.0,-0.0,-0.0686,-0.0,-0.0,-0.0,-0.0,-0.0,-0.0,-0.0,-0.0,-0.0,-0.0,-0.0,-0.0,-0.0,-0.0,-0.0,-0.0,-0.0,-0.0,-0.0,-0.0,-0.0,-0.0,-0.0,-0.0,-0.0,-0.0,-0.0,-0.0,-0.0,-0.0,-0.0,-0.0,-0.0,-0.0,-0.0,-0.0,-0.0,-0.0,-0.0,-0.0,-0.0,-0.0,-0.0,-0.8372,-0.8579,-0.8189,-0.7917,-0.7897,-0.7008,-0.6439,-0.6284,-0.596,-0.512,-0.4052,-0.3907,-0.3995,-0.3984,-0.406,-0.4166,-0.4283,-0.436,-0.4417,-0.4589,-0.4431,-0.355,-0.2736,-0.2367,-0.23,-0.2339,-0.2416,-0.2484,-0.2357,-0.2357,-0.2373,-0.2391,-0.2529,-0.2521,-0.2549,-0.2526,-0.253,-0.2396,-0.1766,-0.1629,-0.1316,-0.1325,-0.1336,-0.1342,-0.1346,-0.1683,-0.1852,-0.2021,-0.1347,-0.0505,-0.0,-0.0,-0.1178,-0.1346,-0.1346,-0.1346,-0.2188,-0.2524,-0.2524,-0.2692,-0.2005,-0.1487,-0.1322,-0.1479,-0.2276,-0.2286,-0.1659,-0.0,-0.0,-0.0,-0.0,-0.0,-0.0,-0.0,-0.0,-0.0,-0.0,-0.0,-0.0,-0.0,-0.0,-0.0,-0.0,-0.0,-0.0,-0.0,-0.0,-0.0,-0.0,-0.0,-0.0,-0.0,-0.0,-0.0,-0.0,-0.0,-0.0,-0.0,-0.0,-0.0,-0.0,-0.0,-0.0,-0.0,-0.0,-0.0,-0.0,-0.0,0.1322,0.1143,0.1716,-0.0,-0.0,0.2288,0.2098,-0.8247,-0.8189,-0.8061,-0.7526,-0.6973,-0.6221,-0.595,-0.5852,-0.5398,-0.4695,-0.4139,-0.4079,-0.4003,-0.3984,-0.4003,-0.412,-0.4289,-0.4322,-0.4379,-0.4617,-0.4461,-0.3431,-0.2606,-0.2245,-0.2163,-0.2354,-0.2423,-0.2173,-0.1728,-0.1728,-0.1741,-0.1754,-0.2417,-0.2272,-0.1781,-0.1773,-0.178,-0.2455,-0.2308,-0.1659,-0.0663,-0.0,-0.0,-0.0,-0.0,-0.0,-0.0,-0.1011,-0.0505,-0.0,-0.0,-0.0,-0.0,-0.0,-0.0505,-0.0505,-0.1179,-0.1346,-0.1178,-0.0841,-0.0839,-0.0498,-0.0492,-0.049,-0.0818,-0.0823,-0.0498,-0.0,-0.0,-0.0,-0.0,-0.0,-0.0,-0.0,-0.0,-0.0,-0.0,-0.0,-0.0,-0.0,-0.0,-0.0,-0.0,-0.0,-0.0,-0.0,-0.0,-0.0,-0.0,-0.0,-0.0,-0.0,-0.0,-0.0,-0.0,-0.0,-0.0,-0.0,-0.0,-0.0,-0.0,-0.0,-0.0,-0.0,-0.0,0.2016,0.2232,0.226,0.2085,0.2286,0.2479,0.2862,0.2862,0.2862,0.2862,-0.7951,-0.8051,-0.766,-0.7125,-0.6443,-0.5856,-0.573,-0.5637,-0.4951,-0.4381,-0.4174,-0.4095,-0.4022,-0.397,-0.397,-0.4082,-0.4292,-0.4176,-0.41,-0.4337,-0.4208,-0.3308,-0.2484,-0.2124,-0.2012,-0.2057,-0.2281,-0.2194,-0.186,-0.1095,-0.1265,-0.1923,-0.2283,-0.18,-0.131,-0.0822,-0.0991,-0.1499,-0.1338,-0.1005,-0.0,-0.0,-0.0,-0.0,-0.0,-0.0,-0.0,0.0337,-0.0,-0.0,-0.0,-0.0,-0.0,-0.0,0.0337,0.0505,0.0505,0.0337,0.0336,0.0841,0.1008,0.1007,0.0656,0.049,0.0496,0.0332,0.0168,-0.0,-0.0,-0.0,-0.0,-0.0,-0.0,-0.0,-0.0,-0.0,-0.0,-0.0,-0.0,-0.0,-0.0,-0.0,-0.0,-0.0,-0.0,-0.0,-0.0,-0.0,-0.0,-0.0,-0.0,-0.0,-0.0,-0.0,-0.0,-0.0,-0.0,-0.0,-0.0,-0.0,-0.0,-0.0,-0.0,0.0916,0.1845,0.2604,0.2821,0.2849,0.2665,0.2478,0.267,0.2862,0.3052,0.3052,0.3052,-0.7755,-0.7902,-0.6987,-0.6455,-0.6317,-0.577,-0.551,-0.5524,-0.4768,-0.4286,-0.4134,-0.4125,-0.4046,-0.3965,-0.3951,-0.3947,-0.4123,-0.3887,-0.3823,-0.3758,-0.3645,-0.2891,-0.2352,-0.199,-0.1436,-0.1456,-0.1651,-0.1711,-0.0,-0.0933,-0.0948,-0.1759,-0.1946,-0.131,-0.0495,-0.0,-0.0,-0.0,-0.0,-0.0,-0.0,-0.0,-0.0,-0.0,-0.0,-0.0,0.0674,0.1516,0.1348,-0.0,-0.0,-0.0,-0.0,-0.0,0.1179,0.2022,0.2358,0.1852,0.1514,0.2018,0.2192,0.2024,0.1671,0.1495,0.1495,0.1338,0.1181,0.0682,-0.0,-0.0,-0.0,-0.0,-0.0,-0.0,-0.0,-0.0,-0.0,-0.0,-0.0,-0.0,-0.0,-0.0,-0.0,-0.0,-0.0,-0.0,-0.0,-0.0,-0.0,-0.0,-0.0,-0.0,-0.0,-0.0,-0.0,-0.0,-0.0,-0.0,-0.0,-0.0,-0.0,-0.0,-0.0,0.1667,0.2617,0.3017,0.3035,0.3044,0.305,0.2862,0.2862,0.2862,0.3052,0.3052,0.3052,-0.7493,-0.7245,-0.6719,-0.6187,-0.5647,-0.4977,-0.4735,-0.4635,-0.4308,-0.4229,-0.4055,-0.4098,-0.4022,-0.3954,-0.3704,-0.367,-0.3639,-0.3594,-0.3369,-0.3293,-0.3229,-0.2765,-0.2091,-0.1285,-0.0718,-0.0,-0.0,-0.0,-0.0,-0.0,-0.0,-0.064,-0.0,-0.0,-0.0,-0.0,-0.0,-0.0,-0.0,-0.0,-0.0,-0.0,-0.0,-0.0,-0.0,0.0674,0.1685,0.219,0.219,0.2022,0.1178,0.1178,0.1853,0.1347,0.1515,0.1683,0.2188,0.2524,0.2356,0.2524,0.2699,0.2717,0.2374,0.2362,0.2355,0.2193,0.2043,0.1721,0.1212,0.1044,0.1051,0.1058,0.1065,0.1071,0.1074,0.1074,0.1076,0.1077,0.1077,0.0898,0.0718,-0.0,-0.0,-0.0,-0.0,-0.0,-0.0,-0.0,-0.0,-0.0,-0.0,-0.0,-0.0,-0.0,-0.0,-0.0,-0.0,-0.0,-0.0,0.0738,-0.0,-0.0,-0.0,0.2244,0.2828,0.3033,0.3047,0.3052,0.3052,0.3052,0.3052,0.3052,0.3052,0.3052,0.3052,-0.6942,-0.6702,-0.6321,-0.5781,-0.497,-0.4389,-0.4281,-0.4333,-0.4256,-0.4215,-0.4071,-0.409,-0.4003,-0.3833,-0.371,-0.3515,-0.3618,-0.3189,-0.2974,-0.3023,-0.2959,-0.2387,-0.1559,-0.0,-0.0,-0.0,-0.0,-0.0,-0.0,-0.0,-0.0,-0.0,-0.0,-0.0,-0.0,-0.0,-0.0,-0.0,-0.0,-0.0,-0.0,-0.0,-0.0,0.0842,0.1011,0.1516,0.2021,0.2357,0.2694,0.2525,0.185,0.1851,0.2525,0.202,0.185,0.202,0.2356,0.2692,0.2524,0.2692,0.271,0.2731,0.2748,0.2755,0.2754,0.2589,0.2603,0.2444,0.2092,0.1919,0.1934,0.1949,0.196,0.1972,0.1969,0.1967,0.197,0.1975,0.1976,0.1796,0.1257,0.0539,-0.0,-0.0,-0.0,-0.0,-0.0,-0.0,-0.0,-0.0,-0.0,-0.0,-0.0,-0.0,-0.0,-0.0,-0.0,-0.0,-0.0,0.2052,0.2804,0.2813,0.2636,0.2646,0.2848,0.2858,0.3052,0.3052,0.3052,0.3052,0.3052,0.3052,0.3052,0.3052,0.3052,-0.637,-0.6431,-0.5781,-0.5114,-0.4292,-0.4194,-0.4213,-0.4294,-0.4229,-0.4202,-0.418,-0.3965,-0.3888,-0.3717,-0.3479,-0.339,-0.3218,-0.2777,-0.2697,-0.275,-0.2553,-0.1996,-0.1283,-0.0,-0.0,-0.0,-0.0,-0.0,-0.0,-0.0,-0.0,-0.0,-0.0,-0.0,-0.0,-0.0,-0.0,-0.0,-0.0,-0.0,-0.0,-0.0,0.0842,0.219,0.2358,0.2358,0.202,0.2187,0.2692,0.2524,0.2355,0.2187,0.2524,0.2692,0.2524,0.2524,0.2692,0.2692,0.2692,0.2692,0.271,0.2735,0.2763,0.2782,0.2789,0.2788,0.2796,0.2815,0.2462,0.2455,0.2468,0.2471,0.2479,0.2482,0.2479,0.2485,0.2497,0.2504,0.251,0.2331,0.2152,0.1435,-0.0,-0.0,-0.0,-0.0,-0.0,-0.0,-0.0,-0.0,-0.0,-0.0,-0.0,-0.0,-0.0,-0.0,-0.0,-0.0,0.2445,0.264,0.2645,0.2845,0.305,0.305,0.2857,0.305,0.3052,0.3052,0.3052,0.3052,0.3052,0.3052,0.3052,0.3052,0.3052,-0.5922,-0.5739,-0.5199,-0.4708,-0.4297,-0.4226,-0.4262,-0.4354,-0.4161,-0.4109,-0.4136,-0.3853,-0.3541,-0.3357,-0.3042,-0.2935,-0.2787,-0.2517,-0.2405,-0.2325,-0.2259,-0.1868,-0.1141,-0.0,-0.0,-0.0,-0.0,-0.0,-0.0,-0.0,-0.0,-0.0,-0.0,-0.0,-0.0,-0.0,-0.0,-0.0,-0.0,-0.0,-0.0,-0.0,0.0842,0.2022,0.2527,0.2527,0.2356,0.2524,0.2692,0.2692,0.2524,0.2524,0.2692,0.2692,0.2692,0.2692,0.2692,0.2692,0.2692,0.2694,0.2709,0.2727,0.2752,0.2784,0.2799,0.2797,0.2804,0.2826,0.2833,0.2823,0.2815,0.2811,0.281,0.2806,0.2804,0.2822,0.284,0.2852,0.2863,0.2685,0.2688,0.233,0.1974,0.1436,0.0718,-0.0,-0.0,-0.0,-0.0,-0.0,-0.0,-0.0,-0.0,-0.0,0.1317,0.188,0.2074,0.2269,0.2465,0.2663,0.267,0.286,0.3052,0.3052,0.3052,0.3052,0.3052,0.3052,0.3052,0.3052,0.3052,0.3052,0.3052,0.3052,0.3052,-0.5394,-0.5168,-0.4787,-0.4442,-0.4292,-0.4081,-0.3978,-0.4034,-0.3742,-0.3817,-0.3994,-0.3734,-0.332,-0.3162,-0.2726,-0.259,-0.2428,-0.2277,-0.2161,-0.2188,-0.2251,-0.2011,-0.1307,-0.0,-0.0,-0.0,-0.0,-0.0,0.0922,-0.0,-0.0,0.0472,-0.0,-0.0,-0.0,-0.0,-0.0,-0.0,-0.0,-0.0,0.0841,0.1347,0.1179,0.2189,0.2357,0.2525,0.2692,0.2692,0.2692,0.2692,0.2692,0.2692,0.2692,0.2692,0.2692,0.2692,0.2692,0.2692,0.2692,0.2697,0.2706,0.2725,0.2737,0.2766,0.2791,0.2789,0.2789,0.2807,0.2806,0.2797,0.278,0.2772,0.2784,0.2787,0.2795,0.281,0.2838,0.2864,0.2868,0.2868,0.2687,0.2679,0.25,0.2318,0.1786,-0.0,-0.0,-0.0,-0.0,0.0728,0.0736,0.0744,0.0755,0.1332,0.2276,0.2655,0.2661,0.2669,0.2671,0.2862,0.286,0.3052,0.3052,0.3052,0.3052,0.3052,0.3052,0.3052,0.3052,0.3052,0.3052,0.3052,0.3051,0.305,0.3052,-0.5032,-0.4677,-0.4397,-0.4171,-0.4158,-0.3803,-0.368,-0.3594,-0.323,-0.3322,-0.3749,-0.3509,-0.3245,-0.2867,-0.2667,-0.2638,-0.252,-0.2325,-0.2193,-0.2211,-0.2285,-0.217,-0.16,-0.0,-0.0,-0.0,-0.0,0.1957,0.2235,0.1689,0.1413,0.1256,0.0787,-0.0,0.0159,-0.0,-0.0,-0.0,-0.0,-0.0,0.2009,0.2694,0.2189,0.202,0.2187,0.2692,0.2692,0.2692,0.2692,0.2692,0.2692,0.2692,0.2692,0.2692,0.2692,0.2692,0.2692,0.2692,0.2692,0.2692,0.2707,0.2722,0.2729,0.2744,0.2769,0.2773,0.2773,0.2778,0.2777,0.2772,0.2754,0.2752,0.2766,0.2769,0.2781,0.2793,0.2827,0.2864,0.2871,0.287,0.2861,0.2851,0.2849,0.2844,0.2852,0.2689,0.234,0.1988,0.1634,0.1647,0.1662,0.1864,0.2072,0.2654,0.3047,0.3051,0.3052,0.3052,0.2862,0.3052,0.3052,0.3052,0.3052,0.3052,0.3052,0.3052,0.3052,0.3052,0.3052,0.3048,0.3052,0.305,0.304,0.304,0.305,-0.4455,-0.4409,-0.43,-0.3902,-0.3492,-0.3606,-0.3594,-0.3307,-0.315,-0.3128,-0.313,-0.3072,-0.2677,-0.246,-0.2319,-0.2331,-0.2293,-0.2223,-0.224,-0.2248,-0.2301,-0.2326,-0.1744,-0.0,-0.0,-0.0,0.1647,0.2262,0.2543,0.2311,0.22,0.22,0.22,0.1574,0.1104,0.0953,0.0801,0.0649,0.082,0.1655,0.2163,0.2677,0.2692,0.2524,0.2524,0.2692,0.2692,0.2692,0.2692,0.2692,0.2692,0.2692,0.2692,0.2692,0.2692,0.2692,0.2692,0.2692,0.2692,0.2692,0.2705,0.2703,0.271,0.2718,0.2731,0.2727,0.2733,0.275,0.2751,0.2757,0.2747,0.2761,0.2773,0.2754,0.2752,0.2765,0.2788,0.2836,0.2867,0.2863,0.2856,0.2855,0.286,0.2857,0.286,0.2871,0.2694,0.2344,0.2348,0.256,0.2593,0.2799,0.2821,0.3033,0.3052,0.3051,0.3052,0.3052,0.3052,0.3052,0.3052,0.3052,0.3052,0.3052,0.3052,0.3052,0.3052,0.3052,0.3043,0.304,0.3048,0.3048,0.3036,0.3035,0.3047]},{"header":{"parameterUnit":"m.s-1","parameterCategory":1,"la1":31.0,"la2":29.5877,"lo1":-88.7671,"lo2":-86.6584,"dy":0.0162,"dx":0.0185,"nx":115,"ny":88,"refTime":"2023-10-20T18:00:00:Z","depth":0,"parameterNumber":3,"parameterNumberName":"V-component_of_WINDS"},"data":[0.0,0.0,0.0,0.0,0.0,0.0,0.0,0.0,0.0,0.0,0.0,0.0,0.0,0.0,0.0,0.0,0.0,0.0,0.0,0.0,0.0,0.0,0.0,0.0,0.0,0.0,0.0,0.0,0.0,0.0,0.0,0.0,0.0,0.0,0.0,0.0,0.0,0.0,0.0,0.0,0.0,0.0,0.0,0.0,0.0,0.0,0.0,0.0,0.0,0.0,0.0,0.0,0.0,0.0,0.0,0.0,0.0,0.0,0.0,0.0,0.0,0.0,0.0,0.0,0.0,0.0,0.0,0.0,0.0,0.0,0.0,0.0,0.0,0.0,0.0,0.0,0.0,0.0,0.0,0.0,0.0,0.0,0.0,0.0,0.0,0.0,0.0,0.0,0.0,0.0,0.0,0.0,0.0,0.0,0.0,0.0,0.0,0.0,0.0,0.0,0.0,0.0,0.0,0.0,0.0,0.0,0.0,0.0,0.0,0.0,0.0,0.0,0.0,0.0,0.0,0.0,0.0,0.0,0.0,0.0,0.0,0.0,0.0,0.0,0.0,0.0,0.0,0.0,0.0,0.0,0.0,0.0,0.0,0.0,0.0,0.0,0.0,0.0,0.0,0.0,0.0,0.0,0.0,0.0,0.0,0.0,0.0,0.0,0.0,0.0,0.0,0.0,0.0,0.0,0.0,0.0,0.0,0.0,0.0,0.0,0.0,0.0,0.0,0.0,0.0,0.0,0.0,0.0,0.0,0.0,0.0,0.0,0.0,0.0,0.0,0.0,0.0,0.0,0.0,0.0,0.0,0.0,0.0,0.0,0.0,0.0,0.0,0.0,0.0,0.0,0.0,0.0,0.0,0.0,0.0,0.0,0.0,0.0,0.0,0.0,0.0,0.0,0.0,0.0,0.0,0.0,0.0,0.0,0.0,0.0,0.0,0.0,0.0,0.0,0.0,0.0,0.0,0.0,0.0,0.0,0.0,0.0,0.0,0.0,0.0,0.0,0.0,0.0,0.0,0.0,0.0,0.0,0.0,0.0,0.0,0.0,0.0,0.0,0.0,0.0,0.0,0.0,0.0,0.0,0.0,0.0,0.0,0.0,0.0,0.0,0.0,0.0,0.0,0.0,0.0,0.0,0.0,0.0,0.0,0.0,0.0,0.0,0.0,0.0,0.0,0.0,0.0,0.0,0.0,0.0,0.0,0.0,0.0,0.0,0.0,0.0,0.0,0.0,0.0,0.0,0.0,0.0,0.0,0.0,0.0,0.0,0.0,0.0,0.0,0.0,0.0,0.0,0.0,0.0,0.0,0.0,0.0,0.0,0.0,0.0,0.0,0.0,0.0,0.0,0.0,0.0,0.0,0.0,0.0,0.0,0.0,0.0,0.0,0.0,0.0,0.0,0.0,0.0,0.0,0.0,0.0,0.0,0.0,0.0,0.0,0.0,0.0,0.0,0.0,0.0,0.0,0.0,0.0,0.0,0.0,0.0,0.0,0.0,0.0,0.0,0.0,0.0,0.0,0.0,0.0,0.0,0.0,0.0,0.0,0.0,0.0,0.0,0.0,0.0,0.0,0.0,0.0,0.0,0.0,0.0,0.0,0.0,0.0,0.0,0.0,0.0,0.0,0.0,0.0,0.0,0.0,0.0,0.0,0.0,0.0,0.0,0.0,0.0,0.0,0.0,0.0,0.0,0.0,0.0,0.0,0.0,0.0,0.0,0.0,0.0,0.0,0.0,0.0,0.0,0.0,0.0,0.0,0.0,0.0,0.0,0.0,0.0,0.0,0.0,0.0,0.0,0.0,0.0,0.0,0.0,0.0,0.0,0.0,0.0,0.0,0.0,0.0,0.0,0.0,0.0,0.0,0.0,0.0,0.0,0.0,0.0,0.0,0.0,0.0,0.0,0.0,0.0,0.0,0.0,0.0,0.0,0.0,0.0,0.0,0.0,0.0,0.0,0.0,0.0,0.0,0.0,0.0,0.0,0.0,0.0,0.0,0.0,0.0,0.0,0.0,0.0,0.0,0.0,0.0,0.0,0.0,0.0,0.0,0.0,0.0,0.0,0.0,0.0,0.0,0.0,0.0,0.0,0.0,0.0,0.0,0.0,0.0,0.0,0.0,0.0,0.0,0.0,0.0,0.0,0.0,0.0,0.0,0.0,0.0,0.0,0.0,0.0,0.0,0.0,0.0,0.0,0.0,0.0,0.0,0.0,0.0,0.0,0.0,0.0,0.0,0.0,0.0,0.0,0.0,0.0,0.0,0.0,0.0,0.0,0.0,0.0,0.0,0.0,0.0,0.0,0.0,0.0,0.0,0.0,0.0,0.0,0.0,0.0,0.0,0.0,0.0,0.0,0.0,0.0,0.0,0.0,0.0,0.0,0.0,0.0,0.0,0.0,0.0,0.0,0.0,0.0,0.0,0.0,0.0,0.0,0.0,0.0,0.0,0.0,0.0,0.0,0.0,0.0,0.0,0.0,0.0,0.0,0.0,0.0,0.0,0.0,0.0,0.0,0.0,0.0,0.0,0.0,0.0,0.0,0.0,0.0,0.0,0.0,0.0,0.0,0.0,0.0,0.0,0.0,0.0,0.0,0.0,0.0,0.0,0.0,0.0,0.0,0.0,0.0,0.0,0.0,0.0,0.0,0.0,0.0,0.0,0.0,0.0,0.0,0.0,0.0,0.0,0.0,0.0,0.0,0.0,0.0,0.0,0.0,0.0,0.0,0.0,0.0,0.0,0.0,0.0,0.0,0.0,0.0,0.0,0.0,0.0,0.0,0.0,0.0,0.0,0.0,0.0,0.0,0.0,0.0,0.0,0.0,0.0,0.0,0.0,0.0,0.0,0.0,0.0,0.0,0.0,0.0,0.0,0.0,0.0,0.0,0.0,0.0,0.0,0.0,0.0,0.0,0.0,0.0,0.0,0.0,0.0,0.0,0.0,0.0,0.0,0.0,0.0,0.0,0.0,0.0,0.0,0.0,0.0,0.0,0.0,0.0,0.0,0.0,0.0,0.0,0.0,0.0,0.0,0.0,0.0,0.0,0.0,0.0,0.0,0.0,0.0,0.0,0.0,0.0,0.0,0.0,0.0,0.0,0.0,0.0,0.0,0.0,0.0,0.0,0.0,0.0,0.0,0.0,0.0,0.0,0.0,0.0,0.0,0.0,0.0,0.0,0.0,0.0,0.0,0.0,0.0,0.0,0.0,0.0,0.0,0.0,0.0,0.0,0.0,0.0,0.0,0.0,0.0,0.0,0.0,0.0,0.0,0.0,0.0,0.0,0.0,0.0,0.0,0.0,0.0,0.0,0.0,0.0,0.0,0.0,0.0,0.0,0.0,0.0,0.0,0.0,0.0,0.0,0.0,0.0,0.0,0.0,0.0,0.0,0.0,0.0,0.0,0.0,0.0,0.0,0.0,0.0,0.0,0.0,0.0,0.0,0.0,0.0,0.0,0.0,0.0,0.0,0.0,0.0,0.0,0.0,0.0,0.0,0.0,0.0,0.0,0.0,0.0,0.0,0.0,0.0,0.0,0.0,0.0,0.0,0.0,0.0,0.0,0.0,0.0,0.0,0.0,0.0,0.0,0.0,0.0,0.0,0.0,0.0,0.0,0.0,0.0,0.0,0.0,0.0,0.0,0.0,0.0,0.0,0.0,0.0,0.0,0.0,0.0,0.0,0.0,0.0,0.0,0.0,0.0,0.0,0.0,0.0,0.0,0.0,0.0,0.0,0.0,0.0,0.0,0.0,0.0,0.0,0.0,0.0,0.0,0.0,0.0,0.0,0.0,0.0,0.0,0.0,0.0,0.0,0.0,0.0,0.0,0.0,0.0,0.0,0.0,0.0,0.0,0.0,0.0,0.0,0.0,0.0,0.0,0.0,0.0,0.0,0.0,0.0,0.0,0.0,0.0,0.0,0.0,0.0,0.0,0.0,0.0,0.0,0.0,0.0,0.0,0.0,0.0,0.0,0.0,0.0,0.0,0.0,0.0,0.0,0.0,0.0,0.0,0.0,0.0,0.0,0.0,0.0,0.0,0.0,0.0,0.0,0.0,0.0,0.0,0.0,0.0,0.0,0.0,0.0,0.0,0.0,0.0,0.0,0.0,0.0,0.0,0.0,0.0,0.0,0.0,0.0,0.0,0.0,0.0,0.0,0.0,0.0,0.0,0.0,0.0,0.0,0.0,0.0,0.0,0.0,0.0,0.0,0.0,0.0,0.0,0.0,0.0,0.0,0.0,0.0,0.0,0.0,0.0,0.0,0.0,0.0,-5.0773,0.0,0.0,0.0,0.0,0.0,0.0,0.0,0.0,0.0,0.0,0.0,0.0,0.0,0.0,0.0,0.0,0.0,0.0,0.0,0.0,0.0,0.0,0.0,0.0,0.0,0.0,0.0,0.0,0.0,0.0,0.0,0.0,0.0,0.0,0.0,0.0,0.0,0.0,0.0,0.0,0.0,0.0,0.0,0.0,0.0,0.0,0.0,0.0,0.0,0.0,0.0,0.0,0.0,0.0,0.0,0.0,0.0,0.0,0.0,0.0,0.0,0.0,0.0,0.0,0.0,0.0,0.0,0.0,0.0,0.0,0.0,0.0,0.0,0.0,0.0,0.0,0.0,0.0,0.0,0.0,0.0,0.0,0.0,0.0,0.0,0.0,0.0,0.0,0.0,0.0,0.0,0.0,0.0,0.0,0.0,0.0,0.0,0.0,0.0,0.0,0.0,0.0,0.0,0.0,0.0,0.0,0.0,0.0,0.0,0.0,-5.1266,-5.088,-5.0841,-5.0841,-5.0841,0.0,0.0,0.0,0.0,0.0,0.0,0.0,0.0,0.0,0.0,0.0,0.0,0.0,0.0,0.0,0.0,0.0,0.0,0.0,0.0,0.0,0.0,0.0,0.0,0.0,0.0,0.0,0.0,0.0,0.0,0.0,0.0,0.0,0.0,0.0,0.0,0.0,0.0,0.0,0.0,0.0,0.0,0.0,0.0,0.0,0.0,0.0,0.0,0.0,0.0,0.0,0.0,0.0,0.0,0.0,0.0,0.0,0.0,0.0,0.0,0.0,0.0,0.0,0.0,0.0,0.0,0.0,0.0,0.0,0.0,0.0,0.0,0.0,0.0,0.0,0.0,0.0,0.0,0.0,0.0,0.0,0.0,0.0,0.0,0.0,0.0,0.0,0.0,0.0,0.0,0.0,0.0,0.0,0.0,0.0,0.0,0.0,0.0,0.0,0.0,0.0,0.0,0.0,0.0,0.0,0.0,0.0,0.0,0.0,0.0,0.0,0.0,-5.1053,-5.1037,-5.1208,0.0,0.0,0.0,0.0,0.0,0.0,0.0,0.0,0.0,0.0,0.0,0.0,0.0,0.0,0.0,0.0,0.0,0.0,0.0,0.0,0.0,0.0,0.0,0.0,0.0,0.0,0.0,0.0,0.0,0.0,0.0,0.0,0.0,0.0,0.0,0.0,0.0,0.0,0.0,0.0,0.0,0.0,0.0,0.0,0.0,0.0,0.0,0.0,0.0,0.0,0.0,0.0,0.0,0.0,0.0,0.0,0.0,0.0,0.0,0.0,0.0,0.0,0.0,0.0,0.0,0.0,0.0,0.0,0.0,0.0,0.0,0.0,0.0,0.0,0.0,0.0,0.0,0.0,0.0,0.0,0.0,0.0,0.0,0.0,0.0,0.0,0.0,0.0,0.0,0.0,0.0,0.0,0.0,0.0,0.0,0.0,0.0,0.0,0.0,0.0,0.0,0.0,0.0,0.0,0.0,0.0,0.0,0.0,0.0,0.0,-5.2172,-5.2172,-5.1474,0.0,-5.2133,0.0,0.0,0.0,0.0,0.0,0.0,0.0,0.0,0.0,0.0,0.0,0.0,0.0,0.0,0.0,0.0,0.0,0.0,0.0,0.0,0.0,0.0,0.0,0.0,0.0,0.0,0.0,0.0,0.0,0.0,0.0,0.0,0.0,0.0,0.0,0.0,0.0,0.0,0.0,0.0,0.0,0.0,0.0,0.0,0.0,0.0,0.0,0.0,0.0,0.0,0.0,0.0,0.0,0.0,0.0,0.0,0.0,0.0,0.0,0.0,0.0,0.0,0.0,0.0,0.0,0.0,0.0,0.0,0.0,0.0,0.0,0.0,0.0,0.0,0.0,0.0,0.0,0.0,0.0,0.0,0.0,0.0,0.0,0.0,0.0,0.0,0.0,0.0,0.0,0.0,0.0,0.0,0.0,0.0,0.0,0.0,0.0,0.0,0.0,0.0,0.0,0.0,0.0,0.0,0.0,0.0,0.0,0.0,0.0,0.0,-5.4372,-5.3857,-5.3081,-5.2795,0.0,0.0,0.0,0.0,0.0,0.0,0.0,0.0,0.0,0.0,0.0,0.0,0.0,0.0,0.0,0.0,0.0,0.0,0.0,0.0,0.0,0.0,0.0,0.0,0.0,0.0,0.0,0.0,0.0,0.0,0.0,0.0,0.0,0.0,0.0,0.0,0.0,0.0,0.0,0.0,0.0,0.0,0.0,0.0,0.0,0.0,0.0,0.0,0.0,0.0,0.0,0.0,0.0,0.0,0.0,0.0,0.0,0.0,0.0,0.0,0.0,0.0,0.0,0.0,0.0,0.0,0.0,0.0,0.0,0.0,0.0,0.0,0.0,0.0,0.0,0.0,0.0,0.0,0.0,0.0,0.0,0.0,0.0,0.0,0.0,0.0,0.0,0.0,0.0,0.0,0.0,0.0,0.0,0.0,0.0,0.0,0.0,0.0,0.0,0.0,0.0,0.0,0.0,0.0,0.0,0.0,0.0,0.0,0.0,0.0,-5.6717,-5.611,-5.5009,-5.4621,-5.4349,-5.4103,0.0,0.0,0.0,0.0,0.0,0.0,0.0,0.0,0.0,0.0,0.0,0.0,0.0,0.0,0.0,0.0,0.0,0.0,0.0,0.0,0.0,0.0,0.0,0.0,0.0,0.0,0.0,0.0,0.0,0.0,0.0,0.0,0.0,0.0,0.0,0.0,0.0,0.0,0.0,0.0,0.0,0.0,0.0,0.0,0.0,0.0,0.0,0.0,0.0,0.0,0.0,0.0,0.0,0.0,0.0,0.0,0.0,0.0,0.0,0.0,0.0,0.0,0.0,0.0,0.0,0.0,0.0,0.0,0.0,0.0,0.0,0.0,0.0,0.0,0.0,0.0,0.0,0.0,0.0,0.0,0.0,0.0,0.0,0.0,0.0,0.0,0.0,0.0,0.0,0.0,0.0,0.0,0.0,0.0,0.0,0.0,0.0,0.0,0.0,0.0,0.0,0.0,0.0,0.0,0.0,0.0,0.0,0.0,-5.876,-5.8059,-5.6814,-5.5247,-5.588,-5.5919,0.0,0.0,0.0,0.0,0.0,0.0,0.0,0.0,0.0,0.0,0.0,0.0,0.0,0.0,0.0,0.0,0.0,0.0,0.0,0.0,0.0,0.0,0.0,0.0,0.0,0.0,0.0,0.0,0.0,0.0,0.0,0.0,0.0,0.0,0.0,0.0,0.0,0.0,0.0,0.0,0.0,0.0,0.0,0.0,0.0,0.0,0.0,0.0,0.0,0.0,0.0,0.0,0.0,0.0,0.0,0.0,0.0,0.0,0.0,0.0,0.0,0.0,0.0,0.0,0.0,0.0,0.0,0.0,0.0,0.0,0.0,0.0,0.0,0.0,0.0,0.0,0.0,0.0,0.0,0.0,0.0,0.0,0.0,0.0,0.0,0.0,0.0,0.0,0.0,0.0,0.0,0.0,0.0,0.0,0.0,0.0,0.0,0.0,0.0,0.0,0.0,0.0,0.0,0.0,0.0,0.0,0.0,0.0,0.0,-6.0511,-5.9727,-5.8753,-5.7592,-5.732,-5.6775,0.0,0.0,0.0,0.0,0.0,0.0,0.0,0.0,0.0,0.0,0.0,0.0,0.0,0.0,0.0,0.0,0.0,0.0,0.0,0.0,0.0,0.0,0.0,0.0,0.0,0.0,0.0,0.0,0.0,0.0,0.0,0.0,0.0,0.0,0.0,0.0,0.0,0.0,0.0,0.0,0.0,0.0,0.0,0.0,0.0,0.0,0.0,0.0,0.0,0.0,0.0,0.0,0.0,0.0,0.0,0.0,0.0,0.0,0.0,0.0,0.0,0.0,0.0,0.0,0.0,0.0,0.0,0.0,0.0,0.0,0.0,0.0,0.0,0.0,0.0,0.0,0.0,0.0,0.0,0.0,0.0,0.0,0.0,0.0,0.0,0.0,0.0,0.0,0.0,0.0,0.0,0.0,0.0,0.0,0.0,0.0,0.0,0.0,0.0,0.0,0.0,0.0,0.0,0.0,0.0,0.0,0.0,0.0,0.0,-6.15,0.0,-5.9854,0.0,-5.8111,-5.7254,0.0,0.0,0.0,0.0,0.0,0.0,0.0,0.0,0.0,0.0,0.0,0.0,0.0,0.0,0.0,0.0,0.0,0.0,0.0,0.0,0.0,0.0,0.0,0.0,0.0,0.0,0.0,0.0,0.0,0.0,0.0,0.0,0.0,0.0,0.0,0.0,0.0,0.0,0.0,0.0,0.0,0.0,0.0,0.0,0.0,0.0,0.0,0.0,0.0,0.0,0.0,0.0,0.0,0.0,0.0,0.0,0.0,0.0,0.0,0.0,0.0,0.0,0.0,0.0,0.0,0.0,0.0,0.0,0.0,0.0,0.0,0.0,0.0,0.0,0.0,0.0,0.0,0.0,0.0,0.0,0.0,0.0,0.0,0.0,0.0,0.0,0.0,0.0,0.0,0.0,0.0,0.0,0.0,0.0,0.0,0.0,0.0,0.0,0.0,0.0,0.0,0.0,0.0,0.0,0.0,0.0,0.0,0.0,-6.1573,-6.1556,-6.0761,-5.9903,-5.9098,-5.8233,-5.7375,0.0,0.0,0.0,0.0,0.0,0.0,0.0,0.0,0.0,0.0,0.0,0.0,0.0,0.0,0.0,0.0,0.0,0.0,0.0,0.0,0.0,0.0,0.0,0.0,0.0,0.0,0.0,0.0,0.0,0.0,0.0,0.0,0.0,0.0,0.0,0.0,0.0,0.0,0.0,0.0,0.0,0.0,0.0,0.0,0.0,0.0,0.0,0.0,0.0,0.0,0.0,0.0,0.0,0.0,0.0,0.0,0.0,0.0,0.0,0.0,0.0,0.0,0.0,0.0,0.0,0.0,0.0,0.0,0.0,0.0,0.0,0.0,0.0,0.0,0.0,0.0,0.0,0.0,0.0,0.0,0.0,0.0,0.0,0.0,0.0,0.0,0.0,0.0,0.0,0.0,0.0,0.0,0.0,0.0,0.0,0.0,0.0,0.0,0.0,0.0,0.0,0.0,0.0,0.0,0.0,0.0,0.0,0.0,0.0,-6.0761,-5.995,-5.9092,-5.824,-5.796,-5.7382,0.0,0.0,0.0,0.0,0.0,0.0,0.0,0.0,0.0,0.0,0.0,0.0,0.0,0.0,0.0,0.0,0.0,0.0,0.0,0.0,0.0,0.0,0.0,0.0,0.0,0.0,0.0,0.0,0.0,0.0,0.0,0.0,0.0,0.0,0.0,0.0,0.0,0.0,0.0,0.0,0.0,0.0,0.0,0.0,0.0,0.0,0.0,0.0,0.0,0.0,0.0,0.0,0.0,0.0,0.0,0.0,0.0,0.0,0.0,0.0,0.0,0.0,0.0,0.0,0.0,0.0,0.0,0.0,0.0,0.0,0.0,0.0,0.0,0.0,0.0,0.0,0.0,0.0,0.0,0.0,0.0,0.0,0.0,0.0,0.0,0.0,0.0,0.0,0.0,0.0,0.0,0.0,0.0,0.0,0.0,0.0,0.0,0.0,0.0,0.0,0.0,0.0,0.0,0.0,0.0,0.0,0.0,0.0,0.0,-5.848,-5.7981,-5.7438,-5.6844,-5.6844,-5.6575,-5.6032,0.0,0.0,0.0,0.0,0.0,0.0,0.0,0.0,0.0,0.0,0.0,0.0,0.0,0.0,0.0,0.0,0.0,0.0,0.0,0.0,0.0,0.0,0.0,0.0,0.0,0.0,0.0,0.0,0.0,0.0,0.0,0.0,0.0,0.0,0.0,0.0,0.0,0.0,0.0,0.0,0.0,0.0,0.0,0.0,0.0,0.0,0.0,0.0,0.0,0.0,0.0,0.0,0.0,0.0,0.0,0.0,0.0,0.0,0.0,0.0,0.0,0.0,0.0,0.0,0.0,0.0,0.0,0.0,0.0,0.0,0.0,0.0,0.0,0.0,0.0,0.0,0.0,0.0,0.0,0.0,0.0,0.0,0.0,0.0,0.0,0.0,0.0,0.0,0.0,0.0,0.0,0.0,0.0,0.0,0.0,0.0,0.0,0.0,0.0,0.0,0.0,0.0,0.0,0.0,0.0,0.0,0.0,0.0,-5.519,-5.5109,-5.5109,-5.5153,-5.5112,-5.515,0.0,0.0,0.0,0.0,0.0,0.0,0.0,0.0,0.0,0.0,0.0,0.0,0.0,0.0,0.0,0.0,0.0,0.0,0.0,0.0,0.0,0.0,0.0,0.0,0.0,0.0,0.0,0.0,0.0,0.0,0.0,0.0,0.0,0.0,0.0,0.0,0.0,0.0,0.0,0.0,0.0,0.0,0.0,0.0,0.0,0.0,0.0,0.0,0.0,0.0,0.0,0.0,0.0,0.0,0.0,0.0,0.0,0.0,0.0,0.0,0.0,0.0,0.0,0.0,0.0,0.0,0.0,0.0,0.0,0.0,0.0,0.0,0.0,0.0,0.0,0.0,0.0,0.0,0.0,0.0,0.0,0.0,0.0,0.0,0.0,0.0,0.0,0.0,0.0,0.0,0.0,0.0,0.0,0.0,0.0,0.0,0.0,0.0,0.0,0.0,0.0,0.0,0.0,0.0,0.0,0.0,0.0,0.0,0.0,-5.3325,-5.2621,-5.2862,-5.4108,-5.4177,-5.4459,0.0,0.0,0.0,0.0,0.0,0.0,0.0,0.0,0.0,0.0,0.0,0.0,0.0,0.0,0.0,0.0,0.0,0.0,0.0,0.0,0.0,0.0,0.0,0.0,0.0,0.0,0.0,0.0,0.0,0.0,0.0,0.0,0.0,0.0,0.0,0.0,0.0,0.0,0.0,0.0,0.0,0.0,0.0,0.0,0.0,0.0,0.0,0.0,0.0,0.0,0.0,0.0,0.0,0.0,0.0,0.0,0.0,0.0,0.0,0.0,0.0,0.0,0.0,0.0,0.0,0.0,0.0,0.0,0.0,0.0,0.0,0.0,0.0,0.0,0.0,0.0,0.0,0.0,0.0,0.0,0.0,0.0,0.0,0.0,0.0,0.0,0.0,0.0,0.0,0.0,0.0,0.0,0.0,0.0,0.0,0.0,0.0,0.0,0.0,0.0,0.0,0.0,0.0,0.0,0.0,0.0,0.0,0.0,-5.3338,-5.2052,-5.1364,-5.1632,-5.2903,-5.3028,-5.3469,0.0,0.0,0.0,0.0,0.0,0.0,0.0,0.0,0.0,0.0,0.0,0.0,0.0,0.0,0.0,0.0,0.0,0.0,0.0,0.0,0.0,0.0,0.0,0.0,0.0,0.0,0.0,0.0,0.0,0.0,0.0,0.0,0.0,0.0,0.0,0.0,0.0,0.0,0.0,0.0,0.0,0.0,0.0,0.0,0.0,0.0,0.0,0.0,0.0,0.0,0.0,0.0,0.0,0.0,0.0,0.0,0.0,0.0,0.0,0.0,0.0,0.0,0.0,0.0,0.0,0.0,0.0,0.0,0.0,0.0,0.0,0.0,0.0,0.0,0.0,0.0,0.0,0.0,0.0,0.0,0.0,0.0,0.0,0.0,0.0,0.0,0.0,0.0,0.0,0.0,0.0,0.0,0.0,0.0,0.0,0.0,0.0,0.0,0.0,0.0,0.0,0.0,0.0,0.0,0.0,0.0,0.0,0.0,-5.294,-5.1337,-5.1075,-5.1215,-5.1736,-5.1923,-5.2369,0.0,0.0,0.0,0.0,0.0,0.0,0.0,0.0,0.0,0.0,0.0,0.0,0.0,0.0,0.0,0.0,0.0,0.0,0.0,0.0,0.0,0.0,0.0,0.0,0.0,0.0,0.0,0.0,0.0,0.0,0.0,0.0,0.0,0.0,0.0,0.0,0.0,0.0,0.0,0.0,0.0,0.0,0.0,0.0,0.0,0.0,0.0,0.0,0.0,0.0,0.0,0.0,0.0,0.0,0.0,0.0,0.0,0.0,0.0,0.0,0.0,0.0,0.0,0.0,0.0,0.0,0.0,0.0,0.0,0.0,0.0,0.0,0.0,0.0,0.0,0.0,0.0,0.0,0.0,0.0,0.0,0.0,0.0,0.0,0.0,0.0,0.0,0.0,0.0,0.0,0.0,0.0,0.0,0.0,0.0,0.0,0.0,0.0,0.0,0.0,0.0,0.0,0.0,0.0,0.0,0.0,0.0,0.0,-5.2469,-5.1953,-5.2164,-5.2173,-5.1934,-5.1117,-5.1369,0.0,0.0,0.0,0.0,0.0,0.0,0.0,0.0,0.0,0.0,0.0,0.0,0.0,0.0,0.0,0.0,0.0,0.0,0.0,0.0,0.0,0.0,0.0,0.0,0.0,0.0,0.0,0.0,0.0,0.0,0.0,0.0,0.0,0.0,0.0,0.0,0.0,0.0,0.0,0.0,0.0,0.0,0.0,0.0,0.0,0.0,0.0,0.0,-7.1989,0.0,0.0,0.0,0.0,0.0,0.0,0.0,0.0,0.0,0.0,0.0,0.0,0.0,0.0,0.0,0.0,0.0,0.0,0.0,0.0,0.0,0.0,0.0,0.0,0.0,0.0,0.0,0.0,0.0,0.0,0.0,0.0,0.0,0.0,0.0,0.0,0.0,0.0,0.0,0.0,0.0,0.0,0.0,0.0,0.0,0.0,0.0,0.0,0.0,0.0,0.0,0.0,0.0,0.0,0.0,0.0,0.0,0.0,0.0,-5.1717,-5.191,-5.1767,-5.1888,-5.2118,-5.1024,-5.1013,0.0,0.0,0.0,0.0,0.0,0.0,0.0,0.0,0.0,0.0,0.0,0.0,0.0,0.0,0.0,0.0,0.0,0.0,0.0,0.0,0.0,0.0,0.0,0.0,0.0,0.0,0.0,0.0,0.0,0.0,0.0,0.0,0.0,0.0,0.0,0.0,0.0,0.0,0.0,0.0,0.0,0.0,0.0,0.0,0.0,0.0,0.0,0.0,0.0,0.0,0.0,0.0,0.0,0.0,0.0,0.0,0.0,0.0,0.0,0.0,0.0,0.0,0.0,0.0,0.0,0.0,0.0,0.0,0.0,0.0,0.0,0.0,0.0,0.0,0.0,0.0,0.0,0.0,0.0,0.0,0.0,0.0,0.0,0.0,0.0,0.0,0.0,0.0,0.0,0.0,0.0,0.0,0.0,0.0,0.0,0.0,0.0,0.0,0.0,0.0,0.0,0.0,0.0,0.0,0.0,0.0,0.0,-5.147,-5.1316,-5.177,-5.1319,-5.1466,-5.2382,-5.1357,-5.1072,-5.1734,0.0,0.0,0.0,0.0,0.0,0.0,0.0,0.0,0.0,0.0,0.0,0.0,0.0,0.0,0.0,0.0,0.0,0.0,0.0,0.0,0.0,0.0,0.0,0.0,0.0,0.0,0.0,0.0,0.0,0.0,0.0,0.0,0.0,0.0,0.0,0.0,0.0,0.0,-7.2303,-7.2109,0.0,0.0,0.0,0.0,0.0,0.0,0.0,0.0,-7.177,0.0,0.0,0.0,0.0,0.0,0.0,0.0,0.0,0.0,0.0,0.0,0.0,0.0,0.0,0.0,0.0,0.0,0.0,0.0,0.0,0.0,0.0,0.0,0.0,0.0,0.0,0.0,0.0,0.0,0.0,0.0,0.0,0.0,0.0,0.0,0.0,0.0,0.0,0.0,0.0,0.0,0.0,0.0,0.0,0.0,0.0,0.0,0.0,0.0,0.0,0.0,0.0,0.0,0.0,0.0,0.0,-5.1083,-5.1992,-5.2388,-5.2194,-5.2694,-5.2819,-5.2541,-5.1927,-5.1519,-5.1438,0.0,0.0,0.0,0.0,0.0,0.0,0.0,0.0,0.0,0.0,0.0,0.0,0.0,0.0,0.0,0.0,0.0,0.0,0.0,0.0,0.0,0.0,0.0,0.0,0.0,0.0,0.0,0.0,0.0,0.0,0.0,0.0,0.0,0.0,0.0,0.0,0.0,0.0,0.0,-7.246,-7.1753,0.0,0.0,0.0,0.0,0.0,0.0,0.0,0.0,-7.1232,0.0,0.0,0.0,0.0,0.0,0.0,0.0,0.0,0.0,0.0,0.0,0.0,0.0,0.0,0.0,0.0,0.0,0.0,0.0,0.0,0.0,0.0,0.0,0.0,0.0,0.0,0.0,0.0,0.0,0.0,0.0,0.0,0.0,0.0,0.0,0.0,0.0,0.0,0.0,0.0,0.0,0.0,0.0,0.0,0.0,0.0,0.0,0.0,0.0,0.0,0.0,0.0,0.0,0.0,0.0,-5.1991,-5.182,-5.1954,-5.2333,-5.2227,-5.2017,-5.1718,-5.1465,-5.1286,0.0,0.0,0.0,0.0,0.0,0.0,0.0,0.0,0.0,0.0,0.0,0.0,0.0,0.0,0.0,0.0,0.0,0.0,0.0,0.0,0.0,0.0,0.0,0.0,0.0,0.0,0.0,0.0,0.0,0.0,0.0,0.0,0.0,0.0,0.0,0.0,0.0,0.0,0.0,0.0,-7.2132,-7.1104,-7.063,0.0,0.0,0.0,0.0,0.0,0.0,-7.0338,-7.0766,0.0,0.0,0.0,0.0,0.0,0.0,0.0,0.0,0.0,0.0,0.0,0.0,0.0,0.0,0.0,0.0,0.0,0.0,0.0,0.0,0.0,0.0,0.0,0.0,0.0,0.0,0.0,0.0,0.0,0.0,0.0,0.0,0.0,0.0,0.0,0.0,0.0,0.0,0.0,0.0,0.0,0.0,0.0,0.0,0.0,0.0,0.0,0.0,0.0,0.0,0.0,0.0,0.0,0.0,0.0,-5.2809,-5.1726,-5.149,-5.2159,-5.1442,-5.0901,-5.077,-5.0834,-5.0962,0.0,0.0,0.0,0.0,0.0,0.0,0.0,0.0,0.0,0.0,0.0,0.0,0.0,0.0,0.0,0.0,0.0,0.0,0.0,0.0,0.0,0.0,0.0,0.0,0.0,0.0,0.0,0.0,0.0,0.0,0.0,0.0,0.0,0.0,0.0,0.0,0.0,0.0,0.0,0.0,0.0,-7.0442,-7.0006,-6.9507,0.0,0.0,0.0,0.0,-6.8838,-6.9533,0.0,0.0,0.0,0.0,0.0,0.0,0.0,0.0,0.0,0.0,0.0,0.0,0.0,0.0,0.0,0.0,0.0,0.0,0.0,0.0,0.0,0.0,0.0,0.0,0.0,0.0,0.0,0.0,0.0,0.0,0.0,0.0,0.0,0.0,0.0,0.0,0.0,0.0,0.0,0.0,0.0,0.0,0.0,0.0,0.0,0.0,0.0,0.0,0.0,0.0,0.0,0.0,0.0,0.0,0.0,0.0,-5.2323,-5.2236,-5.2048,-5.171,-5.1155,-5.0753,-5.0404,-5.0818,-5.0967,0.0,0.0,0.0,0.0,0.0,0.0,0.0,0.0,0.0,0.0,0.0,0.0,0.0,0.0,0.0,0.0,0.0,0.0,0.0,0.0,0.0,0.0,0.0,0.0,0.0,0.0,0.0,0.0,0.0,0.0,0.0,0.0,0.0,0.0,0.0,0.0,0.0,0.0,0.0,0.0,0.0,-6.9924,-6.8423,-6.8656,-6.8953,0.0,0.0,0.0,-6.8578,-6.9219,0.0,0.0,0.0,0.0,0.0,0.0,0.0,0.0,0.0,0.0,0.0,0.0,0.0,0.0,0.0,0.0,0.0,0.0,0.0,0.0,0.0,0.0,0.0,0.0,0.0,0.0,0.0,0.0,0.0,0.0,0.0,0.0,0.0,0.0,0.0,0.0,0.0,0.0,0.0,0.0,0.0,0.0,0.0,0.0,0.0,0.0,0.0,0.0,0.0,0.0,0.0,0.0,0.0,0.0,0.0,-5.3252,-5.3053,-5.2345,-5.195,-5.2042,-5.1476,-5.1071,-5.0788,-5.1226,-5.1468,0.0,0.0,0.0,0.0,0.0,0.0,0.0,0.0,0.0,0.0,0.0,0.0,0.0,0.0,0.0,0.0,0.0,0.0,0.0,0.0,0.0,0.0,0.0,0.0,0.0,0.0,0.0,0.0,0.0,0.0,0.0,0.0,0.0,0.0,0.0,0.0,0.0,0.0,0.0,0.0,0.0,0.0,-6.8652,-6.8664,0.0,0.0,0.0,-6.9106,-6.903,0.0,0.0,0.0,0.0,0.0,0.0,0.0,0.0,0.0,0.0,0.0,0.0,0.0,0.0,0.0,0.0,0.0,0.0,0.0,0.0,0.0,0.0,0.0,0.0,0.0,0.0,0.0,0.0,0.0,0.0,0.0,0.0,0.0,0.0,0.0,0.0,0.0,0.0,0.0,0.0,0.0,0.0,0.0,0.0,0.0,0.0,0.0,0.0,0.0,0.0,0.0,0.0,0.0,0.0,0.0,0.0,0.0,-5.3906,-5.2742,-5.2282,-5.2537,-5.1765,-5.1261,-5.1119,-5.1515,0.0,0.0,0.0,0.0,0.0,0.0,0.0,0.0,0.0,0.0,0.0,0.0,0.0,0.0,0.0,0.0,0.0,0.0,0.0,0.0,0.0,0.0,0.0,0.0,0.0,0.0,0.0,-6.3262,0.0,0.0,0.0,0.0,0.0,0.0,0.0,0.0,0.0,0.0,0.0,0.0,0.0,0.0,-7.1145,-6.9593,-6.9253,-6.8938,0.0,0.0,-6.9861,-6.955,-6.9997,-7.0882,0.0,0.0,0.0,0.0,0.0,0.0,0.0,0.0,0.0,0.0,0.0,0.0,0.0,0.0,0.0,0.0,0.0,0.0,0.0,0.0,0.0,0.0,0.0,0.0,0.0,0.0,0.0,0.0,0.0,0.0,0.0,0.0,0.0,0.0,0.0,0.0,0.0,0.0,0.0,0.0,0.0,0.0,0.0,0.0,0.0,0.0,0.0,0.0,0.0,0.0,0.0,0.0,0.0,0.0,0.0,-5.4166,-5.3831,-5.3371,-5.296,-5.1821,-5.115,-5.0924,-5.1497,-5.1862,0.0,0.0,0.0,0.0,0.0,0.0,0.0,0.0,0.0,0.0,0.0,0.0,0.0,0.0,0.0,0.0,0.0,0.0,0.0,0.0,0.0,0.0,0.0,0.0,0.0,0.0,0.0,0.0,0.0,0.0,0.0,0.0,0.0,0.0,0.0,0.0,0.0,0.0,0.0,0.0,0.0,-7.2028,-7.1067,-7.0734,-7.0516,0.0,0.0,-7.0984,-6.9941,-7.1807,-7.3117,-7.2314,0.0,0.0,0.0,0.0,0.0,0.0,0.0,0.0,0.0,0.0,0.0,0.0,0.0,0.0,0.0,0.0,0.0,0.0,0.0,0.0,0.0,0.0,0.0,0.0,0.0,0.0,0.0,0.0,0.0,0.0,0.0,0.0,0.0,0.0,0.0,0.0,0.0,0.0,0.0,0.0,0.0,0.0,0.0,0.0,0.0,0.0,0.0,0.0,0.0,0.0,0.0,0.0,0.0,-5.5101,-5.4255,-5.3703,-5.3247,-5.2848,-5.2656,-5.2505,-5.2633,-5.3439,-5.4022,0.0,0.0,0.0,0.0,0.0,0.0,0.0,0.0,0.0,0.0,0.0,0.0,0.0,0.0,0.0,0.0,0.0,0.0,0.0,0.0,0.0,0.0,0.0,0.0,0.0,0.0,0.0,0.0,-6.5562,-6.6108,-6.6845,0.0,0.0,0.0,0.0,0.0,0.0,0.0,0.0,0.0,0.0,-7.336,-7.2467,-7.2054,0.0,0.0,-7.277,-7.3133,-7.3269,-7.365,-7.4212,-7.4846,-7.5183,0.0,0.0,0.0,0.0,0.0,0.0,0.0,0.0,0.0,0.0,0.0,0.0,0.0,0.0,0.0,0.0,0.0,0.0,0.0,0.0,0.0,0.0,0.0,0.0,0.0,0.0,0.0,0.0,0.0,0.0,0.0,0.0,0.0,0.0,0.0,0.0,0.0,0.0,0.0,0.0,0.0,0.0,0.0,0.0,0.0,0.0,0.0,0.0,0.0,0.0,0.0,0.0,-5.5494,-5.4811,-5.4282,-5.3871,-5.3751,-5.3788,-5.3914,-5.4023,-5.4667,-5.5324,0.0,0.0,0.0,0.0,0.0,0.0,0.0,0.0,0.0,0.0,0.0,0.0,0.0,0.0,0.0,0.0,0.0,0.0,0.0,0.0,0.0,0.0,0.0,0.0,0.0,0.0,0.0,0.0,-6.607,-6.6592,-6.6869,0.0,0.0,0.0,0.0,0.0,0.0,0.0,0.0,0.0,0.0,-7.4625,-7.415,-7.3739,-7.3747,-7.4481,-7.4681,-7.5009,-7.5632,-7.542,-7.5502,-7.6402,0.0,0.0,0.0,0.0,0.0,0.0,0.0,0.0,0.0,0.0,0.0,0.0,0.0,0.0,0.0,0.0,0.0,0.0,0.0,0.0,0.0,0.0,0.0,0.0,0.0,0.0,0.0,0.0,0.0,0.0,0.0,0.0,0.0,0.0,0.0,0.0,0.0,0.0,0.0,0.0,0.0,0.0,0.0,0.0,0.0,0.0,0.0,0.0,0.0,0.0,0.0,0.0,0.0,0.0,-5.5941,-5.5776,-5.5784,-5.5732,-5.5319,-5.4974,-5.4789,-5.4822,-5.5448,-5.6664,0.0,0.0,0.0,0.0,0.0,0.0,0.0,0.0,0.0,0.0,0.0,0.0,0.0,0.0,0.0,0.0,0.0,0.0,0.0,0.0,0.0,0.0,0.0,0.0,0.0,0.0,-6.6063,-6.6745,-6.6857,0.0,0.0,0.0,0.0,0.0,0.0,0.0,0.0,0.0,0.0,-7.4958,-7.5659,-7.6237,-7.6046,-7.6002,-7.6701,-7.6656,-7.6458,-7.6286,-7.708,-7.7354,0.0,0.0,0.0,0.0,0.0,0.0,0.0,0.0,0.0,0.0,0.0,0.0,0.0,0.0,0.0,0.0,0.0,0.0,0.0,0.0,0.0,0.0,0.0,0.0,0.0,0.0,0.0,0.0,-5.0262,0.0,0.0,0.0,0.0,0.0,0.0,0.0,0.0,0.0,0.0,0.0,-5.5537,-5.6176,0.0,0.0,0.0,0.0,0.0,0.0,0.0,0.0,0.0,0.0,0.0,0.0,-5.6921,-5.634,-5.6299,-5.6098,-5.5815,-5.5938,-5.5923,-5.5776,-5.6902,-5.7929,-5.8665,0.0,0.0,0.0,0.0,0.0,0.0,0.0,0.0,0.0,0.0,0.0,0.0,0.0,0.0,0.0,0.0,0.0,0.0,0.0,0.0,0.0,0.0,0.0,0.0,0.0,-6.6064,0.0,0.0,0.0,0.0,0.0,0.0,0.0,0.0,0.0,0.0,0.0,-7.3559,-7.5472,-7.5703,-7.6227,-7.7548,-7.6928,-7.6986,0.0,0.0,0.0,0.0,0.0,0.0,0.0,0.0,0.0,0.0,0.0,0.0,0.0,0.0,-8.434,-8.2803,-8.2542,-8.2542,-8.2542,0.0,0.0,0.0,0.0,0.0,0.0,0.0,0.0,0.0,0.0,0.0,0.0,0.0,0.0,0.0,0.0,-5.1851,0.0,0.0,0.0,0.0,0.0,0.0,0.0,0.0,-5.438,-5.5151,-5.5861,-5.6576,-5.7519,0.0,-5.8577,-5.8635,0.0,0.0,0.0,0.0,0.0,0.0,0.0,0.0,-5.7989,-5.7429,-5.7329,-5.7087,-5.6779,-5.7043,-5.7137,-5.7027,-5.854,-5.9665,-6.0098,-6.0035,-6.0058,0.0,0.0,0.0,0.0,0.0,0.0,0.0,0.0,0.0,0.0,0.0,0.0,0.0,0.0,0.0,0.0,0.0,0.0,0.0,0.0,0.0,0.0,0.0,-6.6277,0.0,0.0,0.0,0.0,0.0,0.0,0.0,0.0,0.0,-7.3568,-7.3496,-7.4258,-7.6384,-7.6667,-7.7175,-7.8527,0.0,0.0,0.0,0.0,0.0,0.0,0.0,-8.1139,-8.0898,-8.1196,-8.1418,-8.1319,-8.2167,-8.3035,-8.3576,0.0,0.0,-8.3238,-8.3285,-8.3398,-8.3133,-8.3928,-8.4685,-8.4685,-8.5782,-8.6566,0.0,0.0,0.0,0.0,0.0,0.0,0.0,0.0,-5.1731,-5.184,0.0,-5.2865,0.0,0.0,0.0,0.0,0.0,0.0,0.0,0.0,-5.6809,-5.7773,-5.7024,-5.7777,-5.8234,-5.8244,-5.8289,-5.8694,-5.9394,-5.8836,0.0,0.0,0.0,0.0,0.0,0.0,-5.9116,-5.9091,-5.8822,-5.8755,-5.8771,-5.8736,-5.8701,-5.8629,-5.9632,-6.0393,-6.1002,-6.0748,-6.0818,-6.1487,-6.0711,0.0,0.0,0.0,0.0,0.0,0.0,0.0,0.0,0.0,0.0,0.0,0.0,0.0,0.0,0.0,0.0,0.0,0.0,0.0,0.0,-6.649,0.0,0.0,0.0,0.0,0.0,0.0,0.0,0.0,0.0,0.0,-7.5051,-7.5053,-7.5542,-7.6998,0.0,0.0,0.0,0.0,-8.0461,-8.1156,-8.1139,-8.1037,-8.0867,-8.164,-8.1903,-8.0971,0.0,0.0,-8.136,-8.1992,-8.2751,-8.2819,-8.2984,-8.3237,-8.428,-8.5009,-8.5311,-8.4632,-8.4632,-8.4632,-8.4669,-8.5625,-8.6065,-5.3761,0.0,0.0,0.0,0.0,-5.2982,-5.3407,-5.4485,-5.3977,-5.4204,-5.495,-5.4652,0.0,0.0,0.0,0.0,0.0,0.0,-5.5846,-5.5988,-5.6667,-5.7097,-5.7437,-5.8154,-5.8823,-5.9493,-5.953,-5.9834,-6.0514,-5.9797,-5.97,-6.0286,0.0,0.0,0.0,0.0,-5.9536,-5.9126,-5.9376,-5.9652,-5.9909,-5.9909,-6.0497,-6.1884,-6.1253,-6.1441,-6.2683,-6.1564,-6.127,-6.1969,-6.1308,0.0,0.0,0.0,0.0,0.0,0.0,0.0,0.0,0.0,0.0,0.0,0.0,0.0,0.0,0.0,0.0,0.0,0.0,0.0,-6.7194,-6.7935,-6.8253,0.0,0.0,0.0,0.0,0.0,0.0,0.0,0.0,0.0,-7.7764,-7.6482,-7.6255,0.0,0.0,-7.9365,-8.0744,-8.1482,-8.1934,-8.2054,0.0,0.0,0.0,-8.3106,-8.283,-8.2511,-8.2293,-8.2109,-8.1941,-8.276,-8.3447,-8.3501,-8.429,-8.4796,-8.4469,-8.5022,-8.5423,-8.531,-8.6241,-8.7084,-8.716,-8.7763,-8.8291,-5.4733,-5.4977,-5.5047,-5.5067,-5.5,-5.429,-5.4569,-5.5456,-5.5049,-5.5249,-5.5965,-5.5866,-5.5758,-5.5606,-5.5135,0.0,0.0,0.0,-5.6418,-5.6712,-5.6831,-5.7275,-5.8006,-5.8455,-5.9124,-5.999,-5.9939,-6.0326,-6.1022,-6.0461,-6.0622,-6.136,0.0,0.0,-6.0176,-6.0382,-6.0428,-6.0264,-6.0537,-6.0879,-6.1453,-6.1422,-6.201,-6.3088,-6.247,-6.2506,-6.3438,-6.2761,-6.2465,-6.2658,-6.2433,-6.2535,0.0,0.0,0.0,0.0,0.0,0.0,0.0,0.0,0.0,0.0,0.0,-6.4879,0.0,0.0,0.0,0.0,-6.6674,-6.7331,-6.7763,-6.8803,0.0,0.0,0.0,0.0,0.0,0.0,0.0,-7.5318,-7.621,-7.7476,-7.9413,-7.8124,-7.7786,-7.9929,-8.0092,-8.0479,-8.1792,0.0,-8.2586,-8.278,-8.3172,-8.3616,-8.3967,-8.3892,-8.3802,-8.3839,-8.3189,-8.2818,-8.2947,-8.3485,-8.3998,-8.4139,-8.477,-8.5156,-8.4627,-8.5232,-8.5674,-8.5323,-8.6052,-8.6781,-8.677,-8.7663,-8.8456,-5.583,-5.6793,-5.6428,-5.6236,-5.6236,-5.5629,-5.5348,-5.5395,-5.5377,-5.5514,-5.5838,-5.6485,-5.6472,-5.5895,-5.6071,0.0,0.0,-5.6614,-5.6779,-5.652,-5.7242,-5.7949,-5.8553,-5.8625,-5.916,-6.0049,-5.9932,-6.0316,-6.1151,-6.1117,-6.186,-6.32,-6.1659,-6.1076,-6.153,-6.1507,-6.1748,-6.2098,-6.2098,-6.2462,-6.3187,-6.3222,-6.3222,-6.3329,-6.3431,-6.3668,-6.3885,-6.4086,-6.4033,-6.3584,-6.3884,-6.4278,-6.4487,0.0,0.0,0.0,0.0,0.0,0.0,0.0,0.0,0.0,0.0,0.0,0.0,0.0,0.0,0.0,-6.7381,0.0,-6.7753,-6.9271,0.0,0.0,0.0,-7.1482,-7.2195,-7.2982,-7.4287,-7.6572,0.0,0.0,0.0,0.0,-7.9842,-8.142,-8.1454,-8.1574,-8.2398,-8.2461,-8.2613,-8.3189,-8.3489,-8.3583,-8.3713,-8.4237,-8.4554,-8.4442,-8.4031,-8.3634,-8.3847,-8.4116,-8.4356,-8.4551,-8.4741,-8.4871,-8.4871,-8.5645,-8.6077,-8.522,-8.5212,-8.5242,-8.5451,-8.6577,-8.7674,-5.5883,-5.6671,-5.6753,-5.6884,-5.6985,-5.6767,-5.6794,-5.6891,-5.6988,-5.7158,-5.7397,-5.7061,-5.6544,-5.5908,-5.7118,-5.7169,-5.6475,-5.772,-5.7923,-5.7182,-5.7266,-5.7717,-5.8408,-5.7834,-5.8661,-6.0501,-6.0574,-6.1299,-6.2676,-6.3237,-6.3687,-6.3935,-6.3517,-6.3387,-6.3509,-6.3509,-6.3405,-6.3285,-6.3285,-6.3903,-6.5098,-6.5197,-6.5546,-6.6217,-6.5345,-6.4973,-6.5091,-6.4742,-6.4621,-6.4815,-6.4919,-6.5188,-6.5588,-6.5626,0.0,0.0,0.0,0.0,0.0,0.0,0.0,0.0,0.0,-6.6674,-6.7247,0.0,-6.7916,0.0,-6.7278,-6.8168,-6.9317,-6.9811,0.0,0.0,-7.1484,-7.2393,-7.3187,-7.3938,-7.5064,-7.691,-7.7198,-7.8134,-8.0349,-8.0462,-8.0725,-8.1743,-8.1169,-8.0905,-8.1731,-8.2291,-8.2613,-8.2835,-8.3321,-8.3882,-8.4588,-8.4576,-8.428,-8.3602,-8.3477,-8.35,-8.3548,-8.4183,-8.4694,-8.4741,-8.4961,-8.5094,-8.5132,-8.6032,-8.6734,-8.6617,-8.7285,-8.7984,-8.7977,-8.8737,-8.9421,-5.6223,-5.6812,-5.7329,-5.7629,-5.7833,-5.7782,-5.7601,-5.7424,-5.7847,-5.8019,-5.7886,-5.7601,-5.7271,-5.7007,-5.7818,-5.7876,-5.7446,-5.839,-5.8553,-5.8032,-5.7824,-5.8145,-5.8906,-5.85,-5.915,-6.088,-6.0917,-6.1388,-6.2277,-6.2767,-6.3148,-6.3401,-6.3708,-6.4033,-6.4452,-6.4224,-6.4171,-6.4315,-6.4674,-6.5284,-6.611,-6.6207,-6.6485,-6.6942,-6.6355,-6.6178,-6.6385,-6.6116,-6.5986,-6.597,-6.6072,-6.6273,-6.6537,-6.6052,-6.6095,0.0,0.0,0.0,0.0,0.0,0.0,0.0,0.0,0.0,0.0,0.0,-6.8879,0.0,-6.9046,0.0,-7.0422,-7.1255,-7.175,-7.1788,-7.2548,-7.3421,-7.418,-7.4895,-7.61,-7.8144,-7.8246,-7.9078,-8.1112,-8.0725,-8.0574,-8.1452,-8.0745,-8.064,-8.1934,-8.2331,-8.2542,-8.3298,-8.3763,-8.4229,-8.4959,-8.4805,-8.441,-8.3994,-8.3928,-8.4059,-8.415,-8.4626,-8.5018,-8.5224,-8.5655,-8.6044,-8.6083,-8.6891,-8.7619,-8.7734,-8.8458,-8.8981,-8.8667,-8.9239,-8.9768,-5.6812,-5.7057,-5.7794,-5.8239,-5.8492,-5.8609,-5.8246,-5.7655,-5.8274,-5.8263,-5.792,-5.7997,-5.8179,-5.8393,-5.8497,-5.8489,-5.8354,-5.9051,-5.9237,-5.8994,-5.8783,-5.906,-5.9844,-5.976,-6.0303,-6.1381,-6.1256,-6.1345,-6.1719,-6.1719,-6.2032,-6.2725,-6.3347,-6.4003,-6.4767,-6.4359,-6.4396,-6.5058,-6.5826,-6.6319,-6.6572,-6.6464,-6.6559,-6.6917,-6.7055,-6.721,-6.7451,-6.765,-6.7568,-6.716,-6.7222,-6.7369,-6.7486,-6.6299,-6.6036,0.0,-6.5765,0.0,0.0,0.0,0.0,0.0,0.0,0.0,0.0,-6.8341,-6.9798,-7.1254,-7.1331,-7.1332,-7.1333,-7.2812,-7.3533,-7.2998,-7.3495,-7.4257,-7.5171,-7.5816,-7.7062,-7.9453,-7.9718,-8.032,-8.1647,-8.0687,-8.0075,-8.0769,-8.0346,-8.0598,-8.2359,-8.2104,-8.2131,-8.3888,-8.4505,-8.4757,-8.4916,-8.4961,-8.493,-8.493,-8.4892,-8.5013,-8.511,-8.5273,-8.5433,-8.5705,-8.6393,-8.7043,-8.7081,-8.7848,-8.8537,-8.8614,-8.9266,-8.9497,-8.8688,-8.9029,-8.9367,-5.6984,-5.7224,-5.747,-5.7704,-5.8044,-5.9323,-5.9396,-5.8665,-5.8288,-5.8207,-5.8375,-5.8418,-5.8455,-5.8597,-5.9943,-5.9989,-5.9108,-6.0588,-6.0823,-5.9917,-5.9888,-6.0368,-6.1117,-6.0543,-6.1409,-6.3328,-6.2676,-6.3042,-6.4427,-6.4323,-6.438,-6.4526,-6.4725,-6.4872,0.0,0.0,0.0,0.0,-6.5475,-6.6198,-6.6831,-6.6365,-6.679,-6.8142,-6.7762,0.0,-6.781,-6.7915,-6.8084,-6.8185,-6.8197,0.0,0.0,0.0,0.0,0.0,0.0,0.0,0.0,0.0,0.0,0.0,-6.7807,-6.7992,-6.9508,-6.99,-7.0476,-7.1433,-7.1547,-7.1849,-7.2494,-7.2872,-7.3327,-7.3861,-7.4052,-7.474,-7.6191,-7.6537,-7.7264,-7.898,-7.9246,-7.9588,-8.0459,-8.0266,-8.019,-8.0383,-8.0228,-8.0611,-8.1801,-8.106,-8.0915,-8.2452,-8.4126,-8.5148,-8.519,-8.5433,-8.5552,-8.559,-8.559,-8.559,-8.5628,-8.5666,-8.5704,-8.5817,-8.6506,-8.7119,-8.7119,-8.8382,-8.9491,-8.953,-9.0219,-9.0565,-8.9573,-8.9956,-9.0569,-5.7506,0.0,-5.8555,-5.9152,0.0,-6.0639,-6.0845,-6.0535,-5.9674,-5.9034,-5.8561,-5.8486,-5.8784,-5.9413,-6.0194,-6.0401,-6.0293,-6.1495,-6.1739,-6.1163,-6.1017,-6.1263,-6.168,-6.1228,-6.1687,-6.2867,-6.2451,-6.2671,-6.3591,-6.3529,-6.3529,-6.3566,-6.3984,-6.4254,-6.4254,-6.4722,-6.4977,-6.4911,-6.5296,-6.5934,-6.6774,-6.6516,-6.699,-6.8272,0.0,0.0,0.0,0.0,0.0,0.0,0.0,0.0,0.0,0.0,0.0,-6.7201,-6.6937,-6.7007,-6.7601,-6.7707,-6.8117,-6.9055,-6.9475,-7.0086,-7.0964,-7.0968,-7.1468,-7.2688,-7.2872,-7.3059,-7.3476,-7.3997,-7.4604,-7.5446,-7.5595,-7.6317,-7.785,-7.8122,-7.8585,-7.9662,-7.993,-8.0084,-8.0468,-8.043,-8.043,-8.0506,-8.0468,-8.0583,-8.1077,-8.0965,-8.138,-8.3135,-8.4551,-8.5511,-8.5552,-8.5666,-8.5815,-8.5777,-8.5777,-8.5852,-8.5887,-8.5887,-8.5887,-8.6,-8.6995,-8.7763,-8.7456,-8.8679,-8.9902,-8.994,-9.0355,-9.0543,-9.0017,-9.0449,-9.0915,-5.8057,-5.8969,-5.9761,-6.0687,-6.1698,-6.1808,-6.2013,-6.216,0.0,0.0,0.0,-5.887,-5.9395,-6.0479,-6.0476,-6.0841,-6.1544,-6.2227,-6.253,-6.2409,-6.2242,-6.2146,-6.2175,-6.2064,-6.2085,-6.216,-6.215,-6.2234,-6.2336,-6.2336,-6.229,-6.2364,-6.3002,-6.3382,-6.3548,-6.4233,-6.4763,-6.4954,-6.5087,-6.5492,-6.6234,-6.6421,-6.6877,-6.7728,-6.8011,-6.7773,-6.7067,-6.7207,-6.6963,-6.65,-6.6555,-6.6678,-6.6954,-6.6325,-6.6104,-6.6484,-6.648,-6.6581,-6.694,-6.7616,-6.8521,-6.954,-7.0948,-7.168,-7.1617,-7.1918,-7.2681,-7.4091,-7.4389,-7.4494,-7.4533,-7.5239,-7.6025,-7.6754,-7.7047,-7.777,-7.923,-7.9588,-7.9791,-8.0635,-8.0754,-8.0792,-8.0792,-8.0723,-8.0685,-8.0758,-8.0688,-8.0685,-8.0907,-8.1492,-8.2528,-8.4169,-8.5204,-8.5854,-8.5815,-8.5852,-8.5852,-8.5887,-8.5887,-8.5887,-8.5992,-8.6065,-8.6099,-8.6126,-8.7473,-8.7974,-8.7699,-8.8694,-8.9729,-8.9877,-8.9909,-8.9972,-8.9979,-9.0312,-9.0485,-5.8344,-5.9348,-5.9458,-6.0112,-6.1189,-6.1855,-6.2234,-6.2242,-6.0685,-6.0364,-6.0896,-6.0285,-6.0516,-6.1375,-6.2248,-6.2545,-6.2407,-6.3252,-6.3654,0.0,-6.3542,-6.3551,-6.3611,-6.3568,-6.3606,-6.36,-6.355,-6.355,-6.3637,-6.355,-6.3505,-6.355,-6.3705,-6.383,-6.383,-6.3941,-6.4053,-6.4078,-6.4642,-6.4911,-6.5069,-6.5097,-6.5514,-6.6407,-6.6528,-6.6545,-6.6523,-6.6612,-6.6668,-6.6641,-6.6767,-6.7228,-6.799,-6.7429,-6.7505,-6.8186,-6.7794,-6.7888,-6.8646,-6.8902,-6.9693,-7.1145,-7.1631,-7.1778,-7.1816,-7.3155,-7.4178,-7.4535,-7.518,-7.5672,-7.5733,-7.584,-7.6053,-7.6303,-7.689,-7.7669,-7.8767,-7.9438,-8.0107,-8.0811,-8.0855,-8.0855,-8.0826,-8.0792,-8.0792,-8.0792,-8.0826,-8.0826,-8.1162,-8.216,-8.3393,-8.4468,-8.5382,-8.5877,-8.5958,-8.5992,-8.6026,-8.606,-8.606,-8.6094,-8.6159,-8.6153,-8.6191,-8.6323,-8.7172,-8.7596,-8.7519,-8.8359,-8.8938,-8.9054,-8.9085,-8.9085,-8.9115,-8.9169,-8.8945,-5.9274,-6.0149,-6.072,-6.1567,-6.2569,-6.2947,-6.3163,-6.3074,-6.1949,-6.1353,-6.1267,-6.0986,-6.1375,-6.2283,-6.2776,-6.3188,-6.3518,-6.3941,-6.4125,-6.407,-6.4053,-6.4056,-6.4012,-6.4019,-6.3978,-6.3883,-6.3958,-6.3953,-6.3915,-6.3873,-6.3867,-6.3867,-6.4037,-6.4162,-6.4166,-6.4247,-6.4247,-6.4166,-6.4289,-6.4525,-6.4972,-6.5105,-6.5522,-6.6292,-6.6918,-6.7048,-6.6598,-6.7138,-6.73,-6.6927,-6.7049,-6.7354,-6.7732,-6.7616,-6.7759,-6.8139,-6.8388,-6.8717,-6.9098,-7.0042,-7.091,-7.1707,-7.2658,-7.322,-7.3315,-7.4044,-7.4727,-7.5242,-7.5733,-7.5985,-7.6034,-7.6034,-7.6409,-7.7417,-7.7852,-7.8623,-7.9808,-8.0357,-8.0722,-8.1008,-8.1054,-8.1054,-8.1023,-8.0991,-8.1023,-8.1054,-8.1085,-8.1239,-8.1693,-8.2394,-8.3208,-8.3994,-8.5176,-8.5978,-8.6055,-8.6126,-8.6191,-8.6223,-8.6261,-8.6293,-8.6285,-8.6285,-8.6315,-8.6461,-8.7078,-8.7348,-8.7117,-8.7687,-8.818,-8.8296,-8.8325,-8.8354,-8.8316,-8.7698,-8.7128,-5.9915,-6.1011,-6.173,-6.2717,-6.3786,-6.391,-6.3941,-6.381,-6.3275,-6.2603,-6.1954,-6.1778,-6.2197,-6.311,-6.3188,-6.3603,-6.4247,-6.4359,-6.4362,-6.4364,-6.4362,-6.4284,-6.4249,-6.4218,-6.4179,-6.4053,-6.4169,-6.4162,-6.4083,-6.4042,-6.4042,-6.4083,-6.4284,-6.4403,-6.4481,-6.4558,-6.4558,-6.4443,-6.4397,-6.4612,-6.5057,-6.5328,-6.5741,-6.6293,-6.7334,-6.7567,-6.6886,-6.765,-6.7806,-6.724,-6.739,-6.7576,-6.7728,-6.7908,-6.8088,-6.8388,-6.9027,-6.9513,-6.9813,-7.0986,-7.1937,-7.2416,-7.3674,-7.458,-7.4827,-7.4926,-7.5157,-7.581,-7.5947,-7.6111,-7.6398,-7.6426,-7.7032,-7.8513,-7.8899,-7.9478,-8.0779,-8.1175,-8.1263,-8.1244,-8.1205,-8.1244,-8.1244,-8.1244,-8.1244,-8.1263,-8.1291,-8.16,-8.2179,-8.2459,-8.2862,-8.3464,-8.4626,-8.5427,-8.5645,-8.5599,-8.5707,-8.6037,-8.6075,-8.6152,-8.6268,-8.6414,-8.6414,-8.652,-8.6906,-8.7061,-8.6636,-8.6974,-8.7456,-8.7533,-8.7561,-8.7588,-8.7511,-8.6467,-8.5732,-5.9942,-6.133,-6.1595,-6.2454,-6.3835,-6.3915,-6.3915,-6.392,-6.393,-6.3975,-6.3678,-6.3072,-6.3222,-6.3934,-6.4094,-6.4209,-6.4284,-6.4359,-6.4403,-6.4407,-6.4554,-6.4587,-6.4552,-6.4558,-6.4521,-6.452,-6.4558,-6.4558,-6.452,-6.452,-6.4558,-6.4558,-6.4558,-6.4596,-6.4596,-6.4634,-6.4596,-6.4596,-6.5427,-6.5427,-6.4747,-6.5388,-6.5803,-6.5878,-6.6785,-6.7201,-6.7203,-6.7354,-6.7502,-6.746,-6.7642,-6.8019,-6.8662,-6.8883,-6.9294,-6.998,-7.02,-7.0642,-7.1434,-7.1733,-7.2493,-7.4012,-7.4413,-7.4943,-7.5664,-7.5802,-7.5899,-7.6015,-7.6034,-7.6398,-7.7169,-7.7329,-7.7768,-7.8825,-7.9493,-8.0007,-8.0331,-8.0856,-8.1291,-8.1291,-8.1291,-8.133,-8.1291,-8.133,-8.1291,-8.1319,-8.1347,-8.1424,-8.1617,-8.2119,-8.2516,-8.2776,-8.3479,-8.401,-8.4156,-8.4069,-8.4609,-8.5179,-8.5304,-8.5709,-8.6268,-8.6528,-8.65,-8.6583,-8.6687,-8.6764,-8.666,-8.6699,-8.6764,-8.6892,-8.688,-8.6764,-8.6648,-8.6068,-8.5681,-6.0481,-6.1609,-6.2173,-6.3116,-6.4131,-6.4287,-6.4324,-6.4324,-6.4326,-6.4367,-6.4369,-6.4029,-6.4026,-6.4287,-6.4443,-6.4481,-6.4481,-6.4556,-6.4557,-6.4521,-6.4634,-6.4634,-6.4633,-6.4632,-6.4628,-6.4693,-6.4739,-6.4781,-6.4781,-6.4781,-6.4781,-6.4815,-6.4815,-6.4815,-6.4891,-6.5417,-6.5644,-6.5611,-6.6514,-6.6815,-6.6514,-6.6633,-6.6749,-6.6824,-6.7656,-6.811,-6.8223,-6.8749,-6.9051,-6.9122,-6.9192,-6.9379,-6.9683,-6.9823,-7.0009,-7.0315,-7.049,-7.0898,-7.1873,-7.2333,-7.32,-7.449,-7.5058,-7.558,-7.5917,-7.6044,-7.6062,-7.6062,-7.609,-7.6465,-7.7356,-7.7563,-7.8155,-7.9365,-7.9958,-8.0306,-8.0873,-8.1234,-8.14,-8.1374,-8.14,-8.1427,-8.1427,-8.1478,-8.1528,-8.1528,-8.1504,-8.1478,-8.1528,-8.1838,-8.1968,-8.2097,-8.2355,-8.2973,-8.3656,-8.4403,-8.4777,-8.5256,-8.5785,-8.6352,-8.6507,-8.6687,-8.6687,-8.6713,-8.6761,-8.6737,-8.6687,-8.6713,-8.6713,-8.6687,-8.6662,-8.6662,-8.661,-8.6365,-8.6159,-6.0792,-6.1844,-6.2934,-6.3802,-6.4445,-6.4521,-6.4596,-6.4634,-6.4596,-6.4633,-6.4632,-6.4633,-6.4634,-6.4558,-6.4596,-6.4596,-6.4634,-6.4671,-6.4709,-6.4709,-6.4743,-6.4775,-6.4775,-6.4772,-6.4951,-6.5133,-6.5293,-6.5448,-6.5638,-6.5641,-6.5676,-6.5745,-6.5745,-6.5745,-6.5783,-6.6459,-6.6726,-6.6768,-6.7597,-6.805,-6.8088,-6.8174,-6.8066,-6.7916,-6.8711,-6.9201,-6.9201,-6.988,-7.022,-7.0255,-7.0286,-7.0319,-7.0319,-7.0386,-7.0483,-7.0477,-7.0379,-7.0938,-7.2293,-7.2754,-7.3581,-7.4899,-7.5668,-7.6005,-7.609,-7.6145,-7.6198,-7.6225,-7.6198,-7.6675,-7.773,-7.7974,-7.8757,-8.0353,-8.0585,-8.0895,-8.1437,-8.1553,-8.1528,-8.1504,-8.1528,-8.1553,-8.1577,-8.1624,-8.1669,-8.1669,-8.1646,-8.1646,-8.1691,-8.1669,-8.1646,-8.1685,-8.1713,-8.2178,-8.3203,-8.3914,-8.466,-8.5312,-8.5785,-8.6366,-8.6738,-8.6816,-8.6816,-8.6816,-8.686,-8.686,-8.6793,-8.6793,-8.6793,-8.6723,-8.6723,-8.6747,-8.6723,-8.6747,-8.6723,-6.0599,-6.2257,-6.3842,-6.452,-6.4595,-6.4634,-6.4596,-6.4596,-6.467,-6.4707,-6.4743,-6.4817,-6.4853,-6.4853,-6.4671,-6.4596,-6.4596,-6.4671,-6.4747,-6.486,-6.4931,-6.5002,-6.5189,-6.5061,-6.5432,-6.6155,-6.6307,-6.6683,-6.7431,-6.7478,-6.7559,-6.7521,-6.7445,-6.7483,-6.7406,-6.7554,-6.7635,-6.7669,-6.8536,-6.9027,-6.9141,-6.9818,-6.9709,-6.904,-6.9652,-7.0106,-7.0175,-7.0286,-7.0319,-7.0386,-7.0419,-7.0419,-7.0419,-7.0483,-7.0647,-7.0681,-7.0113,-7.0848,-7.2904,-7.2866,-7.3562,-7.571,-7.6173,-7.6301,-7.635,-7.635,-7.6397,-7.6466,-7.6466,-7.7063,-7.8534,-7.8773,-7.9653,-8.1243,-8.1575,-8.1613,-8.1652,-8.1691,-8.1691,-8.1669,-8.1691,-8.1691,-8.1691,-8.1691,-8.1713,-8.1713,-8.1691,-8.1713,-8.1713,-8.1695,-8.1734,-8.1734,-8.1698,-8.1757,-8.1902,-8.2909,-8.3691,-8.4415,-8.5388,-8.5988,-8.6495,-8.6904,-8.6904,-8.6904,-8.6924,-8.6924,-8.6904,-8.6884,-8.6884,-8.6863,-8.6842,-8.6863,-8.6821,-8.6863,-8.6863,-6.0736,-6.2432,-6.4062,-6.4817,-6.4779,-6.4781,-6.4781,-6.4781,-6.4817,-6.4853,-6.4853,-6.4853,-6.4926,-6.4888,-6.4817,-6.4781,-6.4781,-6.485,-6.4891,-6.5044,-6.5597,-6.5597,-6.5338,-6.6184,-6.6548,-6.6516,-6.7049,-6.7463,-6.7757,-6.7833,-6.7801,-6.7801,-6.7839,-6.7572,-6.7305,-6.8145,-6.8444,-6.8165,-6.9343,-7.0101,-7.0126,-7.0425,-7.0394,-7.0063,-7.0233,-7.0319,-7.0353,-7.0457,-7.049,-7.0522,-7.0609,-7.0669,-7.0669,-7.0729,-7.0815,-7.0964,-7.1236,-7.202,-7.3407,-7.392,-7.4741,-7.6079,-7.6374,-7.6374,-7.6397,-7.6444,-7.6488,-7.6493,-7.6575,-7.737,-7.8671,-7.9135,-7.9812,-8.1307,-8.1716,-8.1716,-8.1757,-8.1757,-8.1757,-8.1757,-8.1757,-8.1757,-8.1796,-8.1834,-8.1834,-8.1796,-8.1796,-8.1776,-8.1835,-8.1835,-8.1854,-8.1893,-8.189,-8.1898,-8.1875,-8.259,-8.3426,-8.4318,-8.5192,-8.6047,-8.6648,-8.6959,-8.6998,-8.6998,-8.7016,-8.7055,-8.6998,-8.6962,-8.6943,-8.6943,-8.6943,-8.6962,-8.6904,-8.6962,-8.6943,-6.1363,-6.261,-6.4275,-6.4993,-6.5031,-6.4993,-6.5031,-6.5031,-6.5259,-6.5262,-6.5072,-6.5262,-6.5262,-6.5034,-6.5034,-6.5148,-6.5335,-6.5141,-6.5027,-6.5145,-6.5732,-6.5737,-6.5593,-6.6733,-6.7309,-6.7279,-6.8203,-6.8769,-6.8794,-6.8794,-6.8832,-6.8832,-6.8832,-6.8411,-6.7952,-6.9023,-6.9322,-6.8931,-6.9927,-7.0647,-7.0708,-7.0708,-7.0737,-7.0699,-7.0609,-7.0515,-7.0515,-7.0585,-7.0647,-7.0678,-7.0767,-7.0815,-7.0898,-7.0979,-7.1056,-7.1207,-7.1703,-7.26,-7.369,-7.4392,-7.5249,-7.6355,-7.6471,-7.6493,-7.6573,-7.6594,-7.6633,-7.6651,-7.6726,-7.7493,-7.8815,-7.9269,-7.9913,-8.1426,-8.1815,-8.1815,-8.1852,-8.189,-8.1852,-8.1869,-8.1869,-8.1852,-8.189,-8.1929,-8.1947,-8.1947,-8.1908,-8.1869,-8.1926,-8.1926,-8.1947,-8.1986,-8.1975,-8.1998,-8.1987,-8.2411,-8.2987,-8.3836,-8.5082,-8.5992,-8.6592,-8.6903,-8.7137,-8.7137,-8.7137,-8.7121,-8.7105,-8.7016,-8.6998,-8.6998,-8.7033,-8.7066,-8.705,-8.7033,-8.7033,-6.2515,-6.2834,-6.4448,-6.5123,-6.5155,-6.5161,-6.5199,-6.5313,-6.5922,-6.5775,-6.5289,-6.5973,-6.5821,-6.5323,-6.528,-6.566,-6.596,-6.5427,-6.5204,-6.5389,-6.5422,-6.546,-6.5536,-6.6613,-6.7582,-6.8318,-6.9873,-7.0584,-7.046,-7.0431,-7.0439,-7.0554,-7.0439,-6.9941,-6.9327,-7.0085,-7.0239,-6.974,-7.0268,-7.0729,-7.0737,-7.0767,-7.0787,-7.0815,-7.0815,-7.0787,-7.0699,-7.0699,-7.0729,-7.0815,-7.0815,-7.0898,-7.1106,-7.1178,-7.1286,-7.1472,-7.1571,-7.2425,-7.382,-7.4208,-7.5197,-7.634,-7.6708,-7.6743,-7.6793,-7.6864,-7.6864,-7.6879,-7.6918,-7.7555,-7.8917,-7.9345,-8.0069,-8.1641,-8.1975,-8.1975,-8.1959,-8.1975,-8.1991,-8.1991,-8.1975,-8.1991,-8.1991,-8.1975,-8.1975,-8.1975,-8.1975,-8.1975,-8.1991,-8.1991,-8.1991,-8.1991,-8.1998,-8.2052,-8.2077,-8.2167,-8.265,-8.3286,-8.4727,-8.5857,-8.6312,-8.6663,-8.7092,-8.7209,-8.7195,-8.7195,-8.7167,-8.7098,-8.7113,-8.7113,-8.7181,-8.7181,-8.7181,-8.7167,-8.7181,-6.2085,-6.2699,-6.3834,-6.4679,-6.5214,-6.5245,-6.5258,-6.5296,-6.5563,-6.5427,-6.5399,-6.6045,-6.5982,-6.5558,-6.5894,-6.6085,-6.5847,-6.5609,-6.5711,-6.6129,-6.616,-6.5925,-6.5948,-6.7554,-6.902,-6.9884,-7.0489,-7.0787,-7.0843,-7.0843,-7.0843,-7.0843,-7.0843,-7.0409,-6.9667,-7.0398,-7.0502,-6.9951,-7.0607,-7.1056,-7.1133,-7.112,-7.113,-7.1154,-7.1154,-7.113,-7.113,-7.103,-7.1005,-7.1081,-7.1178,-7.1269,-7.1334,-7.1415,-7.1706,-7.2366,-7.2967,-7.3741,-7.4826,-7.5543,-7.6099,-7.6731,-7.6809,-7.6864,-7.6894,-7.6894,-7.6908,-7.6883,-7.6936,-7.7403,-7.8442,-7.9144,-8.0182,-8.1842,-8.1998,-8.1998,-8.2012,-8.1948,-8.2012,-8.1998,-8.1983,-8.2022,-8.1968,-8.1952,-8.189,-8.2007,-8.2022,-8.1998,-8.1998,-8.2039,-8.2065,-8.2052,-8.2077,-8.2089,-8.2101,-8.2101,-8.2374,-8.2908,-8.4116,-8.5312,-8.5843,-8.644,-8.6908,-8.7259,-8.7247,-8.7234,-8.7222,-8.7222,-8.7222,-8.7222,-8.7209,-8.7222,-8.7234,-8.7247,-8.7234,-6.201,-6.2879,-6.3719,-6.4603,-6.5388,-6.5397,-6.5413,-6.5452,-6.5779,-6.5918,-6.6058,-6.6771,-6.6889,-6.6633,-6.7034,-6.7215,-6.7034,-6.6857,-6.7044,-6.734,-6.659,-6.6093,-6.5971,-6.7972,-6.9759,-7.0733,-7.0925,-7.0952,-7.1005,-7.103,-7.103,-7.1056,-7.1056,-7.0618,-6.9972,-7.0628,-7.0744,-7.015,-7.0776,-7.1263,-7.1263,-7.1308,-7.1313,-7.1313,-7.1334,-7.1394,-7.1415,-7.1352,-7.1308,-7.1291,-7.1394,-7.1475,-7.1513,-7.1532,-7.1938,-7.2828,-7.3678,-7.4528,-7.5416,-7.6265,-7.684,-7.6869,-7.6908,-7.6922,-7.6936,-7.6936,-7.6949,-7.6923,-7.6962,-7.7326,-7.8195,-7.9026,-8.0104,-8.1364,-8.187,-8.2039,-8.1948,-8.0896,-8.0572,-8.0598,-8.0429,-8.0532,-8.0907,-8.1116,-8.1428,-8.1792,-8.2052,-8.2065,-8.2077,-8.2112,-8.2112,-8.2101,-8.2101,-8.2073,-8.2073,-8.2123,-8.2162,-8.2669,-8.342,-8.4412,-8.5203,-8.6033,-8.6629,-8.7125,-8.7281,-8.7281,-8.7259,-8.7259,-8.7259,-8.7247,-8.7234,-8.7259,-8.727,-8.727,-8.727,-6.2202,-6.3149,-6.397,-6.4764,-6.5559,-6.5569,-6.5608,-6.5751,-6.6419,-6.6748,-6.6978,-6.7755,-6.8213,-6.8256,-6.8244,-6.8655,-6.9258,-6.8565,-6.8488,-6.8487,-6.739,-6.6356,-6.6758,-6.8219,-6.9692,-7.0913,-7.1106,-7.1154,-7.1224,-7.1224,-7.1247,-7.1291,-7.1253,-7.0965,-7.0501,-7.0965,-7.0965,-7.0483,-7.0986,-7.1334,-7.1334,-7.1334,-7.1355,-7.1416,-7.1416,-7.1455,-7.1568,-7.1568,-7.1532,-7.1455,-7.1494,-7.155,-7.1586,-7.1581,-7.2057,-7.306,-7.3883,-7.4739,-7.5609,-7.6427,-7.6869,-7.691,-7.691,-7.6923,-7.6987,-7.6987,-7.6987,-7.6987,-7.6987,-7.7311,-7.809,-7.8987,-7.9922,-8.0818,-8.1558,-8.1831,-8.1636,-7.9193,-7.8531,-7.8882,-7.809,-7.7584,-7.922,-7.94,-8.0191,-8.1293,-8.1733,-8.1743,-8.2182,-8.2143,-8.2153,-8.2143,-8.2133,-8.2133,-8.2133,-8.2133,-8.2182,-8.2396,-8.302,-8.3791,-8.4912,-8.5868,-8.6609,-8.7078,-8.7302,-8.7302,-8.7292,-8.7281,-8.7281,-8.7281,-8.7281,-8.7302,-8.7302,-8.7292,-8.7292,-6.1773,-6.3065,-6.3345,-6.4334,-6.5639,-6.5743,-6.5756,-6.5846,-6.6101,-6.6244,-6.6499,-6.7744,-6.8077,-6.7711,-6.8899,-6.9308,-6.9069,-6.8822,-6.8767,-6.8861,-6.8452,-6.8328,-6.8675,-6.9247,-7.0142,-7.1131,-7.1247,-7.1291,-7.1415,-7.1396,-7.1435,-7.1455,-7.1455,-7.1397,-7.1262,-7.1397,-7.1415,-7.1219,-7.1335,-7.1547,-7.1581,-7.1581,-7.1598,-7.1591,-7.1591,-7.1606,-7.1675,-7.1675,-7.1645,-7.1636,-7.1636,-7.163,-7.1661,-7.1637,-7.2273,-7.365,-7.4131,-7.5001,-7.6222,-7.6741,-7.691,-7.6975,-7.6948,-7.6948,-7.6999,-7.6999,-7.6999,-7.6999,-7.6999,-7.7077,-7.7545,-7.8659,-8.0085,-8.146,-8.136,-8.0908,-8.0308,-7.9003,-7.796,-7.7687,-7.7209,-7.7209,-7.7443,-7.7765,-7.8438,-7.9881,-8.0514,-8.0952,-8.1811,-8.221,-8.2179,-8.2162,-8.2153,-8.2192,-8.2192,-8.2192,-8.2201,-8.2273,-8.2702,-8.328,-8.4646,-8.6059,-8.6761,-8.7377,-8.7369,-8.7369,-8.7312,-8.7302,-8.7302,-8.7312,-8.7312,-8.7312,-8.736,-8.736,-8.736,-6.1453,-6.2732,-6.3053,-6.4037,-6.5311,-6.5702,-6.5895,-6.5967,-6.5951,-6.6198,-6.6637,-6.7518,-6.8165,-6.8502,-6.9413,-6.9877,-6.9739,-6.9452,-6.9319,-6.9375,-6.9375,-6.9512,-6.9825,-6.998,-7.0504,-7.1278,-7.1355,-7.1455,-7.1513,-7.155,-7.1568,-7.1586,-7.1603,-7.1581,-7.1614,-7.1653,-7.163,-7.1645,-7.1645,-7.1661,-7.169,-7.169,-7.169,-7.1679,-7.1679,-7.1679,-7.1679,-7.1679,-7.1704,-7.169,-7.169,-7.169,-7.164,-7.1342,-7.2212,-7.408,-7.4016,-7.4691,-7.6456,-7.6923,-7.6936,-7.6999,-7.6999,-7.6999,-7.6999,-7.6999,-7.6999,-7.6999,-7.6999,-7.7011,-7.7217,-7.8252,-7.9793,-8.1051,-8.0524,-7.989,-8.0017,-7.8065,-7.6903,-7.6349,-7.5911,-7.5599,-7.5872,-7.5959,-7.7246,-7.8932,-7.9799,-8.0735,-8.1836,-8.2039,-8.2234,-8.2226,-8.2179,-8.2218,-8.2218,-8.2218,-8.221,-8.2234,-8.2599,-8.31,-8.4356,-8.5917,-8.673,-8.719,-8.7308,-8.7386,-8.7369,-8.733,-8.7338,-8.7338,-8.733,-8.7369,-8.7377,-8.7377,-8.7377,-6.1266,-6.2021,-6.2914,-6.3785,-6.4617,-6.5481,-6.5913,-6.6036,-6.608,-6.6466,-6.7045,-6.7304,-6.7944,-6.9628,-6.9417,-7.023,-7.0849,-7.0328,-7.0268,-7.0212,-7.0194,-7.0196,-7.0368,-7.0213,-7.0544,-7.1164,-7.1358,-7.1472,-7.1564,-7.1598,-7.163,-7.1645,-7.169,-7.1665,-7.169,-7.1704,-7.1679,-7.1665,-7.1665,-7.1704,-7.1718,-7.1718,-7.1732,-7.1745,-7.1745,-7.1706,-7.1693,-7.1693,-7.1732,-7.1732,-7.1718,-7.1732,-7.1654,-7.1018,-7.2043,-7.3847,-7.4092,-7.4728,-7.6493,-7.6987,-7.6999,-7.6999,-7.6999,-7.6999,-7.6999,-7.6999,-7.6999,-7.7011,-7.6999,-7.71,-7.7404,-7.8048,-7.9197,-8.0328,-7.94,-7.94,-7.9478,-7.7082,-7.4903,-7.546,-7.4242,-7.393,-7.4086,-7.4648,-7.5599,-7.8129,-7.9033,-8.0016,-8.1304,-8.2163,-8.2248,-8.2248,-8.2241,-8.2195,-8.2195,-8.2202,-8.2195,-8.2234,-8.2638,-8.3185,-8.4083,-8.541,-8.6386,-8.7003,-8.7276,-8.7401,-8.7401,-8.7401,-8.7401,-8.7401,-8.7393,-8.7393,-8.7401,-8.7393,-8.7393,-6.0927,-6.1147,-6.2012,-6.2914,-6.3846,-6.4762,-6.5522,-6.6105,-6.6126,-6.6204,-6.6436,-6.6495,-6.6767,-6.7271,-6.851,-6.9246,-6.9634,-7.037,-7.1204,-7.1106,-7.0538,-7.0704,-7.0868,-7.0416,-7.0308,-7.0626,-7.0665,-7.1023,-7.152,-7.1675,-7.169,-7.1704,-7.1718,-7.1679,-7.1718,-7.1693,-7.1679,-7.1679,-7.1718,-7.1732,-7.1758,-7.1758,-7.177,-7.1794,-7.1794,-7.1794,-7.1755,-7.1755,-7.1755,-7.1794,-7.177,-7.177,-7.1833,-7.2145,-7.3013,-7.4065,-7.4883,-7.5596,-7.6688,-7.6999,-7.6999,-7.6999,-7.6999,-7.6999,-7.6999,-7.6999,-7.7011,-7.6983,-7.6994,-7.7287,-7.7948,-7.8862,-7.9455,-7.9775,-7.9665,-7.9197,-7.8689,-7.6939,-7.5573,-7.4903,-7.4552,-7.4083,-7.3693,-7.3732,-7.5026,-7.7134,-7.8383,-7.9248,-8.0576,-8.1981,-8.2293,-8.2254,-8.2248,-8.2248,-8.2248,-8.2248,-8.2241,-8.2124,-8.2404,-8.284,-8.3738,-8.4519,-8.5371,-8.6386,-8.7323,-8.7407,-8.7407,-8.7407,-8.7401,-8.7407,-8.7407,-8.7407,-8.7407,-8.7407,-8.7407,-6.0872,-6.0955,-6.1803,-6.2442,-6.3047,-6.3879,-6.4791,-6.5412,-6.518,-6.5548,-6.6051,-6.5916,-6.5953,-6.6376,-6.7289,-6.7909,-6.8413,-6.9207,-6.9672,-6.9553,-6.9234,-6.9391,-6.9656,-6.9604,-6.9591,-7.0587,-7.0587,-7.0965,-7.1523,-7.1732,-7.1745,-7.1745,-7.1758,-7.177,-7.177,-7.1731,-7.1731,-7.1731,-7.1782,-7.1794,-7.1794,-7.1844,-7.1806,-7.1817,-7.1817,-7.1817,-7.1817,-7.1817,-7.1817,-7.1817,-7.1856,-7.1856,-7.1856,-7.2245,-7.3103,-7.4272,-7.4778,-7.5752,-7.6571,-7.7011,-7.7011,-7.6999,-7.6983,-7.6994,-7.6994,-7.6994,-7.7004,-7.6985,-7.7063,-7.7394,-7.8285,-7.8689,-7.9164,-7.9633,-7.9717,-7.9326,-7.8429,-7.7218,-7.6086,-7.5384,-7.5149,-7.4642,-7.4212,-7.3939,-7.4525,-7.6594,-7.8077,-7.8975,-8.0068,-8.1356,-8.2137,-8.2293,-8.2293,-8.2293,-8.2293,-8.2293,-8.2293,-8.2053,-8.1864,-8.2254,-8.284,-8.3504,-8.4167,-8.5456,-8.6861,-8.7368,-8.7407,-8.7407,-8.7407,-8.7407,-8.7407,-8.7407,-8.7407,-8.7407,-8.7407,-6.0834,-6.074,-6.1516,-6.187,-6.2066,-6.2799,-6.3574,-6.4154,-6.3767,-6.4309,-6.5432,-6.4984,-6.4981,-6.5885,-6.6161,-6.6687,-6.7286,-6.7575,-6.7847,-6.8118,-6.7881,-6.8147,-6.8268,-6.816,-6.8588,-7.0836,-7.0486,-7.0694,-7.1317,-7.1731,-7.1782,-7.1794,-7.1817,-7.1827,-7.1827,-7.1827,-7.1788,-7.1827,-7.1848,-7.1848,-7.1838,-7.1887,-7.1848,-7.1838,-7.1838,-7.1994,-7.2033,-7.1994,-7.1916,-7.1994,-7.2092,-7.2004,-7.1916,-7.2256,-7.288,-7.4566,-7.4995,-7.5775,-7.6721,-7.6994,-7.7004,-7.7011,-7.7014,-7.6995,-7.6985,-7.6985,-7.7004,-7.7012,-7.709,-7.7301,-7.8097,-7.8689,-7.8975,-7.9405,-7.9639,-7.9483,-7.8702,-7.7882,-7.7218,-7.6203,-7.593,-7.5618,-7.5071,-7.4759,-7.5305,-7.5969,-7.7453,-7.878,-7.9873,-8.0927,-8.1864,-8.2293,-8.2293,-8.1942,-8.1864,-8.2176,-8.2215,-8.1708,-8.1396,-8.1708,-8.2098,-8.2684,-8.3504,-8.5065,-8.6236,-8.6744,-8.7251,-8.7407,-8.7407,-8.7407,-8.7407,-8.7407,-8.7407,-8.7407,-8.7407,-6.0404,-5.9832,-6.005,-6.0151,-6.0345,-6.1176,-6.1698,-6.1853,-6.2356,-6.2762,-6.3149,-6.3029,-6.343,-6.4222,-6.5109,-6.5824,-6.64,-6.6555,-6.6982,-6.7354,-6.7176,-6.7291,-6.7965,-6.6857,-6.7091,-6.8338,-6.9145,-6.9924,-7.0793,-7.1477,-7.1838,-7.1887,-7.1867,-7.1876,-7.1876,-7.1876,-7.1876,-7.1876,-7.1885,-7.1885,-7.1876,-7.1876,-7.1924,-7.1915,-7.1954,-7.2305,-7.2617,-7.2305,-7.2197,-7.286,-7.2977,-7.2626,-7.2548,-7.3328,-7.4381,-7.5191,-7.5971,-7.6508,-7.6907,-7.6995,-7.6995,-7.6995,-7.7004,-7.7043,-7.7043,-7.7004,-7.702,-7.7067,-7.7082,-7.7173,-7.7329,-7.8546,-7.9014,-7.9209,-7.9873,-8.0381,-7.9678,-7.9209,-7.8468,-7.7179,-7.6867,-7.6672,-7.6164,-7.5735,-7.5813,-7.6516,-7.7726,-7.8858,-7.9873,-8.1005,-8.2098,-8.2293,-8.2293,-8.1786,-8.1317,-8.1786,-8.1942,-8.12,-8.0927,-8.1161,-8.1552,-8.1981,-8.2996,-8.4441,-8.5495,-8.608,-8.6588,-8.7173,-8.7407,-8.7407,-8.7407,-8.7407,-8.7407,-8.7407,-8.7407,-6.0211,-6.0338,-6.0359,-6.0171,-5.9939,-6.0267,-6.0479,-6.0458,-6.0536,-6.1039,-6.1518,-6.1469,-6.1477,-6.2215,-6.3356,-6.4396,-6.5047,-6.5226,-6.5732,-6.6237,-6.6221,-6.6295,-6.7257,-6.5826,-6.602,-6.6888,-6.7979,-6.907,-7.0016,-7.1282,-7.1798,-7.1915,-7.1885,-7.1893,-7.1893,-7.1893,-7.1893,-7.1893,-7.1901,-7.1901,-7.1893,-7.1893,-7.1932,-7.201,-7.2361,-7.2791,-7.3064,-7.3415,-7.3415,-7.3766,-7.386,-7.386,-7.4102,-7.4531,-7.5155,-7.5413,-7.6301,-7.6995,-7.7004,-7.7012,-7.7051,-7.7012,-7.702,-7.7301,-7.7458,-7.7426,-7.7082,-7.7089,-7.7095,-7.7101,-7.7179,-7.8702,-7.9326,-7.9522,-8.0576,-8.1044,-8.0654,-8.042,-7.9444,-7.8194,-7.7882,-7.7687,-7.7375,-7.6945,-7.6555,-7.7101,-7.8116,-7.8975,-7.9873,-8.1122,-8.2293,-8.2215,-8.2176,-8.1825,-8.1356,-8.1591,-8.1669,-8.0927,-8.0654,-8.0888,-8.1044,-8.1474,-8.2411,-8.3699,-8.4558,-8.5729,-8.6275,-8.6939,-8.7173,-8.7407,-8.7407,-8.7407,-8.7407,-8.7407,-8.7407,-6.008,-6.0997,-6.0822,-6.0325,-5.9725,-5.9627,-5.9413,-5.9061,-5.8673,-5.9232,-6.036,-6.0109,-5.9982,-6.0565,-6.19,-6.3157,-6.3767,-6.3779,-6.4206,-6.4634,-6.4814,-6.4922,-6.5133,-6.4978,-6.4909,-6.5104,-6.665,-6.8132,-6.9575,-7.1074,-7.1706,-7.1706,-7.1745,-7.1784,-7.1675,-7.1792,-7.1823,-7.1909,-7.1916,-7.1924,-7.1948,-7.2096,-7.2174,-7.2253,-7.3002,-7.3548,-7.3938,-7.4094,-7.4445,-7.4648,-7.4811,-7.4935,-7.5443,-7.5846,-7.5645,-7.5187,-7.6223,-7.6847,-7.702,-7.7067,-7.7075,-7.7028,-7.7089,-7.7479,-7.7674,-7.7401,-7.7101,-7.7101,-7.7101,-7.7101,-7.7296,-7.8663,-7.9483,-7.999,-8.1044,-8.2059,-8.1513,-8.1161,-8.081,-7.9873,-7.9209,-7.8429,-7.7843,-7.7375,-7.6828,-7.7257,-7.8194,-7.8936,-7.9912,-8.1356,-8.2254,-8.2137,-8.202,-8.1825,-8.1591,-8.1552,-8.1396,-8.0771,-8.0732,-8.0966,-8.0927,-8.0927,-8.2137,-8.351,-8.4948,-8.6041,-8.6431,-8.6744,-8.7173,-8.7407,-8.7407,-8.7414,-8.742,-8.742,-8.7414,-6.008,-6.0959,-6.0145,-5.9417,-5.8836,-5.8794,-5.7921,-5.6814,-5.7345,-5.7666,-5.8211,-5.8686,-5.9309,-6.0281,-6.1771,-6.2692,-6.2899,-6.3055,-6.3132,-6.33,-6.3379,-6.369,-6.4023,-6.3452,-6.3834,-6.431,-6.5503,-6.711,-6.917,-7.1058,-7.1455,-7.1143,-7.1423,-7.1591,-7.0922,-7.1312,-7.1982,-7.1943,-7.1982,-7.2021,-7.2177,-7.2717,-7.299,-7.3342,-7.3888,-7.4591,-7.502,-7.502,-7.502,-7.5612,-7.5651,-7.5305,-7.5032,-7.6164,-7.632,-7.6197,-7.6471,-7.7095,-7.7095,-7.7095,-7.7212,-7.7206,-7.7218,-7.7179,-7.7407,-7.7447,-7.7218,-7.7101,-7.7101,-7.7101,-7.7375,-7.8702,-7.9483,-8.0263,-8.12,-8.2059,-8.2059,-8.1747,-8.1396,-8.1056,-8.0236,-7.8903,-7.7921,-7.7492,-7.714,-7.7687,-7.8272,-7.9053,-7.9951,-8.1356,-8.2293,-8.2176,-8.1903,-8.1669,-8.1669,-8.1669,-8.1474,-8.081,-8.1005,-8.12,-8.1251,-8.1446,-8.226,-8.3627,-8.5032,-8.6158,-8.6627,-8.6978,-8.729,-8.7407,-8.7414,-8.7387,-8.7405,-8.7397,-8.7414,-5.9721,-6.0882,-5.9549,-5.8838,-5.8604,-5.8579,-5.7666,-5.6427,-5.6504,-5.673,-5.6815,-5.7172,-5.8104,-5.9529,-6.0798,-6.1562,-6.204,-6.2585,-6.248,-6.2385,-6.2569,-6.2774,-6.301,-6.3795,-6.4396,-6.4716,-6.6525,-6.8613,-6.994,-7.0213,-7.0414,-7.0766,-7.0576,-7.0348,-7.0074,-7.0348,-7.0777,-7.1206,-7.1714,-7.226,-7.269,-7.3119,-7.3549,-7.3978,-7.4798,-7.5423,-7.5696,-7.6086,-7.6086,-7.6516,-7.6516,-7.6399,-7.6203,-7.6672,-7.6867,-7.6672,-7.6867,-7.7101,-7.7101,-7.7101,-7.7296,-7.7687,-7.7804,-7.7882,-7.7843,-7.7726,-7.7492,-7.714,-7.7101,-7.7101,-7.7375,-7.8702,-7.9366,-8.0185,-8.1284,-8.187,-8.2299,-8.2254,-8.1987,-8.1647,-8.1222,-7.9884,-7.8747,-7.8317,-7.7849,-7.7609,-7.839,-7.9287,-8.0146,-8.1278,-8.1981,-8.2293,-8.1903,-8.1513,-8.1591,-8.1669,-8.1786,-8.1435,-8.1669,-8.1831,-8.1847,-8.2242,-8.2867,-8.3257,-8.4116,-8.5244,-8.6438,-8.7029,-8.723,-8.7347,-8.742,-8.7397,-8.7408,-8.747,-8.7465,-5.8857,-6.0864,-5.9608,-5.9012,-5.8892,-5.869,-5.7776,-5.6521,-5.6281,-5.6233,-5.6238,-5.6421,-5.7352,-5.8931,-6.0172,-6.1245,-6.1967,-6.2746,-6.2562,-6.2387,-6.2201,-6.2162,-6.2336,-6.3577,-6.4528,-6.523,-6.6655,-6.8619,-6.9639,-6.9957,-6.9996,-7.0621,-7.0348,-6.9762,-6.9489,-6.9606,-6.9996,-7.0816,-7.1324,-7.2104,-7.3041,-7.351,-7.4095,-7.4837,-7.5579,-7.6125,-7.6242,-7.6633,-7.7023,-7.7023,-7.7023,-7.6906,-7.6945,-7.6984,-7.7062,-7.6984,-7.7101,-7.7101,-7.7101,-7.714,-7.7492,-7.7804,-7.8038,-7.7687,-7.7531,-7.7843,-7.7921,-7.7101,-7.7101,-7.7107,-7.7425,-7.8679,-7.946,-8.028,-8.1256,-8.1837,-8.2305,-8.2266,-8.226,-8.2032,-8.1569,-8.1066,-8.0085,-7.9499,-7.8791,-7.7927,-7.8395,-7.9449,-8.0465,-8.1485,-8.1886,-8.232,-8.2115,-8.1764,-8.1803,-8.1881,-8.1915,-8.1993,-8.2221,-8.2299,-8.2198,-8.2487,-8.3079,-8.3391,-8.3584,-8.478,-8.6243,-8.6728,-8.717,-8.733,-8.7447,-8.7447,-8.7447,-8.7461,-8.7475,-5.7332,-6.1002,-6.0864,-6.0325,-5.9705,-5.8916,-5.8095,-5.7149,-5.6528,-5.6329,-5.6419,-5.6425,-5.7302,-5.8831,-6.0243,-6.15,-6.2698,-6.3634,-6.3283,-6.2659,-6.2123,-6.1868,-6.2048,-6.2531,-6.3364,-6.4626,-6.6784,-6.839,-6.9137,-7.0074,-7.0152,-7.0504,-7.023,-6.9957,-6.9723,-6.9567,-7.0074,-7.0816,-7.1363,-7.2143,-7.3275,-7.4095,-7.4876,-7.5657,-7.6477,-7.6984,-7.7023,-7.7068,-7.7107,-7.7107,-7.7101,-7.7101,-7.7101,-7.7101,-7.7101,-7.7101,-7.7101,-7.7101,-7.7101,-7.7101,-7.7179,-7.7218,-7.714,-7.7101,-7.7023,-7.7023,-7.7023,-7.7107,-7.7107,-7.7112,-7.7595,-7.8503,-7.9519,-8.0027,-8.0844,-8.1745,-8.2168,-8.2276,-8.2271,-8.2227,-8.192,-8.1504,-8.1105,-8.0397,-7.9221,-7.8317,-7.8536,-7.9555,-8.0801,-8.1738,-8.2024,-8.23,-8.2295,-8.2214,-8.2214,-8.2214,-8.2136,-8.2132,-8.2246,-8.2315,-8.2271,-8.2734,-8.3047,-8.3279,-8.3512,-8.4784,-8.5786,-8.6073,-8.6516,-8.7186,-8.75,-8.7461,-8.7461,-8.75,-8.75,-5.8606,-6.0963,-6.1099,-6.0635,-5.9856,-5.9033,-5.8211,-5.7504,-5.7183,-5.7067,-5.705,-5.668,-5.6757,-5.7761,-5.9173,-6.0468,-6.1451,-6.2776,-6.301,-6.2981,-6.2513,-6.211,-6.2329,-6.3527,-6.5295,-6.6154,-6.8,-6.9762,-7.0933,-7.0816,-7.1519,-7.1636,-7.0426,-6.9528,-6.9333,-7.0074,-7.0699,-7.1597,-7.2456,-7.3549,-7.3939,-7.4915,-7.5774,-7.6594,-7.6789,-7.7101,-7.7068,-7.7083,-7.7083,-7.7083,-7.7112,-7.7107,-7.7107,-7.7107,-7.7107,-7.7101,-7.7101,-7.7101,-7.7101,-7.714,-7.7335,-7.7609,-7.7101,-7.6516,-7.6672,-7.6805,-7.6775,-7.6888,-7.7112,-7.7156,-7.7391,-7.8584,-7.9647,-7.9764,-8.0429,-8.1601,-8.2031,-8.2187,-8.2265,-8.2265,-8.2226,-8.2065,-8.1667,-8.1261,-7.9923,-7.8747,-7.9167,-7.9687,-8.0937,-8.1914,-8.2187,-8.2304,-8.2304,-8.2304,-8.2304,-8.2304,-8.2304,-8.2304,-8.2304,-8.2304,-8.2304,-8.2344,-8.2656,-8.2929,-8.332,-8.4179,-8.4844,-8.5234,-8.5973,-8.707,-8.7461,-8.75,-8.75,-8.75,-8.7461,-5.9552,-6.1003,-6.1157,-6.0845,-6.0222,-5.9436,-5.8784,-5.8323,-5.8078,-5.7815,-5.7602,-5.7018,-5.6611,-5.6991,-5.8247,-5.9776,-6.1023,-6.227,-6.2932,-6.3088,-6.2942,-6.2391,-6.2896,-6.4085,-6.5736,-6.7292,-6.9444,-7.1128,-7.1792,-7.1948,-7.2378,-7.2065,-7.0855,-7.027,-7.0621,-7.0894,-7.1519,-7.2534,-7.3403,-7.4652,-7.4892,-7.5516,-7.6219,-7.6883,-7.7078,-7.7107,-7.7107,-7.7117,-7.7133,-7.7137,-7.7137,-7.7126,-7.7117,-7.7073,-7.7073,-7.7073,-7.7107,-7.7101,-7.7101,-7.7179,-7.7107,-7.6727,-7.6532,-7.6331,-7.6443,-7.6224,-7.6306,-7.6595,-7.6938,-7.7226,-7.7344,-7.863,-7.9492,-7.9726,-8.1094,-8.2148,-8.2031,-8.2109,-8.2226,-8.2304,-8.2265,-8.2265,-8.1953,-8.1484,-8.0508,-7.957,-7.9883,-8.0273,-8.0976,-8.1797,-8.2226,-8.2304,-8.2304,-8.2304,-8.2304,-8.2304,-8.2304,-8.2304,-8.2304,-8.2304,-8.2304,-8.2304,-8.2304,-8.2578,-8.2969,-8.3476,-8.4297,-8.5273,-8.625,-8.7226,-8.7422,-8.7461,-8.7461,-8.7461,-8.7422,-5.9571,-6.1041,-6.1173,-6.1169,-6.1014,-6.0336,-6.0007,-5.9788,-5.9193,-5.8526,-5.7944,-5.768,-5.7126,-5.697,-5.8061,-5.9581,-6.1257,-6.2348,-6.3166,-6.3624,-6.3361,-6.2516,-6.2675,-6.3784,-6.5858,-6.699,-6.9176,-7.1128,-7.1993,-7.1993,-7.25,-7.3047,-7.2417,-7.2182,-7.3002,-7.2339,-7.2456,-7.3203,-7.3572,-7.467,-7.5418,-7.5926,-7.6512,-7.6902,-7.7097,-7.713,-7.7165,-7.7161,-7.7176,-7.7186,-7.7187,-7.7148,-7.71,-7.7097,-7.7097,-7.7097,-7.7117,-7.7107,-7.7107,-7.7101,-7.6575,-7.5727,-7.573,-7.5337,-7.4496,-7.4809,-7.6036,-7.6523,-7.6953,-7.7305,-7.7851,-7.8594,-7.9297,-8.0039,-8.1406,-8.2109,-8.1992,-8.2109,-8.2226,-8.2304,-8.2304,-8.2265,-8.1992,-8.1601,-8.0859,-8.0429,-8.0664,-8.1015,-8.1406,-8.1758,-8.2226,-8.2304,-8.2304,-8.2304,-8.2304,-8.2304,-8.2304,-8.2304,-8.2304,-8.2304,-8.2304,-8.2304,-8.2344,-8.2422,-8.2969,-8.3711,-8.4648,-8.5625,-8.6552,-8.7336,-8.7366,-8.7422,-8.7422,-8.7392,-8.7397,-5.9627,-6.1173,-6.1229,-6.1297,-6.1205,-6.0462,-6.0411,-6.0773,-6.0188,-5.9659,-5.9191,-5.8334,-5.7243,-5.697,-5.7243,-5.8918,-6.1334,-6.1802,-6.262,-6.4013,-6.3789,-6.2836,-6.2836,-6.4297,-6.6058,-6.742,-6.9372,-7.1139,-7.201,-7.1971,-7.2518,-7.3065,-7.3827,-7.4379,-7.4197,-7.3846,-7.4158,-7.4999,-7.5551,-7.6036,-7.6013,-7.6445,-7.6836,-7.7148,-7.7148,-7.7187,-7.7226,-7.722,-7.7225,-7.7226,-7.7226,-7.7187,-7.7148,-7.7148,-7.7186,-7.7186,-7.7178,-7.7137,-7.71,-7.7066,-7.6948,-7.6092,-7.5115,-7.4803,-7.4956,-7.5425,-7.6092,-7.6797,-7.7539,-7.8125,-7.9023,-7.9258,-7.9726,-8.0039,-8.0976,-8.1523,-8.1719,-8.207,-8.2304,-8.2304,-8.2304,-8.2304,-8.2148,-8.2031,-8.1406,-8.1094,-8.125,-8.1484,-8.1836,-8.1992,-8.2304,-8.2304,-8.2304,-8.2304,-8.2304,-8.2304,-8.2422,-8.2539,-8.2422,-8.2304,-8.2304,-8.2617,-8.2812,-8.3125,-8.3554,-8.3999,-8.5244,-8.6298,-8.685,-8.7314,-8.7387,-8.7414,-8.7414,-8.7414,-8.7414,-5.9392,-6.1152,-6.1281,-6.1345,-6.1303,-6.0812,-6.0903,-6.1343,-6.1206,-6.0741,-5.9698,-5.8568,-5.7516,-5.6775,-5.6775,-5.8373,-6.1373,-6.1655,-6.2561,-6.4033,-6.4198,-6.3116,-6.3232,-6.4887,-6.5868,-6.7312,-6.9689,-7.1802,-7.103,-7.171,-7.245,-7.3451,-7.4731,-7.4978,-7.5027,-7.5347,-7.5736,-7.6313,-7.6629,-7.6751,-7.668,-7.6836,-7.7148,-7.7187,-7.7187,-7.7226,-7.7226,-7.7226,-7.7226,-7.7226,-7.7187,-7.7226,-7.7226,-7.7226,-7.7226,-7.7225,-7.7186,-7.7148,-7.7108,-7.7105,-7.7024,-7.6946,-7.5153,-7.4881,-7.574,-7.6132,-7.6797,-7.7539,-7.8359,-7.9023,-7.9609,-7.9805,-8.0195,-8.0508,-8.1015,-8.164,-8.1875,-8.2226,-8.2304,-8.2304,-8.2304,-8.2304,-8.2304,-8.2304,-8.2031,-8.1914,-8.1836,-8.2031,-8.2187,-8.2344,-8.2383,-8.2344,-8.2383,-8.2422,-8.2383,-8.2304,-8.2461,-8.2734,-8.2773,-8.2773,-8.3281,-8.3711,-8.3789,-8.394,-8.455,-8.5233,-8.6165,-8.7023,-8.7225,-8.7347,-8.7381,-8.7414,-8.7407,-8.7407,-8.7407,-5.8906,-6.1053,-6.1322,-6.1419,-6.1394,-6.1331,-6.1433,-6.1589,-6.2318,-6.1295,-5.9113,-5.8996,-5.7866,-5.6697,-5.6503,-5.8265,-6.0876,-6.1361,-6.25,-6.3717,-6.4193,-6.3059,-6.3394,-6.5126,-6.5804,-6.6742,-6.8769,-7.1268,-6.9922,-7.1244,-7.2455,-7.3299,-7.431,-7.5027,-7.5701,-7.6367,-7.6758,-7.6992,-7.707,-7.7109,-7.7031,-7.7109,-7.7226,-7.7226,-7.7226,-7.7226,-7.7223,-7.7211,-7.7215,-7.7187,-7.7187,-7.7187,-7.7226,-7.7226,-7.7217,-7.72,-7.719,-7.7165,-7.7094,-7.7083,-7.7273,-7.7278,-7.6583,-7.6118,-7.6118,-7.6629,-7.7335,-7.8122,-7.8906,-7.9453,-7.9922,-8.0429,-8.0898,-8.1289,-8.1758,-8.2031,-8.2187,-8.2304,-8.2304,-8.2304,-8.2304,-8.2304,-8.2304,-8.2304,-8.2304,-8.2226,-8.207,-8.2109,-8.2344,-8.2578,-8.2578,-8.2383,-8.2461,-8.2578,-8.2578,-8.2773,-8.3164,-8.3633,-8.3672,-8.375,-8.4297,-8.4648,-8.4609,-8.4866,-8.5663,-8.6392,-8.69,-8.7173,-8.7329,-8.7414,-8.7414,-8.7414,-8.7407,-8.7407,-8.7407,-5.89,-6.1213,-6.1352,-6.1447,-6.146,-6.1518,-6.1889,-6.2367,-6.1607,-6.0477,-5.9863,-5.8607,-5.7516,-5.6541,-5.6519,-5.7931,-5.9498,-6.0949,-6.1705,-6.2843,-6.4294,-6.3338,-6.3872,-6.5417,-6.5777,-6.6758,-6.8594,-7.0937,-7.0195,-7.1172,-7.2422,-7.3317,-7.4023,-7.4961,-7.582,-7.6719,-7.6992,-7.7226,-7.7226,-7.7226,-7.7226,-7.7226,-7.7226,-7.7226,-7.7226,-7.7223,-7.7208,-7.7195,-7.7195,-7.72,-7.7139,-7.7139,-7.7204,-7.7176,-7.7133,-7.713,-7.7117,-7.7107,-7.7112,-7.7107,-7.7296,-7.7804,-7.7698,-7.7307,-7.7073,-7.7312,-7.802,-7.8887,-7.9327,-7.972,-8.0305,-8.0852,-8.1321,-8.179,-8.2063,-8.2024,-8.218,-8.2297,-8.2297,-8.23,-8.2301,-8.2304,-8.2304,-8.2304,-8.2304,-8.2304,-8.2344,-8.2344,-8.2422,-8.2695,-8.2851,-8.2656,-8.2969,-8.3203,-8.3515,-8.375,-8.414,-8.4492,-8.4531,-8.4606,-8.4922,-8.5195,-8.5312,-8.5713,-8.6399,-8.6861,-8.7251,-8.7407,-8.7407,-8.7407,-8.7407,-8.7407,-8.7407,-8.7407,-8.7407,-5.8653,-6.1196,-6.1433,-6.1447,-6.144,-6.0857,-6.1218,-6.1958,-6.0867,-6.0282,-6.0097,-5.849,-5.7243,-5.6589,-5.6597,-5.7471,-5.9147,-6.0854,-6.1921,-6.2935,-6.4541,-6.4331,-6.4942,-6.5859,-6.6367,-6.7148,-6.8125,-6.9922,-7.0,-7.1055,-7.2344,-7.2734,-7.3672,-7.4531,-7.5351,-7.6133,-7.6797,-7.707,-7.7226,-7.7226,-7.7226,-7.7226,-7.7226,-7.7222,-7.722,-7.7211,-7.7161,-7.7151,-7.714,-7.7146,-7.7087,-7.7126,-7.7146,-7.7122,-7.7087,-7.7122,-7.7112,-7.7101,-7.7107,-7.7101,-7.7609,-7.8194,-7.8702,-7.8897,-7.8858,-7.9098,-7.9528,-8.0002,-7.9894,-7.9938,-8.0563,-8.1187,-8.1656,-8.2164,-8.2046,-8.1929,-8.2086,-8.2281,-8.232,-8.2324,-8.2295,-8.2303,-8.2304,-8.2304,-8.2304,-8.2304,-8.2422,-8.2617,-8.2617,-8.2695,-8.2969,-8.3047,-8.3515,-8.3984,-8.4336,-8.4648,-8.4961,-8.5234,-8.539,-8.5483,-8.5657,-8.593,-8.6288,-8.66,-8.6984,-8.7297,-8.7407,-8.7407,-8.7407,-8.7407,-8.7407,-8.7407,-8.7407,-8.7407,-8.7407,-5.8168,-6.1186,-6.1447,-6.1546,-6.1373,-5.9971,-6.0243,-6.1412,-6.0477,-6.0088,-5.9776,-5.8538,-5.7407,-5.6714,-5.6886,-5.7478,-5.8936,-6.0561,-6.1777,-6.2987,-6.4989,-6.5321,-6.5339,-6.6445,-6.6758,-6.7148,-6.8203,-6.9883,-7.0273,-7.1211,-7.2031,-7.207,-7.2969,-7.3828,-7.4531,-7.5625,-7.6367,-7.6758,-7.707,-7.7226,-7.7226,-7.7226,-7.7222,-7.7195,-7.719,-7.719,-7.7122,-7.7078,-7.7101,-7.7107,-7.7073,-7.7078,-7.7107,-7.7101,-7.7107,-7.7107,-7.7101,-7.7101,-7.7101,-7.7101,-7.7609,-7.8311,-7.9131,-7.9678,-7.9873,-7.9834,-8.0068,-8.0615,-8.0587,-8.0353,-8.0782,-8.0861,-8.1134,-8.1251,-8.1134,-8.1329,-8.1719,-8.1954,-8.2149,-8.2154,-8.2198,-8.2214,-8.2304,-8.2304,-8.2304,-8.2304,-8.2383,-8.2656,-8.2851,-8.2812,-8.3281,-8.3633,-8.4609,-8.5156,-8.5078,-8.5429,-8.5742,-8.5976,-8.6176,-8.6405,-8.6561,-8.6906,-8.7329,-8.7329,-8.7258,-8.7329,-8.7407,-8.7407,-8.7407,-8.7407,-8.7407,-8.7407,-8.7407,-8.7407,-8.7407,-5.7548,-5.9607,-6.095,-6.1539,-6.1451,-6.0438,-6.0945,-6.227,-5.9503,-5.8763,-5.9152,-5.878,-5.7899,-5.6932,-5.8045,-5.8442,-5.8019,-6.069,-6.1203,-6.2652,-6.4687,-6.5833,-6.5381,-6.6719,-6.6953,-6.7226,-6.832,-7.0234,-7.0664,-7.1406,-7.2031,-7.2109,-7.2773,-7.3398,-7.3789,-7.5,-7.5859,-7.6367,-7.6797,-7.7109,-7.7226,-7.7226,-7.7222,-7.72,-7.7185,-7.7185,-7.7112,-7.7107,-7.7101,-7.7101,-7.7107,-7.7107,-7.7101,-7.7101,-7.7101,-7.7101,-7.7101,-7.7101,-7.7101,-7.714,-7.757,-7.8077,-7.8819,-7.9717,-8.0146,-8.0107,-8.0302,-8.0927,-8.1122,-8.0849,-8.0615,-8.0498,-8.0459,-8.0341,-8.0302,-8.081,-8.1317,-8.1669,-8.1981,-8.2026,-8.2104,-8.2115,-8.2242,-8.2253,-8.2301,-8.2304,-8.2304,-8.25,-8.2851,-8.3047,-8.3984,-8.457,-8.6054,-8.6523,-8.624,-8.6151,-8.642,-8.665,-8.6879,-8.7147,-8.7381,-8.7375,-8.7407,-8.7407,-8.7407,-8.7407,-8.7407,-8.7407,-8.7407,-8.7407,-8.7407,-8.7407,-8.7407,-8.7407,-8.7407,-5.7325,-5.9071,-6.0827,-6.1598,-6.1373,-6.0252,-6.069,-6.1547,-5.9061,-5.8234,-5.8966,-5.8944,-5.846,-5.7921,-5.9469,-5.9318,-5.8543,-6.1364,-6.1876,-6.2657,-6.4453,-6.5829,-6.655,-6.6914,-6.7226,-6.7539,-6.9219,-7.0625,-7.0423,-7.1562,-7.2031,-7.2069,-7.2578,-7.2969,-7.332,-7.4375,-7.5234,-7.5898,-7.6406,-7.6797,-7.7066,-7.7176,-7.7178,-7.7156,-7.7151,-7.7146,-7.7101,-7.7101,-7.7101,-7.7101,-7.7101,-7.7101,-7.7101,-7.7101,-7.7101,-7.7101,-7.7101,-7.7101,-7.7101,-7.7218,-7.7492,-7.8038,-7.839,-7.9209,-7.9912,-7.9873,-7.9873,-8.0381,-8.0341,-8.0107,-7.96,-7.9366,-7.9717,-7.9795,-8.0029,-8.0459,-8.1278,-8.202,-8.2137,-8.2137,-8.2065,-8.1831,-8.1837,-8.1725,-8.1855,-8.2304,-8.2304,-8.2617,-8.289,-8.3395,-8.4333,-8.5231,-8.6481,-8.7216,-8.6923,-8.6912,-8.7108,-8.7342,-8.742,-8.7414,-8.7375,-8.7407,-8.7407,-8.7407,-8.7407,-8.7407,-8.7407,-8.7407,-8.7407,-8.7407,-8.7407,-8.7407,-8.7368,-8.7329,-8.7407,-5.7515,-5.9425,-6.0974,-6.1578,-6.1383,-6.0036,-6.0161,-6.0949,-5.917,-5.8499,-5.9178,-5.9506,-5.9443,-5.9697,-6.1074,-6.0411,-6.0768,-6.2652,-6.2813,-6.3321,-6.5429,-6.6292,-6.666,-6.6914,-6.7187,-6.8047,-6.9492,-6.8996,-6.8284,-7.037,-7.1978,-7.1981,-7.2144,-7.2383,-7.2929,-7.3437,-7.4062,-7.5078,-7.5742,-7.6328,-7.6731,-7.714,-7.7156,-7.7122,-7.7078,-7.7101,-7.7101,-7.7101,-7.7101,-7.7101,-7.7101,-7.7101,-7.7101,-7.7101,-7.7101,-7.7101,-7.7101,-7.7101,-7.7101,-7.7101,-7.7531,-7.796,-7.8155,-7.8585,-7.9287,-7.9405,-7.9405,-7.9561,-7.9522,-7.9366,-7.8858,-7.8819,-7.9209,-7.9287,-7.9639,-7.999,-8.0966,-8.202,-8.2215,-8.2176,-8.1942,-8.163,-8.1591,-8.1435,-8.1669,-8.2143,-8.2467,-8.2828,-8.3226,-8.389,-8.4632,-8.5409,-8.6303,-8.6873,-8.7251,-8.7368,-8.7407,-8.7407,-8.7414,-8.7407,-8.7407,-8.7407,-8.7407,-8.7407,-8.7407,-8.7407,-8.7407,-8.7407,-8.7407,-8.729,-8.7407,-8.7329,-8.7056,-8.7056,-8.7329,-5.8228,-6.113,-6.149,-6.1595,-6.1502,-6.1144,-6.0949,-6.0574,-6.0113,-5.9684,-5.9723,-6.1173,-6.1309,-5.9324,-6.2496,-6.2808,-6.1793,-6.3672,-6.414,-6.4375,-6.5897,-6.66,-6.6618,-6.6211,-6.6836,-6.7656,-6.8613,-6.9103,-6.8546,-7.0587,-7.1997,-7.1997,-7.1997,-7.2131,-7.2296,-7.2806,-7.3472,-7.4333,-7.5152,-7.5841,-7.6258,-7.6672,-7.7101,-7.7107,-7.7107,-7.7101,-7.7101,-7.7101,-7.7101,-7.7101,-7.7101,-7.7101,-7.7101,-7.7101,-7.7101,-7.7101,-7.7101,-7.7101,-7.7101,-7.7101,-7.7453,-7.7414,-7.7609,-7.7843,-7.8194,-7.8077,-7.8272,-7.8741,-7.878,-7.8936,-7.8663,-7.9053,-7.9405,-7.8858,-7.8819,-7.917,-7.9834,-8.12,-8.2098,-8.1981,-8.1786,-8.1747,-8.1903,-8.1825,-8.1903,-8.2215,-8.2299,-8.2623,-8.2779,-8.3789,-8.4882,-8.5501,-8.6165,-8.6861,-8.7407,-8.7368,-8.7407,-8.7407,-8.7407,-8.7407,-8.7407,-8.7407,-8.7407,-8.7407,-8.7407,-8.7407,-8.7407,-8.7407,-8.7134,-8.7056,-8.729,-8.729,-8.6939,-8.69,-8.7251]}]]